[[{"header":{"parameterUnit":"m.s-1","parameterCategory":1,"la1":30.6,"la2":29.2853,"lo1":-89.7004,"lo2":-87.6739,"dy":0.0162,"dx":0.0183,"nx":112,"ny":82,"refTime":"2023-09-19T18:00:00:Z","depth":0,"parameterNumber":2,"parameterNumberName":"U-component_of_WINDS"},"data":[0.0,0.0,0.0,0.0,0.0,0.0,0.0,0.0,0.0,0.0,0.0,0.0,0.0,0.0,0.0,0.0,0.0,0.0,0.0,0.0,0.0,0.0,0.0,0.0,0.0,0.0,0.0,0.0,0.0,0.0,0.0,0.0,0.0,0.0,0.0,0.0,0.0,0.0,0.0,0.0,0.0,0.0,0.0,0.0,0.0,0.0,0.0,0.0,0.0,0.0,0.0,0.0,0.0,0.0,0.0,0.0,0.0,0.0,0.0,0.0,0.0,0.0,0.0,0.0,0.0,0.0,0.0,0.0,0.0,0.0,0.0,0.0,0.0,0.0,0.0,0.0,0.0,0.0,0.0,0.0,0.0,0.0,0.0,0.0,0.0,0.0,0.0,0.0,0.0,0.0,2.8083,2.807,2.8025,2.7894,2.7709,2.7619,2.7401,2.7009,0.0,0.0,0.0,0.0,0.0,0.0,0.0,0.0,0.0,0.0,0.0,0.0,0.0,0.0,0.0,0.0,0.0,0.0,0.0,0.0,0.0,0.0,0.0,0.0,0.0,0.0,0.0,0.0,0.0,0.0,0.0,0.0,0.0,0.0,0.0,0.0,0.0,0.0,0.0,0.0,0.0,0.0,0.0,0.0,0.0,0.0,0.0,0.0,0.0,0.0,0.0,0.0,0.0,0.0,0.0,0.0,0.0,0.0,0.0,0.0,0.0,0.0,0.0,0.0,0.0,0.0,0.0,0.0,0.0,0.0,0.0,0.0,0.0,0.0,0.0,0.0,0.0,0.0,0.0,0.0,0.0,0.0,0.0,0.0,0.0,0.0,0.0,0.0,0.0,0.0,0.0,0.0,0.0,0.0,0.0,0.0,0.0,0.0,0.0,0.0,0.0,0.0,0.0,0.0,2.9789,2.9727,2.9717,2.9387,2.8594,2.8391,2.7937,2.6991,0.0,0.0,0.0,0.0,0.0,0.0,0.0,0.0,0.0,0.0,0.0,0.0,0.0,0.0,0.0,0.0,0.0,0.0,0.0,0.0,0.0,0.0,0.0,0.0,0.0,0.0,0.0,0.0,0.0,0.0,0.0,0.0,0.0,0.0,0.0,0.0,0.0,0.0,0.0,0.0,0.0,0.0,0.0,0.0,0.0,0.0,0.0,0.0,0.0,0.0,0.0,0.0,0.0,0.0,0.0,0.0,0.0,0.0,0.0,0.0,0.0,0.0,0.0,0.0,0.0,0.0,0.0,0.0,0.0,0.0,0.0,0.0,0.0,0.0,0.0,0.0,0.0,0.0,0.0,0.0,0.0,0.0,0.0,0.0,0.0,0.0,0.0,0.0,0.0,0.0,0.0,0.0,0.0,0.0,0.0,0.0,0.0,0.0,0.0,0.0,0.0,0.0,0.0,3.0204,3.0171,3.0098,3.0068,2.9839,2.9347,2.9172,2.8821,2.8177,2.7175,0.0,0.0,0.0,0.0,0.0,0.0,0.0,0.0,0.0,0.0,0.0,0.0,0.0,0.0,0.0,0.0,0.0,0.0,0.0,0.0,0.0,0.0,0.0,0.0,0.0,0.0,0.0,0.0,0.0,0.0,0.0,0.0,0.0,0.0,0.0,0.0,0.0,0.0,0.0,0.0,0.0,0.0,0.0,0.0,0.0,0.0,0.0,0.0,0.0,0.0,0.0,0.0,0.0,0.0,0.0,0.0,0.0,0.0,0.0,0.0,0.0,0.0,0.0,0.0,0.0,0.0,0.0,0.0,0.0,0.0,0.0,0.0,0.0,0.0,0.0,0.0,0.0,0.0,0.0,0.0,0.0,0.0,0.0,0.0,0.0,0.0,0.0,0.0,0.0,0.0,0.0,0.0,0.0,0.0,0.0,0.0,0.0,0.0,0.0,0.0,0.0,0.0,3.0204,3.0171,3.0117,3.0038,2.994,2.9789,2.9645,2.9451,2.9163,2.8324,0.0,0.0,0.0,0.0,0.0,0.0,0.0,0.0,0.0,0.0,0.0,0.0,0.0,0.0,0.0,0.0,0.0,0.0,0.0,0.0,0.0,0.0,0.0,0.0,0.0,0.0,0.0,0.0,0.0,0.0,0.0,0.0,0.0,0.0,0.0,0.0,0.0,0.0,0.0,0.0,0.0,0.0,0.0,0.0,0.0,0.0,0.0,0.0,0.0,0.0,0.0,0.0,0.0,0.0,0.0,0.0,0.0,0.0,0.0,0.0,0.0,0.0,0.0,0.0,0.0,0.0,0.0,0.0,0.0,0.0,0.0,0.0,0.0,0.0,0.0,0.0,0.0,0.0,0.0,0.0,0.0,0.0,0.0,0.0,0.0,0.0,0.0,0.0,0.0,0.0,0.0,0.0,0.0,0.0,0.0,0.0,0.0,0.0,0.0,0.0,0.0,0.0,3.0204,3.0171,3.0109,3.0034,2.9924,2.9735,2.957,2.9351,2.8952,2.867,0.0,0.0,0.0,0.0,0.0,0.0,0.0,0.0,0.0,0.0,0.0,0.0,0.0,0.0,0.0,0.0,0.0,0.0,0.0,0.0,0.0,0.0,0.0,0.0,0.0,0.0,0.0,0.0,0.0,0.0,0.0,0.0,0.0,0.0,0.0,0.0,0.0,0.0,0.0,0.0,0.0,0.0,0.0,0.0,0.0,0.0,0.0,0.0,0.0,0.0,0.0,0.0,0.0,0.0,0.0,0.0,0.0,0.0,0.0,0.0,0.0,0.0,0.0,0.0,0.0,0.0,0.0,0.0,0.0,0.0,0.0,0.0,0.0,0.0,0.0,0.0,0.0,0.0,0.0,0.0,0.0,0.0,0.0,0.0,0.0,0.0,0.0,0.0,0.0,0.0,0.0,0.0,0.0,0.0,0.0,0.0,0.0,0.0,0.0,0.0,0.0,0.0,3.18,3.1766,3.1669,3.12,3.0801,3.0581,2.9908,2.9372,2.9044,0.0,0.0,0.0,0.0,0.0,0.0,0.0,0.0,0.0,0.0,0.0,0.0,0.0,0.0,0.0,0.0,0.0,0.0,0.0,0.0,0.0,0.0,0.0,0.0,0.0,0.0,0.0,0.0,0.0,0.0,0.0,0.0,0.0,0.0,0.0,0.0,0.0,0.0,0.0,0.0,0.0,0.0,0.0,0.0,0.0,0.0,0.0,0.0,0.0,0.0,0.0,0.0,0.0,0.0,0.0,0.0,0.0,0.0,0.0,0.0,0.0,0.0,0.0,0.0,0.0,0.0,0.0,0.0,0.0,0.0,0.0,0.0,0.0,0.0,0.0,0.0,0.0,0.0,0.0,0.0,0.0,0.0,0.0,0.0,0.0,0.0,0.0,0.0,0.0,0.0,0.0,0.0,0.0,0.0,0.0,0.0,0.0,0.0,0.0,0.0,0.0,0.0,3.2691,3.2771,3.2752,3.2669,3.2157,3.1756,3.1557,3.081,3.0217,2.9913,0.0,0.0,0.0,0.0,0.0,0.0,0.0,0.0,0.0,0.0,0.0,0.0,0.0,0.0,0.0,0.0,0.0,0.0,0.0,0.0,0.0,0.0,0.0,0.0,0.0,0.0,0.0,0.0,0.0,0.0,0.0,0.0,0.0,0.0,0.0,0.0,0.0,0.0,0.0,0.0,0.0,0.0,0.0,0.0,0.0,0.0,0.0,0.0,0.0,0.0,0.0,0.0,0.0,0.0,0.0,0.0,0.0,0.0,0.0,0.0,0.0,0.0,0.0,0.0,0.0,0.0,0.0,0.0,0.0,0.0,0.0,0.0,0.0,0.0,0.0,0.0,0.0,0.0,0.0,0.0,0.0,0.0,0.0,0.0,0.0,0.0,0.0,0.0,0.0,0.0,0.0,0.0,0.0,0.0,0.0,0.0,0.0,0.0,0.0,0.0,0.0,0.0,3.273,3.279,3.2838,3.2838,3.2819,3.2741,3.2528,3.2316,3.2044,0.0,0.0,0.0,0.0,0.0,0.0,0.0,0.0,0.0,0.0,0.0,0.0,0.0,0.0,0.0,0.0,0.0,0.0,0.0,0.0,0.0,0.0,0.0,0.0,0.0,0.0,0.0,0.0,0.0,0.0,0.0,0.0,0.0,0.0,0.0,0.0,0.0,0.0,0.0,0.0,0.0,0.0,0.0,0.0,0.0,0.0,0.0,0.0,0.0,0.0,0.0,0.0,0.0,0.0,0.0,0.0,0.0,0.0,0.0,0.0,0.0,0.0,0.0,0.0,0.0,0.0,0.0,0.0,0.0,0.0,0.0,0.0,0.0,0.0,0.0,0.0,0.0,0.0,0.0,0.0,0.0,0.0,0.0,0.0,0.0,0.0,0.0,0.0,0.0,0.0,0.0,0.0,0.0,0.0,0.0,0.0,0.0,0.0,0.0,0.0,0.0,0.0,0.0,3.4534,3.4542,3.4572,3.4572,3.4064,3.3657,3.3503,3.2746,3.2146,3.1837,0.0,0.0,0.0,0.0,0.0,0.0,0.0,0.0,0.0,0.0,0.0,0.0,0.0,0.0,0.0,0.0,0.0,0.0,0.0,0.0,0.0,0.0,0.0,0.0,0.0,0.0,0.0,0.0,0.0,0.0,0.0,0.0,0.0,0.0,0.0,0.0,0.0,0.0,0.0,0.0,0.0,0.0,0.0,0.0,0.0,0.0,0.0,0.0,0.0,0.0,0.0,0.0,0.0,0.0,0.0,0.0,0.0,0.0,0.0,0.0,0.0,0.0,0.0,0.0,0.0,0.0,0.0,0.0,0.0,0.0,0.0,0.0,0.0,0.0,0.0,0.0,0.0,0.0,0.0,0.0,0.0,0.0,0.0,0.0,0.0,0.0,0.0,0.0,0.0,0.0,0.0,0.0,0.0,0.0,0.0,0.0,0.0,0.0,0.0,0.0,0.0,0.0,3.5293,3.532,3.533,3.533,3.4932,3.4597,3.448,3.3764,3.3223,3.2999,0.0,0.0,0.0,0.0,0.0,0.0,0.0,0.0,0.0,0.0,0.0,0.0,0.0,0.0,0.0,0.0,0.0,0.0,0.0,0.0,0.0,0.0,0.0,0.0,0.0,0.0,0.0,0.0,0.0,0.0,0.0,0.0,0.0,0.0,0.0,0.0,0.0,0.0,0.0,0.0,0.0,0.0,0.0,0.0,0.0,0.0,0.0,0.0,0.0,0.0,0.0,0.0,0.0,0.0,0.0,0.0,0.0,0.0,0.0,0.0,0.0,0.0,0.0,0.0,0.0,0.0,0.0,0.0,0.0,0.0,0.0,0.0,0.0,0.0,0.0,0.0,0.0,0.0,0.0,0.0,0.0,0.0,0.0,0.0,0.0,0.0,0.0,0.0,0.0,0.0,0.0,0.0,0.0,0.0,0.0,0.0,0.0,0.0,0.0,0.0,0.0,0.0,3.5293,3.5354,3.5412,3.5412,3.546,3.5451,3.5308,3.5051,3.4832,3.4626,0.0,0.0,0.0,0.0,0.0,0.0,0.0,0.0,0.0,0.0,0.0,0.0,0.0,0.0,0.0,0.0,0.0,0.0,0.0,0.0,0.0,0.0,0.0,0.0,0.0,0.0,0.0,0.0,0.0,0.0,0.0,0.0,0.0,0.0,0.0,0.0,0.0,0.0,0.0,0.0,0.0,0.0,0.0,0.0,0.0,0.0,0.0,0.0,0.0,0.0,0.0,0.0,0.0,0.0,0.0,0.0,0.0,0.0,0.0,0.0,3.0254,3.0243,0.0,0.0,0.0,0.0,0.0,0.0,0.0,0.0,0.0,0.0,0.0,0.0,0.0,0.0,0.0,0.0,0.0,0.0,0.0,0.0,0.0,0.0,0.0,0.0,0.0,0.0,0.0,0.0,0.0,0.0,0.0,0.0,0.0,0.0,0.0,0.0,0.0,0.0,0.0,0.0,3.5285,3.5364,3.5412,3.546,3.5493,3.5446,3.53,3.5102,3.4889,3.4693,3.439,0.0,0.0,0.0,0.0,0.0,0.0,0.0,0.0,0.0,0.0,0.0,0.0,0.0,0.0,0.0,0.0,0.0,0.0,0.0,0.0,0.0,0.0,0.0,0.0,0.0,0.0,0.0,0.0,0.0,0.0,0.0,0.0,0.0,0.0,0.0,0.0,0.0,0.0,0.0,0.0,0.0,0.0,0.0,0.0,0.0,0.0,0.0,0.0,0.0,0.0,0.0,0.0,0.0,0.0,0.0,0.0,0.0,0.0,0.0,3.1155,3.08,0.0,0.0,0.0,0.0,0.0,0.0,0.0,0.0,0.0,0.0,0.0,0.0,0.0,0.0,0.0,0.0,0.0,0.0,0.0,0.0,0.0,0.0,0.0,0.0,0.0,0.0,0.0,0.0,0.0,0.0,0.0,0.0,0.0,0.0,0.0,0.0,0.0,0.0,0.0,0.0,3.53,3.5398,3.546,3.5493,3.5493,3.5446,3.5315,3.5155,3.4963,3.4773,3.4542,0.0,0.0,0.0,0.0,0.0,0.0,0.0,0.0,0.0,0.0,0.0,0.0,0.0,0.0,0.0,0.0,0.0,0.0,0.0,0.0,0.0,0.0,0.0,0.0,0.0,0.0,0.0,0.0,0.0,0.0,0.0,0.0,0.0,0.0,0.0,0.0,0.0,0.0,0.0,0.0,0.0,0.0,0.0,0.0,0.0,0.0,0.0,0.0,0.0,0.0,0.0,0.0,0.0,3.3067,3.3395,3.3405,3.3405,3.3405,3.3327,3.1877,3.1257,3.1249,3.1245,0.0,0.0,0.0,0.0,0.0,0.0,0.0,0.0,0.0,0.0,0.0,0.0,0.0,0.0,0.0,0.0,0.0,0.0,0.0,0.0,0.0,0.0,3.4835,3.5609,3.5773,3.5523,3.4747,0.0,0.0,0.0,0.0,0.0,0.0,0.0,0.0,0.0,0.0,0.0,3.5737,3.5869,3.5949,3.5949,3.5815,3.5671,3.5561,3.5283,3.5018,3.4831,3.4607,3.4427,0.0,0.0,0.0,0.0,0.0,0.0,0.0,0.0,0.0,0.0,0.0,0.0,0.0,0.0,0.0,0.0,0.0,0.0,0.0,0.0,0.0,0.0,0.0,0.0,0.0,0.0,0.0,0.0,0.0,0.0,0.0,0.0,2.9723,3.054,0.0,0.0,0.0,0.0,0.0,0.0,0.0,0.0,0.0,0.0,0.0,0.0,0.0,3.3066,3.3063,3.317,3.3239,3.323,3.3347,3.3399,3.3411,3.3411,3.3411,3.3392,3.315,0.0,3.3063,3.3065,0.0,0.0,0.0,0.0,0.0,0.0,0.0,0.0,0.0,0.0,0.0,0.0,0.0,0.0,0.0,0.0,0.0,0.0,0.0,0.0,0.0,0.0,3.5648,3.5768,3.5838,3.5845,3.5721,3.5678,3.5657,3.5596,3.5519,3.5708,0.0,0.0,0.0,0.0,0.0,0.0,3.7563,3.7613,3.7661,3.7661,3.6988,3.6517,3.6526,3.5643,3.5035,3.4908,3.4628,3.445,3.4293,3.4074,0.0,0.0,0.0,0.0,0.0,0.0,0.0,0.0,0.0,0.0,0.0,0.0,0.0,0.0,0.0,0.0,0.0,0.0,0.0,0.0,0.0,0.0,0.0,0.0,0.0,0.0,0.0,0.0,0.0,3.0078,3.0448,3.0753,3.1233,3.1532,0.0,0.0,0.0,0.0,0.0,0.0,0.0,0.0,0.0,3.3394,3.3398,3.3392,3.3404,3.3883,3.4131,3.4147,3.4632,3.4858,3.4854,3.4831,3.4807,3.4807,3.4813,3.4813,3.4729,3.379,3.3359,3.3294,0.0,0.0,0.0,0.0,3.3169,3.323,3.3759,3.3942,3.4022,3.4501,0.0,0.0,0.0,0.0,0.0,0.0,0.0,3.5121,3.5542,3.5727,3.5924,3.646,3.6605,3.6755,3.7254,3.7311,3.7109,3.655,3.6386,3.6593,3.7409,3.7475,0.0,0.0,0.0,3.7905,3.7939,3.7973,3.8007,3.8007,3.7661,3.7416,3.7371,3.6916,3.6535,3.6369,3.5694,3.5233,3.5091,3.4383,3.3921,0.0,0.0,0.0,0.0,0.0,0.0,0.0,0.0,0.0,0.0,0.0,0.0,0.0,0.0,0.0,0.0,0.0,0.0,0.0,0.0,0.0,0.0,0.0,0.0,0.0,0.0,0.0,0.0,3.0856,3.0951,3.1113,3.1716,3.2196,0.0,0.0,0.0,0.0,0.0,0.0,3.4042,3.4072,3.408,3.4062,3.4072,3.4081,3.4081,3.4719,3.5028,3.5048,3.5685,3.5994,3.5994,3.5942,3.6055,3.627,3.6231,3.6362,3.642,3.4737,3.4007,3.3964,3.3963,3.3935,3.39,3.3892,3.3887,3.3979,3.4695,3.4948,3.5076,3.5713,3.5879,3.5791,3.5727,0.0,0.0,0.0,0.0,3.6047,3.629,3.6403,3.6647,3.735,3.7527,3.7702,3.8357,3.8507,3.8299,3.7591,3.74,3.7618,3.8433,3.845,0.0,3.8659,3.8628,3.8604,3.8657,3.8657,3.8642,3.8642,3.845,3.83,3.8251,3.798,3.7712,3.7547,3.6721,3.6186,3.604,3.5182,3.4559,3.4252,0.0,0.0,0.0,0.0,0.0,0.0,0.0,0.0,0.0,0.0,0.0,0.0,0.0,0.0,0.0,0.0,0.0,0.0,0.0,0.0,0.0,0.0,0.0,0.0,0.0,0.0,0.0,0.0,0.0,3.1948,3.207,0.0,0.0,0.0,0.0,3.4569,3.463,3.4998,3.5837,3.5876,3.5876,3.5879,3.5876,3.5874,3.5874,3.5913,3.5932,3.5932,3.5971,3.5991,3.5991,3.6001,3.6446,3.7226,3.7167,3.76,3.8224,3.6484,3.5758,3.577,3.5769,3.5778,3.5761,3.5759,3.5753,3.5769,3.5828,3.5877,3.5931,3.5986,3.5908,3.5787,3.5708,3.5699,0.0,0.0,3.693,3.7208,3.7967,3.8227,3.828,3.8338,3.8388,3.8455,3.8501,3.8507,3.8494,3.8436,3.8388,3.8583,3.9392,0.0,3.968,4.0442,4.0513,4.0477,4.0472,4.0404,4.0354,4.0354,3.9681,3.9219,3.9219,3.8361,3.7747,3.7603,3.7371,3.7137,3.6953,3.6771,3.6203,3.5262,3.5027,0.0,0.0,0.0,0.0,0.0,0.0,0.0,0.0,0.0,0.0,0.0,0.0,0.0,0.0,0.0,0.0,0.0,0.0,0.0,0.0,0.0,0.0,0.0,0.0,0.0,0.0,0.0,0.0,3.2897,3.3429,0.0,3.4218,3.4739,3.5198,3.5506,3.554,3.5662,3.5973,3.652,3.6836,3.6841,3.7382,3.7672,3.7672,3.7672,3.7672,3.7672,3.7672,3.765,3.7604,3.7613,3.778,3.8064,3.8049,3.8213,3.8447,3.7837,3.7576,3.7576,3.757,3.723,3.6732,3.6738,3.6417,3.5956,3.5957,3.6344,3.6921,3.7435,3.7589,3.7531,3.7467,3.7444,3.7494,3.7773,3.7898,3.7994,3.8296,3.8382,3.8536,3.9093,3.9245,3.9434,4.0046,4.0162,4.0168,4.0168,3.9669,3.9512,4.0349,4.045,4.0498,4.0787,4.07,4.0607,4.0593,4.0534,4.0489,4.0489,4.0239,4.0065,4.0065,3.9733,3.9461,3.9298,3.8573,3.808,3.7915,3.7193,3.6633,3.6278,3.611,3.58,0.0,0.0,0.0,0.0,0.0,0.0,0.0,0.0,0.0,0.0,0.0,0.0,0.0,0.0,0.0,0.0,0.0,0.0,0.0,0.0,0.0,0.0,0.0,0.0,0.0,3.3039,3.3517,3.3802,3.4354,3.481,3.5114,3.5664,3.6127,3.6411,3.6438,3.6561,3.6855,3.7422,3.7733,3.7745,3.8302,3.859,3.8593,3.8593,3.8593,3.8593,3.8593,3.8567,3.8498,3.8506,3.8649,3.8945,3.8934,3.9104,3.9376,3.9376,3.9382,3.931,3.8725,3.8146,3.7649,3.763,3.7297,3.685,3.6845,3.7225,3.7791,3.8329,3.8509,3.8487,3.8458,3.8441,3.8501,3.8762,3.8852,3.893,3.9213,3.9282,3.9427,3.9996,4.0147,4.031,4.0929,4.1084,4.11,4.1106,4.0602,4.0357,4.0928,4.0984,4.0926,4.0927,4.0773,4.0655,4.0629,4.0579,4.0539,4.0539,4.0504,4.0489,4.0489,4.0495,4.043,4.0288,3.9547,3.906,3.8878,3.8139,3.758,3.7217,3.6756,3.6445,3.6248,0.0,0.0,0.0,0.0,0.0,0.0,0.0,0.0,0.0,0.0,0.0,0.0,0.0,0.0,0.0,0.0,0.0,0.0,0.0,0.0,0.0,0.0,0.0,3.3551,3.3461,3.3796,3.4644,3.4745,3.5084,3.5952,3.6031,3.6406,3.7279,3.7348,3.7704,3.8555,3.8633,3.8632,3.8646,3.8654,3.8687,3.869,3.8687,3.8687,3.8687,3.8687,3.8645,3.8573,3.8584,3.9039,3.9842,3.985,4.0331,4.111,4.111,4.111,4.0935,3.924,3.8558,3.8539,3.8531,3.8511,3.8497,3.8528,3.8549,3.8555,3.857,3.858,3.8587,3.8576,3.8588,3.8731,3.9526,3.9793,4.0013,4.0789,4.0996,4.0996,4.0996,4.0991,4.0993,4.1007,4.1045,4.1106,4.1109,4.1105,4.1096,4.1096,4.1031,4.1,4.1003,4.0898,0.0,4.0706,4.064,4.0607,4.0588,4.0539,4.0504,4.0504,4.0495,4.0466,4.0413,4.0272,4.0098,3.9826,3.9689,3.9102,3.8055,3.7026,3.635,3.6054,0.0,0.0,0.0,0.0,0.0,0.0,0.0,0.0,0.0,0.0,0.0,0.0,0.0,0.0,0.0,0.0,0.0,0.0,0.0,0.0,0.0,3.5078,3.5345,3.4476,3.4846,3.5295,3.5544,3.5568,3.5927,3.6859,3.6933,3.7297,3.8183,3.8242,3.8358,3.8594,3.9198,3.9545,3.9532,4.0115,4.0405,4.0405,4.0418,4.0414,4.0414,4.0407,4.0398,4.0384,4.0329,4.0435,4.0669,4.0669,4.0799,4.1032,4.1085,4.111,4.1052,4.0565,4.0,3.9435,3.9441,3.9045,3.8597,3.9219,3.9442,3.9559,4.0171,4.039,4.0387,4.0394,4.0385,4.0434,4.0647,4.0733,4.0772,4.0961,4.0993,4.1,4.1052,4.1058,4.107,4.1061,4.1096,4.1105,4.1094,4.1097,4.1097,4.1109,4.1042,4.1007,4.1006,4.0943,4.0849,4.0776,4.0757,4.0726,4.0673,4.0607,4.0564,4.0573,4.0543,4.0495,4.0466,4.0344,4.0215,4.0098,3.9826,3.9414,3.8875,3.8535,3.796,0.0,0.0,0.0,0.0,0.0,0.0,0.0,0.0,0.0,0.0,0.0,0.0,0.0,0.0,0.0,0.0,0.0,0.0,0.0,0.0,0.0,0.0,3.5679,3.5932,3.5767,3.6153,3.6445,3.6445,3.6776,3.7196,3.7756,3.7808,3.8154,3.9032,3.909,3.925,3.9628,4.0131,4.0394,4.0398,4.0867,4.1101,4.1097,4.1109,4.1105,4.11,4.1091,4.1095,4.1065,4.1013,4.0972,4.0949,4.0957,4.0964,4.0964,4.1018,4.1052,4.1059,0.0,0.0,0.0,0.0,4.0019,3.9669,4.0179,4.035,4.0422,4.0941,4.1099,4.1092,4.1093,4.1107,4.1094,4.109,4.1096,4.1091,4.1056,4.1031,4.105,4.1081,4.1106,4.1106,4.11,4.1109,4.1094,4.1101,4.1104,0.0,4.1101,4.1061,4.1037,4.1039,4.0979,4.0932,4.0878,4.0858,4.0815,4.0757,4.072,4.0668,4.0646,4.0583,0.0,0.0,0.0,4.0326,4.0196,3.9892,0.0,0.0,0.0,3.8859,3.8229,3.7996,0.0,0.0,3.542,3.4853,0.0,0.0,0.0,0.0,0.0,0.0,0.0,0.0,0.0,0.0,0.0,0.0,0.0,0.0,0.0,0.0,3.6159,3.6434,3.723,3.7425,3.7467,3.737,3.8032,3.8544,3.8633,3.8658,3.9009,3.9871,3.9954,4.0274,4.1068,4.1097,0.0,0.0,0.0,4.11,4.1086,4.1086,4.1081,4.1084,4.1084,4.1039,4.098,4.098,4.0935,4.0898,4.0878,4.0896,4.0896,4.096,4.0976,4.1006,4.1065,4.111,4.111,4.111,4.111,4.1091,4.1109,0.0,0.0,4.1095,4.109,4.1097,4.1105,4.1093,4.1108,4.1097,4.1104,4.1094,4.11,4.1096,4.1096,4.1096,4.1096,4.11,4.1094,4.1094,4.1097,4.1108,4.1108,4.1108,4.1108,4.1101,4.1109,4.1096,4.1056,4.1007,4.1011,4.0952,4.0907,4.0828,4.0815,0.0,4.0726,4.0648,4.0607,4.0603,4.0531,4.0415,4.0215,3.9975,3.9781,3.9642,3.9427,3.9272,3.9129,3.8921,3.8713,3.8473,3.6404,3.5314,0.0,0.0,0.0,0.0,0.0,0.0,0.0,0.0,0.0,0.0,0.0,0.0,0.0,0.0,0.0,3.6929,3.7055,3.7327,3.8131,3.8848,3.9045,3.8324,3.8402,3.8778,3.9477,3.9555,3.9916,4.0788,4.0842,4.092,4.109,4.1105,4.1096,4.1106,4.11,4.107,4.1026,4.1025,4.0991,4.0929,4.0932,0.0,4.0849,4.0849,4.0818,4.0823,4.0815,4.0826,4.0819,4.084,4.0878,4.0929,4.1052,4.111,4.111,4.111,4.111,4.111,4.1091,4.1091,4.1091,4.1089,4.1095,4.1106,4.1091,4.1107,0.0,4.1091,4.1099,4.1104,4.1104,4.1104,4.1104,4.1104,4.1104,4.1104,4.1104,4.1108,4.1108,4.1108,4.1108,4.1108,4.1108,4.1101,4.1094,4.109,4.1096,4.1081,4.1084,4.1078,4.1032,4.098,4.0915,4.0849,4.0784,4.0706,4.0655,4.0607,4.0527,4.0432,4.0289,4.0177,3.9996,3.9781,3.9623,3.9452,3.9272,3.9045,3.891,3.8713,3.786,3.7343,0.0,0.0,0.0,0.0,0.0,0.0,0.0,0.0,0.0,0.0,0.0,3.5989,3.6459,0.0,3.6895,3.7753,3.7909,3.8181,3.9039,3.9524,3.9649,3.9201,3.9532,3.9961,4.0401,4.044,4.0616,4.1025,4.1045,4.1058,4.1052,4.1052,4.1026,4.1006,4.0999,4.0976,4.0904,4.0897,4.0869,4.0789,4.0798,4.0754,4.0655,4.0649,4.0655,4.0654,4.0648,4.0655,4.0649,4.0723,4.0768,4.08,4.0915,4.0984,4.1059,4.1059,4.1065,4.111,4.111,4.111,4.1091,4.1097,4.1103,4.1109,4.1096,4.1104,4.1103,4.1092,4.1094,4.109,4.1108,4.1107,4.1107,4.1103,4.1101,4.1099,4.1091,4.1097,4.1103,4.1107,4.1107,4.1107,4.1107,4.1105,4.1099,4.1104,4.1097,4.1109,4.1096,4.1096,4.1081,4.1046,4.1013,4.0964,4.0917,4.0815,4.07,4.0621,4.0573,4.0515,4.0396,4.0326,4.0215,3.9996,3.987,3.967,3.9401,3.921,3.9007,3.8833,3.8446,3.8119,0.0,0.0,0.0,0.0,0.0,0.0,0.0,3.5688,3.5741,3.5818,3.6002,3.6372,3.7097,3.7402,3.7814,3.8613,3.8743,3.9053,3.9925,4.0045,4.0058,4.0058,4.0662,4.111,4.111,4.1085,4.1059,4.1006,4.0991,4.0964,4.096,4.0952,4.0935,4.0858,4.0849,4.0819,4.0738,4.0734,4.0718,4.0655,4.0655,4.0602,4.0481,4.0481,4.0485,4.0492,4.0485,4.0466,4.0466,4.0582,4.0623,4.0655,4.0723,4.082,4.0921,4.0972,4.1006,4.1059,4.1078,4.1078,4.1078,4.1078,4.1071,4.1078,4.1091,4.1081,4.1078,4.1088,4.1077,4.1086,4.109,4.1091,4.1092,4.1094,4.1093,4.1092,4.1103,4.1108,4.1093,4.1094,4.1092,4.1091,4.1091,4.1091,4.1094,4.1099,4.1094,4.1091,4.1097,4.1097,4.109,4.1091,4.1106,4.1064,4.1003,4.0878,4.0769,4.0648,4.0612,4.0592,4.0515,4.0466,4.0362,4.0215,4.0098,3.9848,3.9551,3.9324,3.9101,3.8892,3.8664,3.8382,3.4647,3.4959,3.5282,3.5496,3.5621,3.5704,0.0,3.5767,3.5814,3.5872,3.6512,3.7108,3.7253,3.7929,3.8728,3.953,3.9657,3.9964,4.0822,4.0947,4.0955,4.0955,4.1033,4.111,4.111,4.1059,4.0999,4.1003,4.0943,4.0888,4.084,4.0819,4.0787,4.073,4.0718,4.0649,4.0521,4.0521,4.0526,4.0519,4.0519,4.0469,4.0422,4.0422,4.0408,4.0413,4.0394,4.0377,4.0323,4.0353,4.0367,4.0438,4.05,4.0568,4.0667,4.0849,4.0913,4.0921,4.0996,4.1003,4.1003,4.1003,4.1003,4.1011,4.1006,4.1013,4.1,4.1,4.1006,4.1017,4.1081,4.1105,4.1094,4.1091,4.1101,4.1105,4.109,4.1091,4.1091,4.1105,4.1108,4.1105,4.1105,4.1105,4.1091,4.1092,4.1108,4.1105,4.1091,4.1108,4.1108,4.1104,4.1097,4.1072,4.1013,4.0924,4.0858,4.0788,4.0681,4.0598,4.0592,4.0515,4.0432,4.0289,4.0157,3.9954,3.967,3.9427,3.9183,3.8997,3.8851,3.8609,3.4793,3.5174,3.5504,3.5679,3.576,3.5833,3.5903,3.5914,3.606,3.6606,3.6999,3.7551,3.8571,3.9043,3.9569,4.0413,4.0554,4.0674,4.1045,4.1091,4.1085,4.1059,4.1039,4.1039,4.1039,4.1018,4.0988,4.0936,4.0849,4.0746,4.0687,4.0649,4.061,4.0574,4.0545,4.0496,4.0434,4.0441,4.0408,4.0375,4.0375,4.0377,4.0344,4.0344,4.0308,4.0291,4.0234,4.0215,4.0196,4.0234,4.0271,4.0289,4.036,4.0389,4.045,4.0699,4.08,4.084,4.0869,4.0906,4.0935,4.0897,4.0906,4.0935,4.0896,4.0913,4.0957,4.0991,4.1006,4.1007,4.1025,4.1045,4.1039,4.1037,4.1003,4.0989,4.1022,4.1011,4.098,4.0974,4.0987,4.0981,4.0981,4.0981,4.0986,4.0972,4.1041,4.1092,4.1093,4.1092,4.1091,4.1105,4.1094,4.1097,4.1057,4.1007,4.0932,4.0858,4.0773,4.07,4.066,4.0583,4.0508,4.0356,4.0215,4.0019,3.9758,3.9502,3.9219,3.8997,3.8862,3.8652,3.5007,3.5374,3.5679,3.581,3.5885,3.6005,3.6293,3.6355,3.6606,3.748,3.7844,3.8377,3.9576,4.0006,4.0374,4.1007,4.1075,4.1065,4.1065,4.1078,4.1052,4.0972,4.0964,4.0976,4.0949,4.0952,4.0936,4.0856,4.075,4.0642,4.0545,4.05,4.0454,4.0441,4.0408,4.0356,4.0358,4.0362,4.0345,4.0308,4.0308,4.0309,4.031,4.0272,4.0234,4.0176,4.0077,4.0036,4.0015,4.0036,4.0017,4.0038,4.0099,4.012,4.0158,4.0367,4.0557,4.0723,4.0746,4.0787,4.0818,4.0757,4.0787,4.0818,4.0787,4.0809,4.0849,4.0917,4.0943,4.0941,4.0945,4.0937,4.0941,4.0913,4.0874,4.0855,4.0906,4.0878,4.0829,4.0849,4.084,4.0839,4.0839,4.0839,4.0848,4.0837,4.0928,4.1008,4.1062,4.108,4.1071,4.1093,4.1107,4.1099,4.1099,4.1066,4.0994,4.0929,4.0869,4.0787,4.0732,4.0675,4.0574,4.0457,4.0323,4.0139,3.987,3.9599,3.935,3.9092,3.8921,3.8743,3.5309,3.5599,3.5821,3.5967,3.6007,3.6225,3.7065,3.726,3.7512,3.8378,3.9234,3.9818,3.9803,4.0482,4.1061,4.1097,4.1052,4.1007,4.0993,4.0991,4.0968,4.0913,4.0906,4.0869,4.0798,4.0858,4.0856,4.0725,4.064,4.0558,4.0422,4.0394,4.0379,4.0307,4.0288,4.0308,4.0291,4.031,4.031,4.031,4.031,4.031,4.031,4.0234,4.0176,4.0096,3.9954,3.9867,3.9804,3.967,3.9623,3.9623,3.9623,3.967,3.9739,3.9785,4.012,4.0519,4.0574,4.0602,4.0602,4.0602,4.0602,4.0621,4.0681,4.07,4.0726,4.0788,4.08,4.0812,4.0807,4.0818,4.0787,4.0715,4.0707,4.0699,4.0718,4.0711,4.0711,4.0706,4.0706,4.0706,4.0706,4.0706,4.0706,4.0706,4.0706,4.0784,4.0985,4.1,4.103,4.1091,4.1094,4.1093,4.1091,4.1099,4.1062,4.0998,4.0928,4.0867,4.08,4.0723,4.0662,4.0607,4.0463,4.0289,4.0077,3.9826,3.9532,3.9298,3.9092,3.8921,3.5399,3.5621,3.5818,3.5963,3.6433,3.6946,3.7223,3.7747,3.8413,3.9277,3.9704,4.0057,4.0574,4.0891,4.1111,4.1097,4.1039,4.0993,4.1006,4.0957,4.0924,4.0898,4.0819,4.0734,4.0668,4.0694,4.0681,4.064,4.0523,4.0427,4.0341,4.0326,4.0328,4.0291,4.0291,4.031,4.031,4.031,4.031,4.031,4.031,4.0291,4.0234,4.0118,3.9996,3.9892,3.9758,3.9642,3.9526,3.9477,3.9452,3.9401,3.9401,3.9427,3.9433,3.9502,3.9628,3.9816,4.0101,4.0248,4.0336,4.0336,4.0372,4.0408,4.0476,4.0523,4.0564,4.0588,4.0629,4.0662,4.061,4.0615,4.0588,4.0526,4.0457,4.0438,4.0427,4.0427,4.0427,4.0438,4.0422,4.0422,4.037,4.0406,4.0419,4.0431,4.059,4.0734,4.0859,4.0914,4.0955,4.1026,4.1069,4.1094,4.1105,4.1093,4.1091,4.1072,4.1042,4.0994,4.0941,4.0878,4.0784,4.0662,4.0534,4.0341,4.0099,3.9873,3.9599,3.9298,3.9073,3.8939,3.554,3.5732,3.5963,3.6376,3.6882,3.7461,3.8053,3.8631,3.9286,4.0142,4.033,4.0489,4.0989,4.1106,4.11,4.1065,4.1018,4.0957,4.0957,4.0887,4.0819,4.0834,4.0713,4.0596,4.053,4.0496,4.05,4.0527,4.043,4.0362,4.0308,4.031,4.031,4.031,4.031,4.031,4.031,4.031,4.0291,4.0253,4.0253,4.0234,4.0118,3.9996,3.9848,3.9735,3.9551,3.9427,3.9272,3.9237,3.9183,3.9129,3.9082,3.9036,3.9064,3.9091,3.9137,3.9245,3.966,3.9899,3.9981,4.0021,4.006,4.0139,4.0234,4.0288,4.0321,4.0317,4.0351,4.0367,4.0298,4.03,4.0302,4.0232,4.0233,4.0233,4.0177,4.0177,4.0177,4.012,4.0119,4.01,4.0021,4.006,4.01,4.0101,4.0262,4.0434,4.068,4.0742,4.0832,4.0929,4.098,4.1037,4.1061,4.1065,4.1066,4.1094,4.1103,4.1074,4.1039,4.0964,4.0878,4.0761,4.0648,4.0469,4.0232,4.002,3.9762,3.9477,3.9219,3.9036,3.5754,3.5905,3.6202,3.7022,3.7304,3.7773,3.9363,3.9803,4.0101,4.0925,4.1097,4.11,4.1106,4.11,4.1064,4.1013,4.0932,4.0907,4.0878,4.0784,4.07,4.07,4.0583,4.0473,4.0406,4.0341,4.0325,4.0396,4.0325,4.0308,4.031,4.031,4.031,4.031,4.031,4.031,4.031,4.031,4.0253,4.0196,4.0196,4.0118,3.9975,3.9848,3.9693,3.9551,3.935,3.9192,3.9073,3.8921,3.8833,3.8762,3.8634,3.8585,3.8585,3.8585,3.8664,3.8833,3.9279,3.9502,3.9575,3.9647,3.9717,3.9804,3.9954,3.9975,3.9996,3.9982,3.9982,3.9943,3.988,3.9922,3.9962,3.9895,3.9975,4.0036,3.9911,3.9933,3.9933,3.9804,3.9781,3.9758,3.9693,3.967,3.967,3.9693,3.9758,3.996,4.0415,4.0538,4.0641,4.077,4.0848,4.0918,4.0979,4.1,4.1018,4.1085,4.1093,4.1103,4.1094,4.1045,4.0968,4.0907,4.0792,4.0642,4.0504,4.0232,4.0001,3.9804,3.9477,3.921,3.582,3.5948,3.6046,3.6285,3.7307,3.8375,3.875,3.9836,4.0836,4.1047,4.1111,4.1106,4.11,4.1064,4.1026,4.0991,4.0945,4.0858,4.0776,4.0694,4.0621,4.0569,4.0476,4.0394,4.0323,4.0308,4.031,4.0328,4.031,4.0291,4.031,4.031,4.031,4.031,4.031,4.031,4.031,4.0253,4.0196,4.0118,4.0077,3.9935,3.9762,3.9575,3.9376,3.9137,3.8989,3.8815,3.8646,3.8634,3.8572,3.8478,3.8478,3.8446,3.8446,3.8446,3.8478,3.851,3.8646,3.8894,3.9165,3.9272,3.9376,3.9477,3.9647,3.967,3.9647,3.9675,3.9675,3.9609,3.9556,3.9532,3.9556,3.9526,3.9551,3.9575,3.9599,3.9575,3.9526,3.9452,3.935,3.9272,3.9324,3.9324,3.935,3.9383,3.9452,3.9632,4.0082,4.0266,4.0434,4.0563,4.0667,4.0787,4.0859,4.0904,4.0954,4.1013,4.106,4.1093,4.1108,4.1072,4.1013,4.0887,4.0868,4.0769,4.0559,4.0422,4.0157,3.9878,3.9628,3.9376,3.5908,3.5965,3.6091,3.6476,3.7277,3.8174,3.8889,3.9799,4.0598,4.0974,4.1058,4.1064,4.1058,4.102,4.0991,4.0926,4.0837,4.0725,4.0623,4.0496,4.0422,4.0372,4.0342,4.029,4.0272,4.0272,4.031,4.031,4.031,4.031,4.031,4.031,4.031,4.031,4.031,4.0291,4.0253,4.0157,4.0077,3.9954,3.9892,3.9717,3.9477,3.9324,3.911,3.8826,3.8725,3.859,3.8401,3.8401,3.8368,3.8322,3.8322,3.8322,3.8322,3.8322,3.8322,3.8322,3.8322,3.8496,3.8725,3.8884,3.8998,3.9129,3.9245,3.9272,3.9245,3.9245,3.9219,3.9165,3.9101,3.9101,3.9156,3.9183,3.9237,3.9272,3.9324,3.9298,3.9219,3.9101,3.897,3.8902,3.8979,3.8979,3.896,3.898,3.911,3.9253,3.9543,3.9859,4.012,4.0229,4.0399,4.0559,4.061,4.0703,4.0801,4.0915,4.1007,4.1069,4.1103,4.1101,4.1056,4.0953,4.0915,4.0839,4.0725,4.0559,4.037,4.0101,3.9878,3.9651,3.5962,3.6003,3.6189,3.6933,3.7152,3.762,3.9254,3.9656,3.9954,4.0831,4.1,4.1007,4.0993,4.0984,4.0935,4.0818,4.0668,4.0564,4.0489,4.0323,4.0196,4.0177,4.0177,4.0196,4.0196,4.0253,4.031,4.031,4.031,4.031,4.031,4.031,4.031,4.0291,4.0291,4.0253,4.0157,4.0036,3.9892,3.9758,3.9693,3.9477,3.9156,3.9073,3.8855,3.8572,3.8478,3.8401,3.8274,3.8274,3.8241,3.8192,3.8192,3.8192,3.8192,3.8192,3.8192,3.8192,3.8174,3.8207,3.8289,3.851,3.8664,3.8773,3.8833,3.8862,3.8833,3.8773,3.8743,3.8732,3.8689,3.8701,3.8743,3.8833,3.8931,3.9017,3.9045,3.9045,3.896,3.8773,3.8634,3.8603,3.8658,3.8658,3.864,3.8585,3.8743,3.891,3.896,3.9421,3.9754,3.9816,4.0061,4.0251,4.0336,4.0477,4.0648,4.0799,4.0909,4.1026,4.1093,4.1103,4.1078,4.1,4.0953,4.0915,4.0898,4.0725,4.0559,4.0422,4.0176,3.9941,3.5981,3.6009,3.6033,3.6192,3.6713,3.7442,3.8415,3.9186,3.9953,4.0828,4.0999,4.0993,4.1006,4.0941,4.0869,4.0746,4.0596,4.0473,4.0341,4.0272,4.0177,4.0118,4.0176,4.0196,4.0196,4.0253,4.031,4.031,4.031,4.031,4.031,4.031,4.0272,4.0215,4.0234,4.0118,3.9954,3.987,3.9758,3.9551,3.9427,3.9219,3.895,3.8785,3.8572,3.8354,3.8274,3.8241,3.8225,3.8225,3.8225,3.8192,3.8192,3.8192,3.8192,3.8192,3.8192,3.8174,3.807,3.8036,3.8086,3.835,3.8478,3.8572,3.8615,3.8615,3.8572,3.8572,3.851,3.8465,3.8465,3.8465,3.8496,3.8541,3.8603,3.8634,3.875,3.8683,3.8572,3.8478,3.8446,3.8446,3.8465,3.8465,3.8465,3.851,3.864,3.875,3.8822,3.9165,3.9408,3.9483,3.9739,3.9937,4.0062,4.0283,4.0554,4.0779,4.0871,4.0969,4.1084,4.1094,4.1099,4.1085,4.1025,4.0953,4.0896,4.0868,4.0757,4.0559,4.0403,4.0157,3.5982,3.5995,3.5992,3.5953,3.6234,3.6729,3.7545,3.8393,3.9268,4.0143,4.0673,4.0999,4.1003,4.0943,4.0849,4.0725,4.0526,4.0356,4.0252,4.0138,4.0036,4.0015,4.0096,4.0157,4.0157,4.0234,4.031,4.031,4.031,4.031,4.031,4.0253,4.0215,4.0196,4.0098,3.9954,3.9804,3.9647,3.9477,3.9245,3.9137,3.8931,3.8652,3.8541,3.8401,3.8259,3.8225,3.8192,3.8192,3.8192,3.8192,3.8192,3.8192,3.8192,3.8192,3.8122,3.8088,3.807,3.788,3.7898,3.7951,3.8018,3.8153,3.8252,3.8267,3.8285,3.8252,3.8252,3.8186,3.8156,3.8156,3.8171,3.8219,3.8267,3.8364,3.8465,3.8501,3.8451,3.8368,3.8322,3.8289,3.8322,3.8354,3.8354,3.8368,3.8446,3.8528,3.859,3.8652,3.8862,3.9045,3.9237,3.9452,3.967,3.9813,4.012,4.0386,4.059,4.0761,4.0894,4.0983,4.1064,4.1094,4.1099,4.107,4.1025,4.0953,4.0952,4.0878,4.0757,4.0582,4.0383,3.5992,3.5996,3.5984,3.5924,3.5891,3.6106,3.6919,3.7774,3.8657,3.9513,4.04,4.1025,4.1007,4.0926,4.0839,4.072,4.05,4.0304,4.0234,4.0057,3.9911,3.9911,4.0036,4.0117,4.0117,4.0215,4.031,4.031,4.0291,4.0291,4.0291,4.0234,4.0176,4.0118,3.9954,3.9781,3.9599,3.9401,3.9192,3.8913,3.8862,3.8652,3.8368,3.8368,3.8322,3.8192,3.8192,3.8192,3.8192,3.8192,3.8192,3.8192,3.8174,3.8174,3.814,3.8002,3.7949,3.7915,3.7739,3.7721,3.7793,3.7685,3.781,3.7984,3.7984,3.7984,3.7984,3.8002,3.7916,3.7846,3.7828,3.7881,3.7949,3.8052,3.8186,3.8271,3.8256,3.8223,3.8241,3.8207,3.8192,3.8225,3.8274,3.8307,3.8322,3.8382,3.8446,3.851,3.8541,3.864,3.8792,3.9045,3.9264,3.9452,3.967,3.9981,4.025,4.0412,4.0655,4.082,4.0909,4.1003,4.1082,4.1094,4.1101,4.1074,4.1011,4.1013,4.0971,4.0898,4.0711,4.0549,3.5995,3.5992,3.5985,3.5922,3.5892,3.6105,3.6923,3.7782,3.8641,3.9517,4.0441,4.1065,4.1006,4.0896,4.0789,4.0703,4.053,4.036,4.0307,4.0118,3.9996,3.9996,4.0057,4.0117,4.0117,4.0215,4.031,4.031,4.0253,4.0196,4.0196,4.0196,4.0098,3.9848,3.9762,3.9575,3.9264,3.9129,3.8884,3.8646,3.8572,3.8465,3.8307,3.8307,3.8274,3.8192,3.8192,3.8192,3.8192,3.8192,3.8192,3.8192,3.807,3.8018,3.8002,3.7934,3.7846,3.7703,3.7649,3.754,3.7449,3.7411,3.7703,3.7984,3.7984,3.7984,3.8002,3.7934,3.781,3.7703,3.7649,3.7685,3.7739,3.7881,3.7934,3.7951,3.8036,3.8018,3.807,3.8174,3.8192,3.8192,3.8225,3.8241,3.8322,3.8382,3.8446,3.8541,3.8658,3.875,3.8851,3.8979,3.9129,3.9324,3.9575,3.9918,4.0213,4.0469,4.0629,4.0765,4.0897,4.0967,4.1033,4.1094,4.1093,4.1108,4.1085,4.1037,4.0979,4.0896,4.0819,4.0674,3.5996,3.596,3.5934,3.5917,3.5866,3.5908,3.6234,3.7016,3.7909,3.8739,3.9662,4.0461,4.0915,4.0921,4.0859,4.0818,4.0662,4.0504,4.0425,4.0214,4.0059,4.0057,4.0057,4.0036,4.0036,4.0118,4.0176,4.0176,4.0157,4.0118,4.0077,4.0057,3.9933,3.9739,3.9575,3.9324,3.9036,3.8844,3.8646,3.8433,3.8401,3.8322,3.8241,3.8241,3.8225,3.8192,3.8192,3.8192,3.8192,3.8192,3.814,3.807,3.8018,3.7915,3.781,3.7649,3.754,3.7429,3.7203,3.7126,3.7164,3.7164,3.7374,3.7667,3.7774,3.7774,3.7757,3.7613,3.7449,3.7337,3.7241,3.7354,3.7503,3.7667,3.7703,3.7739,3.781,3.781,3.7863,3.8003,3.8003,3.8038,3.8138,3.8223,3.8322,3.8446,3.8559,3.864,3.875,3.8792,3.8862,3.9045,3.9183,3.9376,3.9693,3.9939,4.0196,4.0427,4.0593,4.0745,4.0846,4.0943,4.1033,4.1105,4.1099,4.1094,4.1101,4.1065,4.1022,4.0957,4.0888,4.0765,3.5937,3.5949,3.5897,3.5897,3.5859,3.5795,3.5807,3.6538,3.7364,3.7936,3.8988,3.9974,4.0552,4.0782,4.0896,4.0898,4.0738,4.0607,4.0534,4.0321,4.0158,4.0118,4.0077,4.0017,3.9996,4.0057,4.0077,4.0077,4.0077,4.0036,3.9975,3.9867,3.9758,3.9623,3.935,3.9055,3.8773,3.8603,3.8433,3.8274,3.8274,3.8259,3.8192,3.8192,3.8192,3.8192,3.8192,3.8174,3.814,3.814,3.8088,3.7967,3.788,3.7774,3.7595,3.7374,3.7241,3.7105,3.6869,3.6869,3.6908,3.6987,3.7126,3.7317,3.7522,3.7577,3.754,3.7392,3.7108,3.6913,3.6891,3.697,3.7126,3.7354,3.7429,3.7429,3.7522,3.7559,3.7595,3.7685,3.7739,3.7846,3.7949,3.8086,3.8289,3.8433,3.8609,3.875,3.8792,3.8851,3.8921,3.9101,3.9272,3.9502,3.9804,4.002,4.0233,4.0413,4.0569,4.0694,4.0757,4.0898,4.0991,4.107,4.1094,4.1105,4.1092,4.1105,4.1078,4.1,4.0932,4.0807,3.5761,3.5946,3.5892,3.5903,3.5859,3.5799,3.5803,3.6526,3.7189,3.7209,3.8585,3.9805,3.9805,4.04,4.0904,4.0904,4.0796,4.0687,4.0621,4.0441,4.0271,4.0215,4.0137,4.0077,3.9996,4.0057,4.0077,3.9996,3.9996,3.9975,3.9911,3.9712,3.9526,3.9401,3.9137,3.8826,3.851,3.8387,3.8274,3.8192,3.8192,3.8192,3.8192,3.8192,3.8192,3.8192,3.8192,3.8122,3.7984,3.7984,3.7967,3.7864,3.7703,3.754,3.7374,3.7185,3.697,3.6811,3.6788,3.6766,3.6742,3.6948,3.6987,3.7027,3.7259,3.7447,3.754,3.7185,3.6794,3.6527,3.6591,3.6632,3.6673,3.693,3.7027,3.7009,3.7108,3.7203,3.7279,3.7226,3.7411,3.7613,3.7613,3.788,3.8153,3.8289,3.8578,3.8792,3.8792,3.8939,3.9036,3.9183,3.9376,3.9623,3.9892,4.008,4.0289,4.0502,4.0569,4.0629,4.0694,4.0828,4.0932,4.0987,4.1072,4.1108,4.1091,4.109,4.1065,4.1003,4.0933,4.0726,3.5039,3.5496,3.5899,3.5903,3.5872,3.5878,3.5872,3.6099,3.6482,3.7073,3.8117,3.9084,3.9688,4.0441,4.0972,4.0972,4.0897,4.0815,4.0745,4.0515,4.0341,4.0196,4.0058,3.9954,3.9933,3.9954,3.9954,3.9933,3.9933,3.9911,3.9889,3.9665,3.9477,3.9324,3.9017,3.8725,3.8446,3.8289,3.8225,3.8192,3.8192,3.8192,3.8192,3.8192,3.8192,3.8192,3.8192,3.8122,3.7984,3.7984,3.7898,3.7667,3.754,3.7279,3.697,3.6869,3.665,3.6468,3.6468,3.6444,3.6444,3.6725,3.6846,3.6869,3.6948,3.7066,3.7126,3.6771,3.6444,3.6191,3.6343,3.6367,3.6426,3.6609,3.6667,3.669,3.6736,3.6771,3.6771,3.6895,3.7069,3.7279,3.754,3.7845,3.8119,3.8401,3.8652,3.8851,3.8921,3.8979,3.9082,3.9301,3.9489,3.9675,3.996,4.012,4.0288,4.0476,4.0564,4.0629,4.0694,4.0828,4.0932,4.1007,4.1067,4.1094,4.1099,4.1093,4.1033,4.0928,4.082,4.0604,3.4529,3.5074,3.5516,3.5831,3.5903,3.5905,3.5892,3.5898,3.6047,3.6598,3.7403,3.8285,3.9143,3.9968,4.0616,4.0948,4.0943,4.0868,4.0781,4.0545,4.0339,4.0139,3.9977,3.9889,3.9889,3.9889,3.9889,3.9889,3.9889,3.9889,3.9889,3.9647,3.9452,3.9298,3.8931,3.8603,3.8415,3.8274,3.8192,3.8192,3.8192,3.8192,3.8192,3.8192,3.8192,3.8192,3.8192,3.8106,0.0,3.7967,3.7757,3.7466,3.7354,3.7087,3.6748,3.6643,3.6502,3.6301,3.6301,3.6301,3.636,3.6544,3.6684,3.6748,3.665,3.669,3.669,3.6461,3.6148,3.5932,3.6105,3.6105,3.6148,3.6276,3.6335,3.6419,3.6444,3.6485,3.6544,3.6673,3.6891,3.7164,3.7449,3.781,3.8135,3.8428,3.8683,3.8881,3.8997,3.9036,3.9147,3.938,3.9545,3.9743,4.0022,4.0158,4.0323,4.0489,4.0545,4.0629,4.0694,4.0828,4.0932,4.1007,4.1061,4.1105,4.1108,4.1073,4.1003,4.0904,4.0765,4.0574,0.0,3.4609,3.4881,3.5692,3.5909,3.5905,3.5911,3.5911,0.0,3.5908,3.659,3.7467,3.8344,3.9169,3.9993,4.085,4.0935,4.0837,4.0706,4.053,4.0286,4.0038,3.9933,3.9889,3.9889,3.9889,3.9889,3.9889,3.9889,3.9889,3.9889,3.9647,3.9452,3.9298,3.8855,3.8541,3.8382,3.8274,3.8192,3.8192,3.8192,3.8192,3.8192,3.8192,3.8192,3.8192,3.8192,3.809,3.7899,3.7899,3.7685,3.7297,3.7147,3.693,3.6661,3.6544,3.6402,3.6301,3.6301,3.6301,3.6301,3.6444,3.6544,3.6643,3.6402,3.6301,3.6259,3.6208,3.5993,3.5773,3.5817,3.5817,3.5817,3.5975,3.6079,3.6165,3.6208,3.6335,3.6502,3.6544,3.6834,3.7167,3.7376,3.7809,3.8201,3.851,3.8725,3.8921,3.9007,3.9101,3.9264,3.9401,3.9599,3.981,4.0081,4.0233,4.0358,4.0489,4.0564,4.0615,4.0694,4.0809,4.0932,4.1007,4.1067,4.1094,4.1094,4.1023,4.0972,4.0898,4.0757,4.0569,3.2423,0.0,3.4902,3.5757,3.5985,3.5963,0.0,3.5894,3.5903,3.5908,3.659,3.7467,3.8344,3.9195,4.0046,4.0877,4.0949,4.0849,4.0718,4.0457,4.0177,3.9954,3.9911,3.9889,3.9889,3.9889,3.9889,3.9889,3.9889,3.9889,3.9889,3.9647,3.9452,3.9298,3.8892,3.8578,3.8382,3.8274,3.8192,3.8192,3.8192,3.8192,3.8192,3.8192,3.8192,3.8192,3.8192,3.8088,3.7967,3.7934,3.7703,3.7354,3.7126,3.6829,3.6544,3.6402,3.6276,3.6208,3.6208,3.6208,3.6251,3.6318,3.636,3.6402,3.6301,3.6276,3.6208,3.6062,3.5844,3.5667,3.5773,3.5817,3.5817,3.5975,3.6019,3.6062,3.6233,3.6301,3.6426,3.6673,3.6974,3.7301,3.7703,3.8083,3.8446,3.8773,3.8892,3.9007,3.9147,3.9183,3.929,3.9526,3.9739,3.9937,4.0158,4.0252,4.0358,4.0489,4.0554,4.0626,4.0694,4.0787,4.0876,4.1007,4.1062,4.1091,4.1091,4.1031,4.0935,4.0828,4.0623,4.0367,3.1854,3.3071,3.4305,3.5195,3.5695,3.5997,3.5958,3.5948,3.5943,3.5919,3.6289,3.6985,3.8266,3.8889,3.9604,4.0799,4.0921,4.0789,4.0559,4.0325,4.0077,3.9911,3.9889,3.9889,3.9889,3.9889,3.9889,3.9889,3.9889,3.9889,3.9889,3.9647,3.9452,3.9298,3.8873,3.8559,3.8382,3.8274,3.8192,3.8192,3.8192,3.8192,3.8192,3.8192,3.8192,3.8192,3.8192,3.8122,3.7984,3.7967,3.7721,3.7374,3.722,3.6908,3.6602,3.6444,3.6335,3.6225,3.6225,3.6165,3.6122,3.6148,3.6174,3.6131,3.6105,3.6036,3.5993,3.5949,3.5756,3.5622,3.5684,3.5773,3.5817,3.5905,3.6019,3.6174,3.636,3.6509,3.6713,3.7013,3.7321,3.7632,3.8065,3.8364,3.8683,3.8892,3.9007,3.9073,3.9183,3.9317,3.9452,3.967,3.9892,4.0118,4.027,4.0342,4.0411,4.0508,4.0569,4.0621,4.0694,4.0798,4.0904,4.1045,4.1084,4.1072,4.1049,4.0999,4.0877,4.0706,4.0492,4.0229,3.168,3.2619,3.3601,3.4485,3.5351,3.6005,3.5994,3.6005,3.5981,3.5914,3.5909,3.6392,3.7993,3.8402,3.902,4.0551,4.0771,4.0642,4.0341,4.0177,4.0057,3.9911,3.9889,3.9889,3.9889,3.9889,3.9889,3.9889,3.9889,3.9889,3.9889,3.9647,3.9452,3.9298,3.8855,3.8541,3.8382,3.8274,3.8192,3.8192,3.8192,3.8192,3.8192,3.8192,3.8192,3.8192,3.8225,3.8156,3.807,3.807,3.781,3.7485,3.7372,3.7122,3.6725,3.6585,3.6419,3.6268,3.6225,3.6122,3.6019,3.6019,3.6019,3.6036,3.5861,3.5817,3.5817,3.5817,3.5711,3.5622,3.5667,3.5773,3.5817,3.5861,3.6105,3.636,3.6502,3.6811,3.7164,3.7431,3.7756,3.808,3.8415,3.8683,3.8881,3.9007,3.9073,3.9156,3.9264,3.9452,3.967,3.9848,4.0058,4.0272,4.0396,4.0482,4.0531,4.0504,4.0579,4.0629,4.0718,4.0859,4.0984,4.1091,4.1092,4.1058,4.0974,4.0915,4.0769,4.0559,4.0351,4.0081,3.0878,3.2099,3.3535,3.4468,3.5368,3.5995,3.6005,3.6007,3.597,3.5919,3.589,3.6216,3.7214,3.7993,3.8812,3.9754,4.0258,4.0496,4.0323,4.0177,4.0057,3.9911,3.9889,3.9889,3.9889,3.9889,3.9889,3.9889,3.9889,3.9889,3.9889,3.9647,3.9452,3.9298,3.8892,3.8578,3.8382,3.8274,3.8192,3.8192,3.8192,3.8192,3.8192,3.8192,3.8192,3.8192,3.8241,3.8274,3.8256,3.8256,3.8122,3.788,3.7649,3.7354,3.7009,3.6766,3.6602,3.6419,3.6251,3.6182,3.6165,3.6019,3.6079,3.6122,3.6036,3.5975,3.5975,3.5975,3.5844,3.5817,3.5888,3.5932,3.5993,3.6122,3.6233,3.6385,3.669,3.7069,3.7468,3.7827,3.8168,3.8491,3.8773,3.8892,3.9007,3.9129,3.9183,3.9264,3.9502,3.9623,3.9785,4.0098,4.0234,4.0344,4.0466,4.0546,4.0588,4.0574,4.0588,4.0681,4.0859,4.0996,4.1075,4.1094,4.1093,4.1051,4.0924,4.0849,4.0649,4.0351,4.0138,3.9857,3.0691,3.198,3.3404,3.3843,3.4979,3.5994,3.5996,3.5992,3.5999,3.5962,3.5947,3.6202,3.7049,3.7915,3.8889,4.0102,4.0417,4.0434,4.027,4.0158,4.0057,3.9911,3.9889,3.9889,3.9889,3.9889,3.9889,3.9889,3.9889,3.9889,3.9889,3.9647,3.9452,3.9298,3.891,3.8578,3.8382,3.8274,3.8192,3.8192,3.8192,3.8192,3.8192,3.8259,3.8241,3.8241,3.8322,3.8336,3.8336,3.8336,3.8289,3.8156,3.7881,3.7577,3.7206,3.6748,3.6502,3.6402,3.6276,3.6251,3.6182,3.6122,3.6122,3.6079,3.6019,3.6019,3.6019,3.6079,3.6036,3.5932,3.5975,3.6105,3.6191,3.6233,3.6402,3.6632,3.693,3.7281,3.7685,3.807,3.8433,3.8743,3.8979,3.9045,3.9156,3.929,3.935,3.9477,3.967,3.987,4.0039,4.0233,4.0358,4.046,4.0607,4.0651,4.0668,4.0725,4.0752,4.0823,4.0952,4.1052,4.1094,4.1091,4.1064,4.098,4.0846,4.0738,4.0506,4.012,3.9941,3.9609,3.0704,3.1981,3.331,3.3303,3.4651,3.5977,3.6005,3.5995,3.5994,3.6001,3.5997,3.6172,3.6787,3.7747,3.896,4.0521,4.0615,4.0419,4.0233,4.0157,4.0057,3.9911,3.9889,3.9889,3.9889,3.9889,3.9889,3.9889,3.9889,3.9889,3.9889,3.9647,3.9452,3.9298,3.891,3.8578,3.8382,3.8274,3.8192,3.8192,3.8192,3.8225,3.8225,3.8274,3.8307,3.8322,3.8382,3.8415,3.8415,3.8465,3.8401,3.8322,3.8106,3.7757,3.7356,3.6834,3.6609,3.6509,3.6509,3.6444,3.6377,3.6335,3.6233,3.6148,3.6105,3.6105,3.6165,3.6251,3.6208,3.6165,3.6105,3.6233,3.6402,3.6402,3.6609,3.6891,3.7069,3.7431,3.788,3.8256,3.8609,3.8892,3.9101,3.9183,3.929,3.9446,3.9551,3.9693,3.9873,4.008,4.0252,4.0351,4.0485,4.0593,4.0746,4.0757,4.0787,4.0839,4.0898,4.0963,4.1006,4.1055,4.1086,4.1073,4.1003,4.0894,4.0739,4.0574,4.0281,3.992,3.9721,3.9427,3.0683,3.1974,3.3303,3.331,3.4613,3.5929,3.5988,3.6005,3.5995,3.5991,3.5991,3.6009,3.5992,3.7267,3.8831,4.0447,4.0588,4.0425,4.0215,4.0157,4.0057,3.9911,3.9889,3.9889,3.9889,3.9889,3.9889,3.9889,3.9889,3.9889,3.9889,3.9647,3.9452,3.9298,3.891,3.8578,3.8382,3.8274,3.8192,3.8192,3.8192,3.8241,3.8307,3.8307,3.8322,3.8401,3.8478,3.8491,3.851,3.8627,3.8609,3.8478,3.8322,3.7898,3.7392,3.7297,3.7164,3.7031,3.7031,3.7009,3.6891,3.6673,3.6609,3.6602,3.636,3.6444,3.662,3.6502,3.6561,3.6602,3.6502,3.6561,3.6643,3.6643,3.6829,3.7009,3.7069,3.7577,3.8052,3.835,3.8695,3.9036,3.9156,3.9317,3.9427,3.9551,3.9712,3.9873,4.0139,4.025,4.0386,4.0559,4.0642,4.0745,4.087,4.0885,4.0908,4.098,4.0983,4.0992,4.1009,4.1055,4.1068,4.1003,4.0887,4.0745,4.0604,4.0277,4.0004,3.9717,3.9433,3.9165,3.1336,3.2388,3.3425,3.393,3.4977,3.5911,3.5929,3.5974,3.5995,3.5992,3.5994,3.6298,3.7272,3.7926,3.8821,4.043,4.0579,4.0425,4.0234,4.0138,4.0057,3.9975,3.9933,3.9889,3.9889,3.9889,3.9889,3.9889,3.9889,3.9889,3.9889,3.9689,3.9477,3.9298,3.895,3.864,3.8415,3.8322,3.8274,3.8274,3.8274,3.8274,3.8307,3.8387,3.8446,3.8478,3.8578,3.8609,3.8609,3.8658,3.8658,3.8609,3.8303,3.7949,3.7559,3.7503,3.7372,3.7203,3.7203,3.7143,3.6987,3.6771,3.6708,3.6702,3.6602,3.6626,3.6748,3.6708,3.6811,3.6891,3.6731,3.6811,3.693,3.693,3.7087,3.7279,3.7392,3.7739,3.8119,3.8478,3.8815,3.9156,3.9401,3.9551,3.9712,3.987,4.0019,4.0158,4.0304,4.0419,4.0559,4.0707,4.0829,4.0902,4.096,4.1003,4.1023,4.0995,4.0992,4.0995,4.1004,4.0974,4.0914,4.083,4.0667,4.0521,4.0293,3.9986,3.9709,3.9452,3.9219,3.8989,3.1744,3.2633,3.3495,3.4338,3.5223,3.5898,3.5891,3.5946,3.5995,3.5994,3.5996,3.6484,3.8105,3.8358,3.8811,4.0404,4.0564,4.0425,4.0234,4.0157,4.0098,3.9996,3.9954,3.9911,3.9911,3.9889,3.9889,3.9889,3.9889,3.9889,3.9889,3.9712,3.9526,3.9324,3.8989,3.8713,3.8496,3.8387,3.8322,3.8322,3.8354,3.8354,3.8387,3.8446,3.851,3.8559,3.8658,3.8707,3.8707,3.8707,3.8676,3.8609,3.8318,3.8086,3.7898,3.7828,3.7721,3.754,3.754,3.7392,3.7203,3.7048,3.6948,3.6886,3.6886,3.6948,3.7009,3.6992,3.7147,3.7261,3.7164,3.7203,3.7261,3.7281,3.7449,3.7631,3.7739,3.7984,3.83,3.8646,3.8998,3.9324,3.9599,3.9785,3.9956,4.0138,4.0289,4.0392,4.0469,4.0593,4.0706,4.0859,4.0967,4.1027,4.1038,4.1054,4.1027,4.0933,4.0918,4.0905,4.0929,4.0848,4.0723,4.0579,4.0427,4.0206,3.9946,3.969,3.9464,3.9192,3.8989,3.8822,3.1763,3.2647,3.3517,3.4392,3.525,3.5903,3.5911,3.5955,3.5995,3.5995,3.5996,3.6494,3.8084,3.835,3.8811,4.0339,4.0549,4.0444,4.0234,4.0196,4.0157,4.0017,3.9996,3.9975,3.9911,3.9889,3.9889,3.9889,3.9889,3.9889,3.9889,3.9712,3.9526,3.942,3.9073,3.8851,3.8707,3.8496,3.8415,3.8415,3.8478,3.851,3.851,3.851,3.8559,3.8707,3.8707,3.8707,3.8707,3.8707,3.8609,3.851,3.8415,3.8368,3.8307,3.8307,3.8223,3.8101,3.8018,3.788,3.7667,3.7449,3.7354,3.7297,3.7297,3.7354,3.7411,3.7394,3.7541,3.7739,3.7864,3.7739,3.7613,3.7703,3.7845,3.8018,3.8101,3.8364,3.8676,3.8942,3.9253,3.9575,3.9781,3.9979,4.0158,4.027,4.0408,4.0554,4.0687,4.0764,4.0849,4.0986,4.1062,4.109,4.1103,4.1039,4.0942,4.0815,4.0723,4.0723,4.0804,4.068,4.0486,4.031,4.0101,3.9861,3.9599,3.9389,3.9192,3.8989,3.8792,3.8596,3.2656,3.3541,3.4418,3.5307,3.5717,3.5911,3.5955,3.5985,3.5996,3.6001,3.6001,3.6324,3.7365,3.7953,3.8606,3.9534,4.0096,4.0392,4.0291,4.0234,4.0196,4.0157,4.0098,4.0036,3.9975,3.9975,3.9954,3.9911,3.9889,3.9889,3.9889,3.9804,3.9647,3.9477,3.9272,3.9073,3.8851,3.8713,3.867,3.8627,3.8627,3.859,3.851,3.8609,3.8658,3.8707,3.8707,3.8707,3.8707,3.8707,3.8676,3.8609,3.851,3.8446,3.8415,3.8401,3.8252,3.8101,3.8068,3.7915,3.7703,3.7685,3.7631,3.7595,3.7631,3.7739,3.781,3.7827,3.7897,3.8,3.8186,3.8252,3.8219,3.8138,3.8285,3.846,3.8504,3.8711,3.8952,3.9275,3.9571,3.9857,4.01,4.0269,4.0406,4.0485,4.0588,4.0688,4.0812,4.0904,4.0953,4.0996,4.1016,4.1019,4.0964,4.0901,4.0791,4.0597,4.0482,4.0453,4.0535,4.0342,4.0117,3.9865,3.9728,3.9513,3.9253,3.9045,3.8844,3.8646,3.8382,3.8101,3.3052,3.3944,3.4808,3.5684,3.5924,3.5943,3.5997,3.5994,3.6007,3.6001,3.5986,3.6216,3.7001,3.778,3.8518,3.9199,3.9912,4.0375,4.031,4.0253,4.0234,4.0196,4.0157,4.0098,3.9996,3.9996,3.9975,3.9911,3.9889,3.9889,3.9889,3.9826,3.9717,3.958,3.9427,3.9237,3.9036,3.8892,3.8822,3.878,3.875,3.8701,3.8664,3.8689,3.8707,3.8707,3.8707,3.8707,3.8707,3.8707,3.8707,3.8707,3.8609,3.859,3.859,3.8559,3.8465,3.8318,3.83,3.8168,3.8034,3.8034,3.8,3.7966,3.8068,3.8135,3.8201,3.8234,3.8318,3.8415,3.8541,3.8664,3.8707,3.8559,3.8664,3.8855,3.899,3.9144,3.9358,3.9687,3.9903,4.0139,4.0356,4.0489,4.0593,4.0668,4.0757,4.084,4.0929,4.0974,4.1008,4.0995,4.0948,4.0883,4.0827,4.0699,4.05,4.0271,4.0099,3.9967,3.9927,3.9886,3.9735,3.947,3.9331,3.911,3.8826,3.8695,3.851,3.8234,3.7982,3.765,3.3149,3.4056,3.4905,3.5703,3.5958,3.5994,3.5996,3.5999,3.6005,3.6005,3.5958,3.6128,3.6856,3.7704,3.8487,3.9075,3.9877,4.0394,4.031,4.031,4.0291,4.0234,4.0196,4.0157,4.0017,3.9996,3.9975,3.9911,3.9889,3.9889,3.9889,3.9826,3.9781,3.9717,3.9526,3.9376,3.9237,3.9045,3.895,3.8921,3.8862,3.8862,3.8921,3.878,3.8707,3.8707,3.8707,3.8707,3.8707,3.8707,3.8707,3.8707,3.8707,3.8707,3.8738,3.8792,3.878,3.8689,3.8634,3.8585,3.851,3.8446,3.8446,3.8446,3.8541,3.8541,3.8572,3.8615,3.8725,3.8833,3.8921,3.9017,3.9101,3.9007,3.9073,3.9219,3.9483,3.9679,3.9838,4.0101,4.023,4.0367,4.0511,4.0635,4.0732,4.0818,4.0918,4.1003,4.1003,4.0994,4.0988,4.0983,4.085,4.0743,4.066,4.0404,4.0136,3.9848,3.9561,3.9327,3.9146,3.9345,3.9301,3.9045,3.8921,3.8683,3.835,3.835,3.8135,3.7739,3.7505,3.719,3.3996,3.4911,3.5677,3.5858,3.5946,3.5996,3.5999,3.5994,3.5997,3.6005,3.5958,3.5933,3.6059,3.7249,3.8233,3.8271,3.948,4.0381,4.031,4.031,4.0272,4.0272,4.0291,4.0234,4.0077,4.0077,4.0036,3.9911,3.9889,3.9889,3.9889,3.9889,3.9867,3.9781,3.9735,3.9647,3.9521,3.935,3.929,3.9219,3.9101,3.9045,3.9045,3.8862,3.875,3.8707,3.8707,3.8707,3.8707,3.8707,3.8707,3.8707,3.875,3.8762,3.8792,3.8833,3.8851,3.8792,3.8803,3.8725,3.8585,3.8743,3.8743,3.8743,3.8862,3.8892,3.8921,3.897,3.9017,3.9073,3.9165,3.9272,3.9376,3.9551,3.9599,3.9628,3.9857,4.0041,4.0214,4.0372,4.0519,4.0621,4.0655,4.0769,4.0868,4.0945,4.0983,4.099,4.0995,4.0948,4.0903,4.0846,4.068,4.0486,4.0329,4.0005,3.9694,3.9389,3.9099,3.8828,3.8585,3.8818,3.8847,3.8615,3.8541,3.8382,3.8086,3.7809,3.7578,3.7339,3.6843,3.6416,3.4251,3.5196,3.5903,3.5931,3.5973,3.6005,3.5997,3.6001,3.5992,3.5958,3.5929,3.5883,3.5811,3.7123,3.8164,3.8012,3.9353,4.0381,4.031,4.031,4.031,4.031,4.031,4.0253,4.0117,4.0117,4.0036,3.9911,3.9889,3.9889,3.9889,3.9889,3.9889,3.9848,3.9826,3.9739,3.9647,3.9526,3.9427,3.9383,3.9298,3.921,3.9129,3.895,3.8822,3.875,3.8719,3.8738,3.875,3.875,3.878,3.881,3.8822,3.8851,3.8851,3.8921,3.8939,3.891,3.8979,3.8931,3.8855,3.8989,3.9036,3.9007,3.9138,3.9193,3.9193,3.9237,3.9272,3.9324,3.9502,3.958,3.9721,3.9979,3.9939,3.9899,4.0101,4.0302,4.0469,4.0593,4.0707,4.0812,4.0798,4.0915,4.0994,4.1,4.0994,4.0988,4.0953,4.087,4.0761,4.066,4.0396,4.0135,3.9945,3.9557,3.916,3.8773,3.8493,3.8212,3.7982,3.8013,3.808,3.8204,3.8119,3.7897,3.7577,3.7266,3.6943,3.6563,3.6207,3.5793,3.4466,3.532,3.5924,3.5986,3.5995,3.5991,3.599,3.6001,3.5973,3.5909,3.5899,3.5891,3.5815,3.6997,3.799,3.8003,3.9218,4.0208,4.0291,4.031,4.031,4.031,4.031,4.0253,4.0117,4.0117,4.0036,3.9911,3.9889,3.9889,3.9889,3.9889,3.9911,3.9911,3.9848,3.9826,3.9762,3.9647,3.9599,3.9599,3.9502,3.9401,3.929,3.9073,3.8921,3.8822,3.878,3.878,3.8851,3.8851,3.8892,3.8921,3.895,3.895,3.895,3.9054,3.9082,3.9082,3.9147,3.9129,3.9156,3.9229,3.921,3.9256,3.938,3.9425,3.9432,3.9471,3.9526,3.9647,3.9807,3.9918,4.0022,4.0288,4.0233,4.0176,4.0334,4.0496,4.0629,4.0725,4.0826,4.0917,4.0918,4.1008,4.106,4.1015,4.0994,4.0944,4.0867,4.0721,4.0571,4.0396,4.0062,3.9738,3.9486,3.9044,3.8603,3.8212,3.7843,3.756,3.7395,3.717,3.7226,3.7577,3.7559,3.7356,3.6935,3.6643,3.6256,3.5776,3.5571,3.5224,3.5368,3.5795,3.5994,3.5994,3.5995,3.6003,3.5994,3.6005,3.5977,3.5919,3.5889,3.5891,3.5815,3.6551,3.7351,3.7906,3.8719,3.9519,4.0196,4.031,4.031,4.031,4.031,4.0253,4.0117,4.0117,4.0036,3.9911,3.9889,3.9889,3.9889,3.9889,3.9933,3.9975,3.9975,3.9996,4.0057,3.9975,3.9914,3.9914,3.9804,3.9693,3.9623,3.9427,3.9183,3.891,3.8939,3.8968,3.8979,3.9036,3.9073,3.9073,3.9129,3.9156,3.9175,3.9301,3.9365,3.9346,3.9346,3.9346,3.9346,3.9373,3.9373,3.9399,3.9471,3.9545,3.9618,3.9785,3.9892,3.9956,4.012,4.0196,4.0288,4.0441,4.0534,4.0612,4.064,4.0662,4.0725,4.0856,4.0937,4.098,4.1,4.1009,4.1015,4.0994,4.0953,4.0856,4.0665,4.053,4.0317,4.0023,3.9728,3.9396,3.9036,3.853,3.8083,3.7792,3.7283,3.6978,3.6895,3.662,3.6457,3.635,3.6684,3.6643,3.6224,3.5924,3.5616,3.5316,3.4961,3.4739,3.5519,3.5908,3.601,3.5992,3.5993,3.6007,3.6009,3.5962,3.5934,3.5914,3.5908,3.5891,3.5815,3.6454,3.7215,3.7887,3.8623,3.9385,4.0177,4.031,4.031,4.031,4.031,4.0253,4.0117,4.0117,4.0036,3.9911,3.9889,3.9889,3.9889,3.9889,3.9933,3.9996,3.9996,4.0017,4.0117,4.0077,4.0057,4.0057,3.9954,3.987,3.9807,3.9647,3.9427,3.9183,3.9129,3.9183,3.9272,3.9324,3.935,3.9376,3.9401,3.9401,3.9376,3.942,3.9464,3.9464,3.9464,3.9464,3.9464,3.9489,3.9514,3.9539,3.9642,3.9717,3.9807,3.9979,4.0099,4.0196,4.0321,4.0441,4.0554,4.0607,4.07,4.0823,4.0818,4.0819,4.084,4.0979,4.1031,4.1058,4.1053,4.1029,4.0968,4.0902,4.0776,4.061,4.0389,4.0155,3.9882,3.9552,3.9197,3.8828,3.8368,3.7859,3.745,3.7129,3.6678,3.6392,3.6241,3.5924,3.5644,3.5481,3.5916,3.5916,3.5464,3.5224,3.4897,3.4578,3.4349,3.4201,3.5582,3.5904,3.5996,3.6009,3.5993,3.6001,3.6005,3.5958,3.5929,3.5894,3.5908,3.5891,3.5815,3.6279,3.6886,3.7574,3.8297,3.9078,3.9852,4.0157,4.031,4.031,4.031,4.0253,4.0117,4.0117,4.0036,3.9911,3.9889,3.9889,3.9889,3.9911,3.9954,4.0017,4.0038,4.0077,4.0157,4.0157,4.0157,4.0157,4.0077,4.0017,3.9958,3.987,3.9739,3.958,3.9427,3.9452,3.9604,3.9628,3.9651,3.9698,3.9698,3.9675,3.9628,3.9628,3.9628,3.9628,3.9647,3.9623,3.9647,3.9665,3.9689,3.9717,3.9829,3.9937,4.0021,4.0157,4.0304,4.0425,4.0554,4.0654,4.0732,4.075,4.0837,4.0927,4.0926,4.0937,4.0955,4.1062,4.1069,4.1073,4.1049,4.0992,4.0896,4.0752,4.0554,4.0342,4.0081,3.9778,3.9414,3.9026,3.8663,3.8245,3.7773,3.7321,3.6878,3.6492,3.6156,3.5837,3.5588,3.5224,3.4944,3.4738,3.5035,3.5035,3.4785,3.4578,3.4349,3.4,3.3899,3.3797,3.5745,3.5899,3.5996,3.6009,3.5996,3.6007,3.6009,3.6001,3.5977,3.5914,3.5908,3.5891,3.5815,3.5775,3.5977,3.665,3.7433,3.8216,3.8972,3.9775,4.031,4.031,4.031,4.0253,4.0117,4.0117,4.0036,3.9911,3.9889,3.9889,3.9889,3.9954,4.0036,4.0077,4.0157,4.0215,4.0291,4.0291,4.0291,4.0291,4.0215,4.0196,4.0177,4.0099,4.0099,4.0139,3.9873,3.9826,3.9873,3.9941,3.9982,3.9982,3.9982,3.9982,3.9963,3.9963,3.9963,3.9982,3.9977,3.9975,3.9975,3.9911,3.9933,3.9977,4.0041,4.0176,4.0317,4.0431,4.0579,4.07,4.0764,4.0792,4.0818,4.0869,4.0946,4.0985,4.0985,4.0994,4.0996,4.0995,4.1011,4.0988,4.0917,4.0858,4.0745,4.0545,4.0348,4.0063,3.969,3.9389,3.9026,3.8493,3.8129,3.7773,3.7283,3.6878,3.6492,3.6139,3.5677,3.5316,3.5068,3.4723,3.4349,3.3933,3.3848,3.3899,3.4151,3.4,3.3848,3.3694,3.3694,3.3658,3.5706,3.5833,3.5947,3.5994,3.5995,3.5991,3.6007,3.5966,3.5929,3.5894,3.5908,3.5891,3.5815,3.5756,3.5919,3.6593,3.7344,3.8089,3.8822,3.9662,4.0195,4.0234,4.0234,4.0234,4.0176,4.0137,4.0057,3.9975,3.9933,3.9889,3.9889,3.9954,4.0036,4.0096,4.0176,4.0234,4.031,4.0291,4.0291,4.031,4.0309,4.0308,4.0252,4.0234,4.0252,4.0307,4.0234,4.0177,4.0158,4.0177,4.0214,4.027,4.027,4.0232,4.0193,4.0193,4.0193,4.0175,4.0176,4.0195,4.0195,4.0157,4.0194,4.0283,4.0334,4.0442,4.059,4.0674,4.0773,4.0828,4.0859,4.0908,4.0926,4.0953,4.0972,4.0994,4.1008,4.0992,4.0996,4.0994,4.0941,4.0839,4.0726,4.0621,4.0457,4.0173,3.9905,3.9595,3.9133,3.8792,3.8319,3.7754,3.7415,3.7076,3.6638,3.6284,3.5915,3.5526,3.5178,3.4771,3.4317,3.3984,3.3626,3.3177,3.3087,3.3156,3.345,3.3398,3.3224,3.298,3.298,3.2926,3.5649,3.576,3.5872,3.5947,3.5964,3.5976,3.5989,3.5971,3.5927,3.5894,3.5894,3.5878,3.5803,3.5754,3.5813,3.6202,3.6884,3.7536,3.8039,3.9014,3.9738,3.9814,4.0081,4.0234,4.0234,4.0196,4.0138,4.0078,4.0038,3.9998,3.9998,4.0059,4.0118,4.0196,4.0234,4.0291,4.0328,4.0326,4.0326,4.0328,4.0381,4.0396,4.0358,4.0358,4.0392,4.046,4.0476,4.0427,4.0379,4.0394,4.0447,4.0479,4.046,4.0438,4.0399,4.0399,4.0399,4.0434,4.0419,4.0415,4.0431,4.0415,4.0457,4.0511,4.0588,4.0681,4.0779,4.0849,4.0907,4.0924,4.0933,4.0961,4.1003,4.0991,4.0974,4.0955,4.0933,4.0953,4.0945,4.0898,4.0779,4.0649,4.0458,4.0293,4.0082,3.9719,3.9432,3.9082,3.8554,3.8143,3.7702,3.7173,3.686,3.6557,3.6174,3.5783,3.5441,3.5055,3.4626,3.4201,3.3694,3.3435,3.3033,3.2547,3.2437,3.2453,3.2578,3.2757,3.2687,3.2382,3.2437,3.2342,0.0,0.0,0.0,3.5872,3.5903,3.5921,3.5976,3.5993,3.5977,3.5904,3.5899,3.5875,3.5806,3.576,3.565,3.5445,3.6017,3.6501,3.6489,3.7868,3.8917,3.9082,3.979,4.0269,4.0288,4.0288,4.0289,4.0215,4.0215,4.0215,4.0215,4.027,4.0325,4.0396,4.0396,4.0396,4.0396,4.0415,4.0415,4.0396,4.0415,4.0427,4.0504,4.0504,4.0549,4.0621,4.0621,4.0569,4.0499,4.0577,4.0607,4.0603,4.0593,4.0602,4.0621,4.0621,4.0654,4.07,4.0635,4.0642,4.0694,4.0636,4.066,4.0729,4.0788,4.0856,4.0926,4.0968,4.1003,4.1006,4.1003,4.1006,4.0994,4.0994,4.0935,4.0867,4.08,4.083,4.0837,4.0731,4.0588,4.0396,4.0137,3.9905,3.9645,3.9231,3.8934,3.8554,3.7962,3.7524,3.7135,3.6816,3.6468,3.6131,3.5817,3.5424,3.5055,3.4691,3.4151,3.3694,3.3293,3.2926,3.2547,3.1996,3.1996,3.1811,3.148,3.2048,3.2216,3.1879,3.2064,3.1966,3.5483,0.0,0.0,0.0,0.0,0.0,3.5929,3.5976,3.5977,3.5919,3.5909,3.5875,3.5806,3.5788,3.5708,3.5566,3.6117,3.6546,3.652,3.7387,3.8285,3.9001,3.9306,3.9704,4.0383,4.0408,4.0356,4.0339,4.0302,4.0266,4.0266,4.0339,4.0408,4.0476,4.0469,4.0469,4.0469,4.0569,4.0569,4.0469,4.0559,4.0588,4.0579,4.0681,4.072,4.0745,4.0745,4.072,4.0713,4.064,4.0621,4.0675,4.0668,4.0694,4.0742,4.0742,4.0792,4.0834,4.0823,4.0828,4.0849,4.0826,4.0859,4.0913,4.0945,4.0987,4.1046,4.1069,4.1077,4.1066,4.1015,4.0952,4.0928,4.0867,4.0759,4.0641,4.0535,4.0419,4.0335,4.0473,4.0264,3.9967,3.9716,3.9414,3.9072,3.8615,3.8237,3.7805,3.7248,3.6882,3.6539,3.6259,3.5958,3.5667,3.5321,3.5024,3.4578,3.4,3.3658,3.3187,3.2523,3.2302,3.1966,3.1524,3.1336,3.1161,3.0851,3.1422,3.1667,3.1437,3.1278,3.1176,3.5393,3.5483,3.5574,3.5699,0.0,0.0,3.589,3.5955,3.5991,3.5942,3.5942,3.5924,3.5853,3.5838,3.5799,3.5708,3.5991,3.619,3.6104,3.6757,3.745,3.8063,3.877,3.9415,3.9995,4.0342,4.0534,4.0534,4.0496,4.0511,4.0521,4.0554,4.0568,4.0615,4.0642,4.0623,4.0623,4.07,4.07,4.0623,4.0706,4.0718,4.0674,4.0784,4.0837,4.0839,4.0839,4.0839,4.0828,4.0773,4.073,4.0742,4.0765,4.0798,4.084,4.083,4.0878,4.0946,4.0946,4.0965,4.098,4.0982,4.1013,4.1037,4.1042,4.106,4.1093,4.1062,4.1019,4.0969,4.0889,4.0807,4.0712,4.0655,4.0477,4.0274,4.0173,3.9966,3.9825,4.0063,3.9844,3.9496,3.9231,3.883,3.8413,3.7959,3.7578,3.7193,3.6701,3.6367,3.6028,3.5783,3.547,3.5165,3.4804,3.4382,3.3968,3.3455,3.3011,3.2523,3.1951,3.1682,3.1336,3.0866,3.0792,3.0553,3.0251,3.0851,3.1029,3.0866,3.0568,3.0387,3.5261,3.5379,3.5496,3.5574,3.5708,0.0,3.588,3.5942,3.5996,3.6001,3.6001,3.5977,3.5917,3.5898,3.5872,3.5807,3.5743,3.566,3.5534,3.6078,3.6565,3.6793,3.8136,3.9094,3.9257,4.0069,4.0578,4.0578,4.0718,4.0804,4.0818,4.0818,4.0818,4.0818,4.0798,4.0809,4.0828,4.0809,4.0809,4.0809,4.0819,4.0829,4.082,4.0897,4.0924,4.0921,4.0921,4.0921,4.0921,4.0915,4.0869,4.0828,4.0888,4.0915,4.091,4.0914,4.0953,4.1003,4.1003,4.1038,4.1098,4.1103,4.1101,4.1093,4.1093,4.1086,4.1058,4.0999,4.0859,4.075,4.0668,4.054,4.0419,4.0326,4.0062,3.9804,3.9694,3.9438,3.9264,3.9462,3.9289,3.899,3.8651,3.8227,3.7737,3.7305,3.6999,3.6661,3.6259,3.5932,3.5622,3.5379,3.5024,3.4643,3.425,3.3697,3.3214,3.2895,3.2287,3.1811,3.1422,3.1073,3.0673,3.0266,3.0205,3.0007,2.9685,3.0266,3.0387,3.019,2.9884,2.9685,3.5124,3.5254,3.5369,3.5483,3.5659,0.0,3.5883,3.5946,3.5994,3.6009,3.5991,3.5986,3.5914,3.5903,3.5891,3.5878,3.5818,3.5752,3.5678,3.5739,3.6064,3.6791,3.7165,3.7636,3.8368,3.9216,3.9731,3.9731,4.0447,4.0877,4.0869,4.0869,4.0869,4.0869,4.0878,4.0915,4.0971,4.0968,4.0957,4.0957,4.0953,4.0953,4.0964,4.1039,4.1058,4.1058,4.1058,4.1058,4.1058,4.0999,4.0968,4.0963,4.0975,4.0976,4.0978,4.0988,4.0984,4.0994,4.0994,4.1045,4.1092,4.109,4.1093,4.111,4.1109,4.1058,4.0984,4.08,4.0648,4.0524,4.0342,4.0155,3.9965,3.9802,3.9491,3.9193,3.897,3.8755,3.8505,3.83,3.8413,3.8431,3.8029,3.7632,3.7208,3.6799,3.6457,3.6139,3.5783,3.5549,3.5274,3.5041,3.4643,3.4184,3.3594,3.3266,3.2857,3.2247,3.1838,3.1306,3.0703,3.0418,3.0144,2.9727,2.9477,2.9198,2.898,2.9526,2.9789,2.9727,2.9401,2.9135,3.5,3.5157,3.5285,3.543,3.5574,0.0,0.0,3.5909,3.596,3.5996,3.5991,3.5994,3.5951,3.5953,3.5958,3.5942,3.5891,3.5833,3.5803,3.5736,3.5853,3.6248,3.6701,3.7116,3.7522,3.838,3.9101,3.9558,4.0441,4.0954,4.0996,4.0996,4.0996,4.0996,4.0999,4.1013,4.1059,4.1058,4.1045,4.1045,4.105,4.105,4.1045,4.1086,4.1096,4.1096,4.1109,4.1097,4.1104,4.1051,4.1051,4.1051,4.1042,4.1042,4.1043,4.1053,4.1054,4.1053,4.1012,4.1016,4.1046,4.1057,4.1033,4.0992,4.0963,4.0818,4.061,4.0419,4.0221,4.0062,3.9868,3.963,3.9389,3.92,3.8897,3.8596,3.8363,3.8092,3.779,3.747,3.7452,3.7452,3.7377,3.7017,3.6655,3.6259,3.5941,3.5633,3.5304,3.4977,3.4643,3.4317,3.3901,3.3439,3.2873,3.2461,3.2033,3.1495,3.1073,3.0598,3.0068,2.9761,2.9387,2.8944,2.8638,2.843,2.8287,2.8495,2.8688,2.8944,2.8638,2.843,3.4908,3.5073,3.5209,3.5354,3.5483,3.5618,0.0,0.0,0.0,3.5964,3.5974,3.5976,3.6003,3.6007,3.5994,3.6005,3.5942,3.5914,3.5899,3.5852,3.5782,3.5728,3.6328,3.6744,3.6684,3.752,3.852,3.9614,4.0361,4.0843,4.1085,4.111,4.111,4.111,4.1109,4.1095,4.11,4.1091,4.11,4.11,4.11,4.11,4.11,4.1097,4.1104,4.1104,4.1101,4.111,4.1093,4.1093,4.1074,4.1073,4.1092,4.1093,4.1091,4.1091,4.1078,4.1046,4.0994,4.0961,4.0963,4.0956,4.0888,4.0818,4.0707,4.0481,4.0191,3.9946,3.9738,3.9505,3.9308,3.9044,3.8762,3.8578,3.8223,3.7946,3.772,3.7469,3.7111,3.6781,3.6557,3.6492,3.6719,3.6451,3.6088,3.5756,3.547,3.5195,3.4851,3.4431,3.3968,3.3475,3.3108,3.2641,3.2064,3.1667,3.1248,3.0837,3.0312,2.9837,2.9415,2.8958,2.8495,2.8091,2.7776,2.7577,2.7656,2.739,2.7577,2.8157,2.7842,2.7643,3.4792,3.4964,3.5145,3.5277,3.5416,3.5543,3.5669,0.0,3.5908,3.5919,0.0,3.594,3.5996,0.0,0.0,3.5994,3.5988,3.5962,3.5919,3.5885,3.5858,3.5791,3.5877,3.5937,3.5937,3.672,3.7918,3.9578,3.9799,4.0214,4.1071,4.111,4.111,4.111,4.1109,4.11,4.1091,4.1105,4.1097,4.1104,4.1104,4.1104,4.1108,4.1101,4.1108,4.1093,4.1093,4.1108,4.1103,4.1041,4.101,4.1012,4.108,4.1099,4.1094,4.102,4.0976,4.091,4.0904,4.0878,4.0798,4.0746,4.0662,4.0506,4.0315,4.012,3.9882,3.9557,3.9264,3.9036,3.877,3.8418,3.8044,3.7861,3.7523,3.7167,3.6974,3.6736,3.6527,3.6191,3.5975,3.5975,3.6251,3.6036,3.5756,3.547,3.5165,3.4787,3.4399,3.3968,3.3475,3.2949,3.2547,3.2079,3.1452,3.1204,3.0777,3.0251,2.9837,2.9352,2.8716,2.7908,2.7364,2.7297,2.6985,2.6918,2.7108,2.6688,2.6905,2.759,2.7403,2.7255,3.452,3.4751,3.4965,3.5091,3.5235,3.5359,3.55,3.5659,3.5788,3.5827,0.0,0.0,0.0,0.0,0.0,0.0,3.5995,3.5989,3.5955,3.5962,3.5938,3.5872,3.5859,3.5852,3.5852,3.6604,3.7416,3.8195,3.9143,3.9883,4.0331,4.0838,4.1091,4.1103,4.11,4.1091,4.1105,4.1097,4.1104,4.1108,4.1108,4.1094,4.1103,4.1093,4.1093,4.1105,4.1052,4.1046,4.1045,4.098,4.0942,4.0933,4.094,4.0948,4.0974,4.0906,4.0849,4.0787,4.0742,4.0662,4.0544,4.0303,4.0117,3.9926,3.9697,3.9462,3.9205,3.8859,3.8615,3.8405,3.8047,3.7755,3.7487,3.7226,3.6952,3.669,3.6385,3.6131,3.5888,3.5639,3.535,3.5211,3.5304,3.5304,3.5165,3.4818,3.4415,3.4002,3.3594,3.3124,3.2586,3.2089,3.1709,3.1321,3.0732,3.0478,3.0115,2.9685,2.8853,2.8157,2.7709,2.696,2.6633,2.6633,2.6452,2.6465,2.6521,2.6452,2.6645,2.693,2.6863,2.6794,3.4136,3.439,3.4607,3.4733,3.4925,3.5098,3.5268,3.5438,3.5618,3.5706,3.5795,0.0,0.0,0.0,3.5899,3.5931,0.0,3.5973,3.5976,3.5975,3.596,3.5933,3.5922,3.5922,3.5922,3.6456,3.6923,3.7214,3.8552,3.95,3.9779,4.0623,4.1097,4.1109,4.1106,4.11,4.1109,4.1108,4.1099,4.1101,4.1101,4.1108,4.1094,4.111,4.1094,4.1061,4.1003,4.0974,4.0974,4.0888,4.084,4.0818,4.073,4.0692,4.0688,4.0692,4.0649,4.0582,4.0462,4.0312,4.0099,3.9806,3.9542,3.9321,3.9053,3.8792,3.848,3.8212,3.7998,3.7739,3.7395,3.7094,3.6821,3.6615,3.6385,3.6105,3.5844,3.5577,3.5304,3.5135,3.4804,3.4497,3.4399,3.4546,3.4546,3.425,3.3748,3.3319,3.2895,3.2382,3.1838,3.1379,3.097,3.0553,3.0144,2.9822,2.9373,2.8839,2.7881,2.7162,2.6769,2.6289,2.6094,2.6094,2.605,2.6062,2.6213,2.6339,2.6465,2.6533,2.6533,2.6533,3.3661,3.3854,3.4056,3.4176,3.4467,3.4774,3.4962,3.5162,3.5353,3.5492,3.5618,3.5737,3.5791,3.5803,3.5794,3.5801,3.5855,0.0,0.0,3.5896,3.5934,3.5997,3.6001,3.6001,3.6001,3.602,3.6387,3.7225,3.8063,3.8915,3.976,4.0637,4.111,4.111,4.11,4.1096,4.1096,4.1099,4.1092,4.1094,4.1093,4.111,4.1101,4.1104,4.1056,4.0999,4.0932,4.0906,4.0877,4.0761,4.0668,4.0588,4.0469,4.03,4.0155,4.0326,4.038,4.0281,4.0082,3.9797,3.9505,3.9308,3.9007,3.8707,3.8493,3.8176,3.7911,3.7756,3.7431,3.7091,3.6856,3.6474,3.6114,3.6045,3.5667,3.5337,3.5337,3.4994,3.4691,3.4546,3.43,3.4,3.3607,3.3848,3.4101,3.3949,3.3387,3.2895,3.2492,3.1879,3.1321,3.0881,3.0387,3.0007,2.9665,2.9289,2.8688,2.7617,2.704,2.6577,2.6233,2.5816,2.5676,2.591,2.5688,2.5828,2.6213,2.6213,2.6339,2.6533,2.6533,2.6533,3.3014,3.3296,3.3561,3.3588,3.3894,3.4223,3.4427,3.4659,3.4884,3.507,3.52,3.5325,3.5444,3.5473,3.5499,3.5582,3.563,3.5666,0.0,3.5818,3.5833,3.5864,3.5951,3.5995,3.5995,3.5993,3.6126,3.6415,3.7717,3.8629,3.8918,4.0307,4.1111,4.1094,4.1099,4.1105,4.1091,4.1094,4.1091,4.1103,4.1097,4.1086,4.1033,4.0984,4.0935,4.0859,4.0798,4.073,4.061,4.0492,4.0367,4.0248,4.0082,3.9943,3.9838,4.0004,4.0003,3.9857,3.9566,3.9294,3.898,3.8704,3.8382,3.8026,3.772,3.7433,3.719,3.6974,3.6794,3.665,3.6343,3.6045,3.5694,3.5407,3.5102,3.4851,3.4707,3.4399,3.4151,3.4,3.3559,3.3177,3.2926,3.278,3.278,3.2873,3.2492,3.2048,3.1724,3.1204,3.0732,3.019,2.9808,2.9387,2.8972,2.8235,2.7564,2.704,2.644,2.6037,2.5816,2.5676,2.5606,2.5688,2.591,2.6062,2.6213,2.6339,2.6396,2.6533,2.6533,2.6533,3.2669,3.3119,3.3573,3.3315,3.375,3.4217,3.4164,3.4383,3.4558,3.4459,3.4584,3.4755,3.4916,3.4999,3.5097,3.5273,3.5328,3.5399,0.0,3.5599,3.5637,3.5699,3.5858,3.5965,3.5965,3.5955,3.5962,3.5966,3.7242,3.8161,3.8472,3.9859,4.0776,4.1066,4.1066,4.1064,4.1055,4.1069,4.1055,4.1052,4.1046,4.0996,4.0936,4.0837,4.0761,4.0692,4.059,4.0492,4.0348,4.0174,4.0043,3.9897,3.9683,3.9494,3.9396,3.9595,3.95,3.9261,3.8943,3.8681,3.8405,3.8029,3.7703,3.7395,3.7034,3.6759,3.6516,3.636,3.6191,3.6019,3.5739,3.5424,3.5102,3.4754,3.4529,3.43,3.405,3.3729,3.3455,3.3419,3.2926,3.2437,3.2256,3.1894,3.1739,3.212,3.1781,3.1321,3.1029,3.0568,3.0083,2.9574,2.9121,2.861,2.8052,2.7364,2.6756,2.6452,2.6037,2.5688,2.5535,2.5453,2.5535,2.5606,2.5828,2.598,2.6062,2.6188,2.6327,2.6327,2.6327,2.6245]},{"header":{"parameterUnit":"m.s-1","parameterCategory":1,"la1":30.6,"la2":29.2853,"lo1":-89.7004,"lo2":-87.6739,"dy":0.0162,"dx":0.0183,"nx":112,"ny":82,"refTime":"2023-09-19T18:00:00:Z","depth":0,"parameterNumber":3,"parameterNumberName":"V-component_of_WINDS"},"data":[0.0,0.0,0.0,0.0,0.0,0.0,0.0,0.0,0.0,0.0,0.0,0.0,0.0,0.0,0.0,0.0,0.0,0.0,0.0,0.0,0.0,0.0,0.0,0.0,0.0,0.0,0.0,0.0,0.0,0.0,0.0,0.0,0.0,0.0,0.0,0.0,0.0,0.0,0.0,0.0,0.0,0.0,0.0,0.0,0.0,0.0,0.0,0.0,0.0,0.0,0.0,0.0,0.0,0.0,0.0,0.0,0.0,0.0,0.0,0.0,0.0,0.0,0.0,0.0,0.0,0.0,0.0,0.0,0.0,0.0,0.0,0.0,0.0,0.0,0.0,0.0,0.0,0.0,0.0,0.0,0.0,0.0,0.0,0.0,0.0,0.0,0.0,0.0,0.0,0.0,0.5969,0.6031,0.6149,0.6376,0.6652,0.7014,0.7535,0.8322,0.0,0.0,0.0,0.0,0.0,0.0,0.0,0.0,0.0,0.0,0.0,0.0,0.0,0.0,0.0,0.0,0.0,0.0,0.0,0.0,0.0,0.0,0.0,0.0,0.0,0.0,0.0,0.0,0.0,0.0,0.0,0.0,0.0,0.0,0.0,0.0,0.0,0.0,0.0,0.0,0.0,0.0,0.0,0.0,0.0,0.0,0.0,0.0,0.0,0.0,0.0,0.0,0.0,0.0,0.0,0.0,0.0,0.0,0.0,0.0,0.0,0.0,0.0,0.0,0.0,0.0,0.0,0.0,0.0,0.0,0.0,0.0,0.0,0.0,0.0,0.0,0.0,0.0,0.0,0.0,0.0,0.0,0.0,0.0,0.0,0.0,0.0,0.0,0.0,0.0,0.0,0.0,0.0,0.0,0.0,0.0,0.0,0.0,0.0,0.0,0.0,0.0,0.0,0.0,0.64,0.659,0.6724,0.6852,0.7063,0.7541,0.8011,0.851,0.0,0.0,0.0,0.0,0.0,0.0,0.0,0.0,0.0,0.0,0.0,0.0,0.0,0.0,0.0,0.0,0.0,0.0,0.0,0.0,0.0,0.0,0.0,0.0,0.0,0.0,0.0,0.0,0.0,0.0,0.0,0.0,0.0,0.0,0.0,0.0,0.0,0.0,0.0,0.0,0.0,0.0,0.0,0.0,0.0,0.0,0.0,0.0,0.0,0.0,0.0,0.0,0.0,0.0,0.0,0.0,0.0,0.0,0.0,0.0,0.0,0.0,0.0,0.0,0.0,0.0,0.0,0.0,0.0,0.0,0.0,0.0,0.0,0.0,0.0,0.0,0.0,0.0,0.0,0.0,0.0,0.0,0.0,0.0,0.0,0.0,0.0,0.0,0.0,0.0,0.0,0.0,0.0,0.0,0.0,0.0,0.0,0.0,0.0,0.0,0.0,0.0,0.0,0.642,0.6482,0.6811,0.6942,0.7233,0.759,0.809,0.8606,0.9223,0.9623,0.0,0.0,0.0,0.0,0.0,0.0,0.0,0.0,0.0,0.0,0.0,0.0,0.0,0.0,0.0,0.0,0.0,0.0,0.0,0.0,0.0,0.0,0.0,0.0,0.0,0.0,0.0,0.0,0.0,0.0,0.0,0.0,0.0,0.0,0.0,0.0,0.0,0.0,0.0,0.0,0.0,0.0,0.0,0.0,0.0,0.0,0.0,0.0,0.0,0.0,0.0,0.0,0.0,0.0,0.0,0.0,0.0,0.0,0.0,0.0,0.0,0.0,0.0,0.0,0.0,0.0,0.0,0.0,0.0,0.0,0.0,0.0,0.0,0.0,0.0,0.0,0.0,0.0,0.0,0.0,0.0,0.0,0.0,0.0,0.0,0.0,0.0,0.0,0.0,0.0,0.0,0.0,0.0,0.0,0.0,0.0,0.0,0.0,0.0,0.0,0.0,0.0,0.642,0.6482,0.6815,0.7073,0.7396,0.7982,0.8571,0.9215,0.997,1.052,0.0,0.0,0.0,0.0,0.0,0.0,0.0,0.0,0.0,0.0,0.0,0.0,0.0,0.0,0.0,0.0,0.0,0.0,0.0,0.0,0.0,0.0,0.0,0.0,0.0,0.0,0.0,0.0,0.0,0.0,0.0,0.0,0.0,0.0,0.0,0.0,0.0,0.0,0.0,0.0,0.0,0.0,0.0,0.0,0.0,0.0,0.0,0.0,0.0,0.0,0.0,0.0,0.0,0.0,0.0,0.0,0.0,0.0,0.0,0.0,0.0,0.0,0.0,0.0,0.0,0.0,0.0,0.0,0.0,0.0,0.0,0.0,0.0,0.0,0.0,0.0,0.0,0.0,0.0,0.0,0.0,0.0,0.0,0.0,0.0,0.0,0.0,0.0,0.0,0.0,0.0,0.0,0.0,0.0,0.0,0.0,0.0,0.0,0.0,0.0,0.0,0.0,0.642,0.6482,0.6675,0.7003,0.7461,0.8107,0.8689,0.9466,1.0681,1.1149,0.0,0.0,0.0,0.0,0.0,0.0,0.0,0.0,0.0,0.0,0.0,0.0,0.0,0.0,0.0,0.0,0.0,0.0,0.0,0.0,0.0,0.0,0.0,0.0,0.0,0.0,0.0,0.0,0.0,0.0,0.0,0.0,0.0,0.0,0.0,0.0,0.0,0.0,0.0,0.0,0.0,0.0,0.0,0.0,0.0,0.0,0.0,0.0,0.0,0.0,0.0,0.0,0.0,0.0,0.0,0.0,0.0,0.0,0.0,0.0,0.0,0.0,0.0,0.0,0.0,0.0,0.0,0.0,0.0,0.0,0.0,0.0,0.0,0.0,0.0,0.0,0.0,0.0,0.0,0.0,0.0,0.0,0.0,0.0,0.0,0.0,0.0,0.0,0.0,0.0,0.0,0.0,0.0,0.0,0.0,0.0,0.0,0.0,0.0,0.0,0.0,0.0,0.6614,0.668,0.6948,0.6988,0.7324,0.8194,0.8717,0.9402,1.0428,0.0,0.0,0.0,0.0,0.0,0.0,0.0,0.0,0.0,0.0,0.0,0.0,0.0,0.0,0.0,0.0,0.0,0.0,0.0,0.0,0.0,0.0,0.0,0.0,0.0,0.0,0.0,0.0,0.0,0.0,0.0,0.0,0.0,0.0,0.0,0.0,0.0,0.0,0.0,0.0,0.0,0.0,0.0,0.0,0.0,0.0,0.0,0.0,0.0,0.0,0.0,0.0,0.0,0.0,0.0,0.0,0.0,0.0,0.0,0.0,0.0,0.0,0.0,0.0,0.0,0.0,0.0,0.0,0.0,0.0,0.0,0.0,0.0,0.0,0.0,0.0,0.0,0.0,0.0,0.0,0.0,0.0,0.0,0.0,0.0,0.0,0.0,0.0,0.0,0.0,0.0,0.0,0.0,0.0,0.0,0.0,0.0,0.0,0.0,0.0,0.0,0.0,0.7023,0.6742,0.6738,0.6944,0.6909,0.7186,0.8014,0.8617,0.9383,1.0373,0.0,0.0,0.0,0.0,0.0,0.0,0.0,0.0,0.0,0.0,0.0,0.0,0.0,0.0,0.0,0.0,0.0,0.0,0.0,0.0,0.0,0.0,0.0,0.0,0.0,0.0,0.0,0.0,0.0,0.0,0.0,0.0,0.0,0.0,0.0,0.0,0.0,0.0,0.0,0.0,0.0,0.0,0.0,0.0,0.0,0.0,0.0,0.0,0.0,0.0,0.0,0.0,0.0,0.0,0.0,0.0,0.0,0.0,0.0,0.0,0.0,0.0,0.0,0.0,0.0,0.0,0.0,0.0,0.0,0.0,0.0,0.0,0.0,0.0,0.0,0.0,0.0,0.0,0.0,0.0,0.0,0.0,0.0,0.0,0.0,0.0,0.0,0.0,0.0,0.0,0.0,0.0,0.0,0.0,0.0,0.0,0.0,0.0,0.0,0.0,0.0,0.0,0.7032,0.6746,0.6606,0.6606,0.6603,0.6885,0.7659,0.8433,0.9416,0.0,0.0,0.0,0.0,0.0,0.0,0.0,0.0,0.0,0.0,0.0,0.0,0.0,0.0,0.0,0.0,0.0,0.0,0.0,0.0,0.0,0.0,0.0,0.0,0.0,0.0,0.0,0.0,0.0,0.0,0.0,0.0,0.0,0.0,0.0,0.0,0.0,0.0,0.0,0.0,0.0,0.0,0.0,0.0,0.0,0.0,0.0,0.0,0.0,0.0,0.0,0.0,0.0,0.0,0.0,0.0,0.0,0.0,0.0,0.0,0.0,0.0,0.0,0.0,0.0,0.0,0.0,0.0,0.0,0.0,0.0,0.0,0.0,0.0,0.0,0.0,0.0,0.0,0.0,0.0,0.0,0.0,0.0,0.0,0.0,0.0,0.0,0.0,0.0,0.0,0.0,0.0,0.0,0.0,0.0,0.0,0.0,0.0,0.0,0.0,0.0,0.0,0.0,0.7183,0.6949,0.6798,0.6798,0.6544,0.6695,0.7427,0.8089,0.8915,0.9962,0.0,0.0,0.0,0.0,0.0,0.0,0.0,0.0,0.0,0.0,0.0,0.0,0.0,0.0,0.0,0.0,0.0,0.0,0.0,0.0,0.0,0.0,0.0,0.0,0.0,0.0,0.0,0.0,0.0,0.0,0.0,0.0,0.0,0.0,0.0,0.0,0.0,0.0,0.0,0.0,0.0,0.0,0.0,0.0,0.0,0.0,0.0,0.0,0.0,0.0,0.0,0.0,0.0,0.0,0.0,0.0,0.0,0.0,0.0,0.0,0.0,0.0,0.0,0.0,0.0,0.0,0.0,0.0,0.0,0.0,0.0,0.0,0.0,0.0,0.0,0.0,0.0,0.0,0.0,0.0,0.0,0.0,0.0,0.0,0.0,0.0,0.0,0.0,0.0,0.0,0.0,0.0,0.0,0.0,0.0,0.0,0.0,0.0,0.0,0.0,0.0,0.0,0.718,0.6945,0.6788,0.6788,0.6474,0.6568,0.725,0.795,0.8747,0.9697,0.0,0.0,0.0,0.0,0.0,0.0,0.0,0.0,0.0,0.0,0.0,0.0,0.0,0.0,0.0,0.0,0.0,0.0,0.0,0.0,0.0,0.0,0.0,0.0,0.0,0.0,0.0,0.0,0.0,0.0,0.0,0.0,0.0,0.0,0.0,0.0,0.0,0.0,0.0,0.0,0.0,0.0,0.0,0.0,0.0,0.0,0.0,0.0,0.0,0.0,0.0,0.0,0.0,0.0,0.0,0.0,0.0,0.0,0.0,0.0,0.0,0.0,0.0,0.0,0.0,0.0,0.0,0.0,0.0,0.0,0.0,0.0,0.0,0.0,0.0,0.0,0.0,0.0,0.0,0.0,0.0,0.0,0.0,0.0,0.0,0.0,0.0,0.0,0.0,0.0,0.0,0.0,0.0,0.0,0.0,0.0,0.0,0.0,0.0,0.0,0.0,0.0,0.718,0.6872,0.6563,0.6563,0.6412,0.657,0.7103,0.7931,0.8765,0.9765,0.0,0.0,0.0,0.0,0.0,0.0,0.0,0.0,0.0,0.0,0.0,0.0,0.0,0.0,0.0,0.0,0.0,0.0,0.0,0.0,0.0,0.0,0.0,0.0,0.0,0.0,0.0,0.0,0.0,0.0,0.0,0.0,0.0,0.0,0.0,0.0,0.0,0.0,0.0,0.0,0.0,0.0,0.0,0.0,0.0,0.0,0.0,0.0,0.0,0.0,0.0,0.0,0.0,0.0,0.0,0.0,0.0,0.0,0.0,0.0,-0.0066,0.0792,0.0,0.0,0.0,0.0,0.0,0.0,0.0,0.0,0.0,0.0,0.0,0.0,0.0,0.0,0.0,0.0,0.0,0.0,0.0,0.0,0.0,0.0,0.0,0.0,0.0,0.0,0.0,0.0,0.0,0.0,0.0,0.0,0.0,0.0,0.0,0.0,0.0,0.0,0.0,0.0,0.7019,0.6714,0.6563,0.6412,0.6338,0.649,0.6942,0.7702,0.8537,0.9377,1.0432,0.0,0.0,0.0,0.0,0.0,0.0,0.0,0.0,0.0,0.0,0.0,0.0,0.0,0.0,0.0,0.0,0.0,0.0,0.0,0.0,0.0,0.0,0.0,0.0,0.0,0.0,0.0,0.0,0.0,0.0,0.0,0.0,0.0,0.0,0.0,0.0,0.0,0.0,0.0,0.0,0.0,0.0,0.0,0.0,0.0,0.0,0.0,0.0,0.0,0.0,0.0,0.0,0.0,0.0,0.0,0.0,0.0,0.0,0.0,-0.102,-0.0134,0.0,0.0,0.0,0.0,0.0,0.0,0.0,0.0,0.0,0.0,0.0,0.0,0.0,0.0,0.0,0.0,0.0,0.0,0.0,0.0,0.0,0.0,0.0,0.0,0.0,0.0,0.0,0.0,0.0,0.0,0.0,0.0,0.0,0.0,0.0,0.0,0.0,0.0,0.0,0.0,0.6942,0.6641,0.6412,0.6338,0.6338,0.649,0.6865,0.7553,0.8313,0.9074,0.9986,0.0,0.0,0.0,0.0,0.0,0.0,0.0,0.0,0.0,0.0,0.0,0.0,0.0,0.0,0.0,0.0,0.0,0.0,0.0,0.0,0.0,0.0,0.0,0.0,0.0,0.0,0.0,0.0,0.0,0.0,0.0,0.0,0.0,0.0,0.0,0.0,0.0,0.0,0.0,0.0,0.0,0.0,0.0,0.0,0.0,0.0,0.0,0.0,0.0,0.0,0.0,0.0,0.0,-0.195,-0.2042,-0.2189,-0.2189,-0.2189,-0.2184,-0.1531,-0.0887,-0.0205,0.0545,0.0,0.0,0.0,0.0,0.0,0.0,0.0,0.0,0.0,0.0,0.0,0.0,0.0,0.0,0.0,0.0,0.0,0.0,0.0,0.0,0.0,0.0,0.4123,0.4057,0.3997,0.4126,0.4806,0.0,0.0,0.0,0.0,0.0,0.0,0.0,0.0,0.0,0.0,0.0,0.6947,0.6567,0.6339,0.6339,0.6315,0.645,0.6832,0.7419,0.8165,0.8927,0.976,1.0443,0.0,0.0,0.0,0.0,0.0,0.0,0.0,0.0,0.0,0.0,0.0,0.0,0.0,0.0,0.0,0.0,0.0,0.0,0.0,0.0,0.0,0.0,0.0,0.0,0.0,0.0,0.0,0.0,0.0,0.0,0.0,0.0,0.0454,0.1267,0.0,0.0,0.0,0.0,0.0,0.0,0.0,0.0,0.0,0.0,0.0,0.0,0.0,0.0144,-0.0433,-0.0941,-0.1233,-0.1451,-0.1456,-0.1604,-0.1751,-0.1751,-0.1751,-0.175,-0.1882,0.0,-0.1227,-0.0289,0.0,0.0,0.0,0.0,0.0,0.0,0.0,0.0,0.0,0.0,0.0,0.0,0.0,0.0,0.0,0.0,0.0,0.0,0.0,0.0,0.0,0.0,0.4062,0.368,0.3372,0.3294,0.3361,0.4144,0.4932,0.5082,0.5467,0.5895,0.0,0.0,0.0,0.0,0.0,0.0,0.6962,0.6801,0.6641,0.6641,0.6522,0.6603,0.677,0.7414,0.8089,0.8703,0.9685,1.0368,1.0812,1.1484,0.0,0.0,0.0,0.0,0.0,0.0,0.0,0.0,0.0,0.0,0.0,0.0,0.0,0.0,0.0,0.0,0.0,0.0,0.0,0.0,0.0,0.0,0.0,0.0,0.0,0.0,0.0,0.0,0.0,-0.0066,-0.0266,0.0738,0.1022,0.1377,0.0,0.0,0.0,0.0,0.0,0.0,0.0,0.0,0.0,0.051,-0.0146,-0.0656,-0.0948,-0.1257,-0.1416,-0.1491,-0.1588,-0.1751,-0.1827,-0.1902,-0.1976,-0.1976,-0.2205,-0.2205,-0.1972,-0.1106,-0.0218,0.0654,0.0,0.0,0.0,0.0,0.3559,0.3346,0.3548,0.3493,0.3276,0.3398,0.0,0.0,0.0,0.0,0.0,0.0,0.0,0.5092,0.4758,0.4229,0.3696,0.343,0.3122,0.2973,0.285,0.3346,0.3818,0.4084,0.4629,0.5143,0.5507,0.6103,0.0,0.0,0.0,0.694,0.6861,0.6781,0.6702,0.6702,0.6641,0.6682,0.6926,0.7427,0.81,0.8815,0.9564,1.0269,1.0812,1.1421,1.1929,0.0,0.0,0.0,0.0,0.0,0.0,0.0,0.0,0.0,0.0,0.0,0.0,0.0,0.0,0.0,0.0,0.0,0.0,0.0,0.0,0.0,0.0,0.0,0.0,0.0,0.0,0.0,0.0,-0.0471,-0.0608,0.0136,0.0415,0.0843,0.0,0.0,0.0,0.0,0.0,0.0,0.1189,0.0818,0.0372,-0.0074,-0.0818,-0.119,-0.119,-0.1364,-0.1453,-0.1454,-0.1636,-0.1729,-0.1729,-0.1962,-0.2047,-0.206,-0.2375,-0.2463,-0.2467,-0.1821,-0.1039,-0.0222,0.0296,0.0815,0.1332,0.2221,0.2295,0.2078,0.2502,0.252,0.2376,0.2497,0.2902,0.3446,0.4229,0.0,0.0,0.0,0.0,0.4666,0.4456,0.3987,0.3529,0.335,0.3118,0.2884,0.2766,0.2862,0.3014,0.3289,0.3848,0.4369,0.4634,0.5404,0.0,0.6123,0.6551,0.6807,0.6729,0.6729,0.6814,0.6814,0.678,0.684,0.7003,0.7383,0.8016,0.8755,0.9497,1.0206,1.0847,1.1431,1.1815,1.2045,0.0,0.0,0.0,0.0,0.0,0.0,0.0,0.0,0.0,0.0,0.0,0.0,0.0,0.0,0.0,0.0,0.0,0.0,0.0,0.0,0.0,0.0,0.0,0.0,0.0,0.0,0.0,0.0,0.0,-0.0558,-0.021,0.0,0.0,0.0,0.0,0.1207,0.1134,0.1222,0.1251,0.1253,0.047,-0.1175,-0.1253,-0.1331,-0.1331,-0.1333,-0.1333,-0.1333,-0.1335,-0.1335,-0.1335,-0.1572,-0.1671,-0.1707,-0.211,-0.2382,-0.2422,-0.2391,-0.2109,-0.1484,-0.0937,-0.0468,-0.0156,0.0468,0.078,0.0937,0.1486,0.1723,0.1804,0.1886,0.2511,0.3288,0.4384,0.4462,0.0,0.0,0.4534,0.3993,0.4242,0.4018,0.3686,0.3692,0.3359,0.3026,0.2946,0.2862,0.2776,0.3025,0.3359,0.38,0.414,0.0,0.5048,0.5684,0.6145,0.6502,0.6773,0.6943,0.7115,0.7115,0.6997,0.6915,0.6915,0.737,0.7851,0.8336,0.9318,1.0212,1.0858,1.133,1.1763,1.2056,1.249,0.0,0.0,0.0,0.0,0.0,0.0,0.0,0.0,0.0,0.0,0.0,0.0,0.0,0.0,0.0,0.0,0.0,0.0,0.0,0.0,0.0,0.0,0.0,0.0,0.0,0.0,0.0,0.0,-0.0933,-0.0729,0.0,0.0224,0.0682,0.1075,0.124,0.0698,0.0389,0.0471,0.0478,0.0,-0.1045,-0.1224,-0.1316,-0.1316,-0.1316,-0.1316,-0.1316,-0.1316,-0.1397,-0.156,-0.1807,-0.198,-0.2161,-0.241,-0.2588,-0.2604,-0.2646,-0.2463,-0.2134,-0.1887,-0.1625,-0.1363,-0.1203,-0.0795,-0.0235,0.0078,0.0476,0.0967,0.1389,0.1888,0.2542,0.336,0.3605,0.3693,0.422,0.4151,0.3993,0.411,0.4034,0.388,0.3592,0.3433,0.3277,0.2976,0.272,0.2633,0.2633,0.3035,0.3283,0.3353,0.4162,0.4793,0.5008,0.5811,0.6432,0.652,0.6874,0.7139,0.7139,0.7095,0.7065,0.7065,0.7364,0.7849,0.8353,0.9172,0.9937,1.0693,1.1283,1.1638,1.1787,1.217,1.259,0.0,0.0,0.0,0.0,0.0,0.0,0.0,0.0,0.0,0.0,0.0,0.0,0.0,0.0,0.0,0.0,0.0,0.0,0.0,0.0,0.0,0.0,0.0,0.0,0.0,-0.0721,-0.1097,-0.1328,-0.12,-0.0988,-0.046,0.0078,0.0631,0.1033,0.0716,0.0319,0.0,0.0,-0.0247,-0.0824,-0.117,-0.1348,-0.1263,-0.1263,-0.1263,-0.1263,-0.1263,-0.1431,-0.1681,-0.1934,-0.2195,-0.2467,-0.2637,-0.2734,-0.2753,-0.2753,-0.2668,-0.2577,-0.2538,-0.2417,-0.222,-0.2219,-0.1873,-0.1367,-0.0884,-0.0325,0.033,0.092,0.1429,0.1933,0.2436,0.2688,0.2946,0.3562,0.3655,0.3663,0.3776,0.3869,0.3796,0.3587,0.3424,0.335,0.2952,0.2693,0.2424,0.2334,0.2572,0.2734,0.2683,0.3496,0.4121,0.4302,0.5277,0.5985,0.6163,0.6609,0.6966,0.6966,0.7051,0.7139,0.7139,0.7323,0.7676,0.8197,0.8949,0.9648,1.0508,1.1117,1.1489,1.1735,1.2209,1.2638,1.3193,0.0,0.0,0.0,0.0,0.0,0.0,0.0,0.0,0.0,0.0,0.0,0.0,0.0,0.0,0.0,0.0,0.0,0.0,0.0,0.0,0.0,0.0,0.0,-0.0512,-0.1022,-0.1476,-0.174,-0.1669,-0.1532,-0.1334,-0.055,0.0159,0.0651,0.106,0.0905,0.0084,-0.0,-0.0253,-0.0675,-0.1181,-0.1351,-0.1267,-0.1351,-0.1351,-0.1351,-0.1351,-0.1434,-0.1768,-0.1938,-0.2217,-0.2524,-0.2699,-0.282,-0.2875,-0.2875,-0.2875,-0.2862,-0.2744,-0.2696,-0.2695,-0.2525,-0.2524,-0.2439,-0.143,-0.0673,-0.0084,0.0589,0.101,0.1432,0.1684,0.1854,0.2115,0.2851,0.2957,0.2886,0.3479,0.3587,0.3587,0.3587,0.3406,0.3136,0.2957,0.269,0.2334,0.1885,0.1974,0.2154,0.2154,0.2599,0.3047,0.3497,0.4389,0.0,0.563,0.6346,0.6795,0.6792,0.6966,0.7051,0.7051,0.7323,0.7591,0.7764,0.8468,0.9257,1.0207,1.0727,1.1305,1.1999,1.2569,1.3141,1.366,0.0,0.0,0.0,0.0,0.0,0.0,0.0,0.0,0.0,0.0,0.0,0.0,0.0,0.0,0.0,0.0,0.0,0.0,0.0,0.0,0.0,-0.0077,-0.0694,-0.1053,-0.1598,-0.2004,-0.2096,-0.202,-0.1883,-0.1609,-0.1209,-0.0732,-0.025,0.0167,0.0251,-0.0084,-0.0342,-0.069,-0.1208,-0.1313,-0.1411,-0.1411,-0.1588,-0.1676,-0.1676,-0.1853,-0.2029,-0.2293,-0.2555,-0.2739,-0.3022,-0.3022,-0.3121,-0.3139,-0.2963,-0.2875,-0.2871,-0.2837,-0.2797,-0.2758,-0.2672,-0.273,-0.2699,-0.2141,-0.155,-0.095,-0.0614,-0.0088,0.0529,0.1146,0.141,0.1677,0.2486,0.267,0.2672,0.3044,0.3136,0.3047,0.2871,0.2781,0.2602,0.2422,0.2154,0.1974,0.1794,0.1705,0.1705,0.1885,0.242,0.2957,0.3227,0.3942,0.4654,0.5097,0.5547,0.5905,0.626,0.6432,0.6697,0.6881,0.7058,0.7323,0.7591,0.8116,0.864,0.9257,1.0207,1.1209,1.2257,1.2614,1.2978,0.0,0.0,0.0,0.0,0.0,0.0,0.0,0.0,0.0,0.0,0.0,0.0,0.0,0.0,0.0,0.0,0.0,0.0,0.0,0.0,0.0,0.0,-0.0545,-0.1333,-0.1562,-0.2053,-0.2389,-0.2389,-0.241,-0.2275,-0.2061,-0.1816,-0.1499,-0.0937,-0.0938,-0.0771,-0.0259,-0.07,-0.1146,-0.1587,-0.1606,-0.1615,-0.1705,-0.1885,-0.1974,-0.2064,-0.2243,-0.2513,-0.2962,-0.3138,-0.3405,-0.3673,-0.3583,-0.3494,-0.3494,-0.3318,-0.3141,-0.3051,0.0,0.0,0.0,0.0,-0.2798,-0.2774,-0.2457,-0.2203,-0.1942,-0.1698,-0.1076,-0.0359,0.0179,0.0718,0.1256,0.1884,0.2154,0.2243,0.2511,0.2599,0.2601,0.2423,0.2334,0.2334,0.2064,0.1885,0.1794,0.1615,0.1525,0.0,0.1615,0.2062,0.251,0.278,0.3315,0.3851,0.4387,0.4746,0.5102,0.5547,0.5813,0.6169,0.6438,0.67,0.0,0.0,0.0,0.8204,0.8911,0.9946,0.0,0.0,0.0,1.2626,1.2977,1.3642,0.0,0.0,1.5955,1.6438,0.0,0.0,0.0,0.0,0.0,0.0,0.0,0.0,0.0,0.0,0.0,0.0,0.0,0.0,0.0,0.0,-0.0947,-0.1909,-0.2033,-0.2371,-0.262,-0.2613,-0.2659,-0.2611,-0.2448,-0.2364,-0.2044,-0.1567,-0.1919,-0.1758,-0.0717,-0.1166,0.0,0.0,0.0,-0.2064,-0.2333,-0.2333,-0.2423,-0.2693,-0.2693,-0.305,-0.3765,-0.3765,-0.4032,-0.4389,-0.4206,-0.4028,-0.4028,-0.3764,-0.3585,-0.3227,-0.2962,-0.2875,-0.2875,-0.2875,-0.2875,-0.2873,-0.2604,0.0,0.0,-0.2513,-0.1884,-0.1166,-0.0807,-0.0179,0.0628,0.1166,0.1525,0.1794,0.2064,0.2154,0.2154,0.2154,0.2154,0.2064,0.1794,0.1794,0.1705,0.1436,0.1436,0.1436,0.1436,0.1615,0.1885,0.2154,0.2511,0.2957,0.3408,0.3853,0.43,0.4832,0.5102,0.0,0.5905,0.6166,0.6432,0.6704,0.7238,0.7856,0.8823,0.9689,1.0381,1.0901,1.1585,1.21,1.2619,1.3307,1.3899,1.4384,1.5359,1.6094,0.0,0.0,0.0,0.0,0.0,0.0,0.0,0.0,0.0,0.0,0.0,0.0,0.0,0.0,0.0,0.0564,-0.1051,-0.2038,-0.1998,-0.2461,-0.273,-0.268,-0.2685,-0.2627,-0.2415,-0.2419,-0.2267,-0.2048,-0.214,-0.2145,-0.1884,-0.1974,-0.2154,-0.2334,-0.2424,-0.2602,-0.2959,-0.3229,-0.3406,-0.3671,-0.3851,0.0,-0.4474,-0.4654,-0.4921,-0.5193,-0.5102,-0.5013,-0.4741,-0.4563,-0.4206,-0.3671,-0.3141,-0.2875,-0.2875,-0.2875,-0.2875,-0.2875,-0.2873,-0.2873,-0.2873,-0.2603,-0.2513,-0.2334,-0.1345,-0.0718,0.0,0.0448,0.1076,0.1525,0.1525,0.1525,0.1525,0.1525,0.1525,0.1525,0.1525,0.1436,0.1436,0.1436,0.1436,0.1436,0.1436,0.1615,0.1794,0.1884,0.2154,0.2423,0.2693,0.2782,0.3139,0.3765,0.403,0.4474,0.5188,0.563,0.5985,0.6432,0.7146,0.7768,0.8288,0.8907,0.9602,1.0381,1.0895,1.1499,1.21,1.2875,1.3398,1.3899,1.5105,1.5947,0.0,0.0,0.0,0.0,0.0,0.0,0.0,0.0,0.0,0.0,0.0,0.299,0.247,0.0,0.1692,0.0165,-0.1241,-0.2168,-0.2217,-0.2591,-0.2773,-0.2741,-0.2764,-0.2794,-0.2648,-0.2651,-0.2662,-0.2689,-0.269,-0.2781,-0.2871,-0.2871,-0.2959,-0.3227,-0.3317,-0.3585,-0.3939,-0.4208,-0.4476,-0.4828,-0.4919,-0.5275,-0.5714,-0.5894,-0.5985,-0.6257,-0.6166,-0.5985,-0.5894,-0.5361,-0.5006,-0.4739,-0.403,-0.3496,-0.3051,-0.3051,-0.2962,-0.2875,-0.2875,-0.2875,-0.2873,-0.2784,-0.2694,-0.2604,-0.2154,-0.1525,-0.0897,-0.0359,0.009,0.0538,0.0628,0.0718,0.0718,0.0897,0.0987,0.1076,0.1345,0.1166,0.0897,0.0718,0.0718,0.0718,0.0718,0.0807,0.1076,0.1525,0.1705,0.1885,0.2154,0.2154,0.2423,0.296,0.3138,0.3494,0.421,0.5102,0.5811,0.6343,0.6881,0.7326,0.7852,0.8204,0.8732,0.9602,1.0033,1.0722,1.1671,1.2363,1.3052,1.3561,1.4566,1.5401,0.0,0.0,0.0,0.0,0.0,0.0,0.0,0.4224,0.3756,0.337,0.2833,0.2304,0.1944,0.1715,0.1155,-0.0168,-0.1438,-0.2303,-0.2442,-0.2712,-0.2801,-0.2801,-0.2843,-0.2875,-0.2875,-0.2963,-0.3051,-0.3227,-0.3406,-0.3494,-0.3764,-0.3853,-0.4032,-0.4204,-0.4474,-0.4741,-0.5092,-0.5272,-0.5542,-0.5985,-0.5985,-0.634,-0.6956,-0.6956,-0.7048,-0.7231,-0.7048,-0.7044,-0.7044,-0.6337,-0.6071,-0.5985,-0.5361,-0.4561,-0.376,-0.3405,-0.3227,-0.3051,-0.3053,-0.3053,-0.3053,-0.3053,-0.2872,-0.2782,-0.2873,-0.2423,-0.1704,-0.1435,-0.1165,-0.0807,-0.0538,-0.0448,-0.0359,0.0,0.0179,0.0359,0.0897,0.0628,0.0179,-0.009,-0.0359,-0.0448,-0.0448,-0.0448,-0.009,0.1076,0.1256,0.1345,0.1705,0.1705,0.1884,0.2243,0.2334,0.2691,0.3497,0.4567,0.5458,0.6166,0.6523,0.6884,0.7326,0.7591,0.8028,0.8732,0.9257,1.012,1.1154,1.1929,1.2705,1.3392,1.3977,1.4734,0.969,0.8071,0.63,0.5226,0.4453,0.391,0.0,0.3287,0.2976,0.2981,0.2553,0.2107,0.1952,0.1242,0.0422,-0.0345,-0.1558,-0.2444,-0.2497,-0.2684,-0.2864,-0.2864,-0.2869,-0.2875,-0.2875,-0.3051,-0.3317,-0.3497,-0.3942,-0.4297,-0.4563,-0.4741,-0.5008,-0.5453,-0.5542,-0.5894,-0.6599,-0.6599,-0.6691,-0.6962,-0.6962,-0.7136,-0.7401,-0.7401,-0.758,-0.7764,-0.776,-0.7848,-0.8021,-0.7661,-0.7482,-0.7312,-0.6959,-0.6425,-0.5625,-0.4293,-0.3849,-0.376,-0.3587,-0.3497,-0.3497,-0.3497,-0.3497,-0.3408,-0.3227,-0.3138,-0.3047,-0.2777,-0.2688,-0.2509,-0.2063,-0.1974,-0.1794,-0.1345,-0.0987,-0.0807,-0.0538,-0.0448,-0.0448,-0.0807,-0.1436,-0.1974,-0.1974,-0.1974,-0.1345,0.0359,0.0628,0.0807,0.1345,0.1436,0.1436,0.1525,0.1705,0.2242,0.3138,0.3941,0.4746,0.546,0.608,0.6612,0.6884,0.7326,0.7768,0.8288,0.8995,0.9777,1.0722,1.1585,1.2448,1.3143,1.3568,1.4243,0.8917,0.7076,0.5306,0.4618,0.3759,0.2978,0.2589,0.2433,0.2285,0.2319,0.1535,0.0737,0.0505,0.017,-0.0345,-0.1146,-0.2037,-0.2666,-0.269,-0.2873,-0.2963,-0.3051,-0.305,-0.305,-0.305,-0.3318,-0.3676,-0.4212,-0.4654,-0.5184,-0.5628,-0.5894,-0.616,-0.6517,-0.6694,-0.6868,-0.7221,-0.7404,-0.758,-0.7757,-0.7757,-0.7848,-0.8116,-0.8116,-0.8292,-0.8472,-0.8644,-0.8732,-0.8819,-0.8552,-0.8376,-0.8288,-0.7937,-0.7577,-0.7132,-0.5539,-0.4739,-0.4383,-0.4295,-0.4119,-0.4032,-0.4208,-0.4119,-0.4032,-0.4028,-0.3849,-0.3583,-0.3406,-0.3227,-0.2957,-0.2689,-0.269,-0.278,-0.251,-0.2418,-0.2327,-0.2419,-0.2598,-0.2776,-0.2865,-0.2956,-0.3045,-0.3045,-0.3045,-0.2686,-0.1878,-0.1075,-0.0359,0.0269,0.0359,0.0448,0.0807,0.1256,0.1705,0.2152,0.2957,0.3851,0.4746,0.5277,0.5811,0.6349,0.67,0.7143,0.7753,0.8548,0.9423,1.0467,1.1327,1.2272,1.3143,1.3476,1.4068,0.7681,0.5999,0.4618,0.3843,0.2824,0.1887,0.1585,0.1508,0.1598,0.1718,0.0743,-0.0335,-0.1036,-0.1048,-0.1145,-0.197,-0.2512,-0.2962,-0.2962,-0.3053,-0.3141,-0.3405,-0.3494,-0.3585,-0.3673,-0.3853,-0.4212,-0.4926,-0.5455,-0.6074,-0.6694,-0.6959,-0.7224,-0.7404,-0.758,-0.7753,-0.7845,-0.8028,-0.8208,-0.8292,-0.8292,-0.8384,-0.8568,-0.8652,-0.8828,-0.8999,-0.9345,-0.9519,-0.9607,-0.9519,-0.9515,-0.9428,-0.9074,-0.8894,-0.8719,-0.7482,-0.6242,-0.5361,-0.5184,-0.5008,-0.4921,-0.5095,-0.5008,-0.4921,-0.5008,-0.483,-0.4474,-0.421,-0.3942,-0.3762,-0.3492,-0.3582,-0.3762,-0.3849,-0.3846,-0.3844,-0.4119,-0.4387,-0.4652,-0.4654,-0.4383,-0.4202,-0.4202,-0.4202,-0.4113,-0.4022,-0.3221,-0.2329,-0.1613,-0.1076,-0.0538,0.0179,0.0718,0.1076,0.1076,0.1973,0.2867,0.3671,0.4295,0.5008,0.5725,0.5988,0.6517,0.7316,0.8021,0.8899,1.0033,1.0982,1.1843,1.2796,1.3307,1.3815,0.6146,0.4924,0.3923,0.2515,0.1415,0.0632,0.0647,0.065,0.0737,0.1256,0.0599,-0.0695,-0.2522,-0.2299,-0.2062,-0.2784,-0.2871,-0.2957,-0.3136,-0.3406,-0.3674,-0.3849,-0.4119,-0.4476,-0.4919,-0.4746,-0.4926,-0.5633,-0.6346,-0.6969,-0.7401,-0.776,-0.794,-0.8201,-0.8197,-0.8292,-0.8564,-0.8568,-0.8568,-0.8568,-0.8568,-0.8568,-0.8568,-0.8828,-0.8999,-0.9349,-0.9777,-1.0125,-1.0294,-1.0722,-1.0895,-1.0895,-1.0895,-1.0722,-1.0463,-1.0289,-0.8803,-0.6962,-0.6517,-0.634,-0.634,-0.634,-0.634,-0.6343,-0.608,-0.6083,-0.5905,-0.546,-0.5371,-0.5282,-0.501,-0.4921,-0.5008,-0.527,-0.5179,-0.5087,-0.5542,-0.545,-0.545,-0.563,-0.563,-0.563,-0.563,-0.563,-0.563,-0.563,-0.563,-0.5188,-0.4308,-0.2777,-0.1433,-0.0448,-0.009,0.0179,0.0448,0.1076,0.1613,0.2149,0.3221,0.4115,0.4739,0.5361,0.6077,0.6795,0.7499,0.8288,0.9345,1.0207,1.1149,1.2015,1.2796,1.3307,0.5607,0.4453,0.337,0.2278,0.1511,0.0726,-0.0487,-0.0741,-0.0587,-0.0086,-0.052,-0.1311,-0.2393,-0.2322,-0.2244,-0.2784,-0.305,-0.3136,-0.3227,-0.3583,-0.3941,-0.4389,-0.4741,-0.5272,-0.5897,-0.5719,-0.5808,-0.6346,-0.7054,-0.7584,-0.7933,-0.8204,-0.8388,-0.8472,-0.8472,-0.8476,-0.8568,-0.8568,-0.8568,-0.8568,-0.8568,-0.8656,-0.8828,-0.917,-0.9602,-0.9946,-1.0467,-1.0901,-1.1241,-1.1413,-1.1499,-1.1671,-1.1671,-1.1585,-1.1494,-1.1327,-1.0804,-0.9927,-0.8707,-0.8097,-0.7749,-0.7749,-0.7665,-0.758,-0.7319,-0.7054,-0.6697,-0.6428,-0.6163,-0.6077,-0.616,-0.6251,-0.6428,-0.6691,-0.6861,-0.6858,-0.7037,-0.7037,-0.7037,-0.7312,-0.7401,-0.7401,-0.7573,-0.7489,-0.7309,-0.7129,-0.6157,-0.5272,-0.4565,-0.34,-0.2236,-0.1522,-0.1434,-0.1256,-0.0807,-0.0179,0.0448,0.1345,0.2061,0.2867,0.3762,0.4387,0.5188,0.6077,0.6874,0.7933,0.9074,0.9941,1.0982,1.2015,1.279,1.3313,0.4916,0.3834,0.283,0.1906,0.0966,-0.0082,-0.1578,-0.1771,-0.1544,-0.1051,-0.132,-0.1768,-0.2327,-0.2334,-0.2424,-0.2962,-0.3318,-0.3583,-0.3583,-0.4117,-0.4741,-0.5104,-0.5722,-0.6248,-0.6782,-0.6868,-0.6959,-0.7146,-0.7676,-0.8028,-0.8292,-0.8476,-0.8568,-0.8568,-0.8568,-0.8568,-0.8568,-0.8568,-0.8656,-0.874,-0.874,-0.8828,-0.917,-0.9602,-1.012,-1.0554,-1.1154,-1.1585,-1.21,-1.2277,-1.2448,-1.2619,-1.2699,-1.2778,-1.2693,-1.2607,-1.2528,-1.2186,-1.0534,-0.9671,-0.9414,-0.924,-0.9157,-0.8899,-0.8552,-0.8197,-0.7929,-0.7746,-0.757,-0.7482,-0.7742,-0.7834,-0.7925,-0.8277,-0.8368,-0.8368,-0.854,-0.854,-0.854,-0.8894,-0.8986,-0.8982,-0.924,-0.9157,-0.8982,-0.8798,-0.7826,-0.6766,-0.5536,-0.4552,-0.3662,-0.2952,-0.2776,-0.251,-0.2062,-0.1524,-0.0806,0.009,0.0897,0.1793,0.278,0.3494,0.4387,0.5366,0.6166,0.7136,0.8277,0.9331,1.0376,1.1413,1.2272,1.2966,0.3995,0.3062,0.2214,0.1455,-0.0163,-0.1732,-0.2666,-0.2522,-0.2102,-0.1608,-0.1705,-0.2064,-0.2334,-0.2424,-0.2691,-0.3138,-0.3851,-0.43,-0.4387,-0.5188,-0.5811,-0.6083,-0.67,-0.7228,-0.7489,-0.7933,-0.8113,-0.7852,-0.8113,-0.8292,-0.8568,-0.8568,-0.8568,-0.8568,-0.8568,-0.8568,-0.8568,-0.8568,-0.874,-0.8911,-0.8911,-0.917,-0.9689,-1.012,-1.0636,-1.1154,-1.1843,-1.2357,-1.279,-1.3307,-1.3561,-1.3822,-1.4062,-1.4139,-1.4139,-1.4139,-1.3977,-1.3561,-1.2009,-1.1327,-1.1068,-1.0809,-1.0549,-1.0294,-0.9777,-0.9689,-0.9602,-0.9323,-0.9323,-0.9405,-0.9666,-0.9492,-0.941,-0.9854,-0.9689,-0.9519,-0.9951,-0.9864,-0.9864,-1.0294,-1.0381,-1.0467,-1.0636,-1.0722,-1.0722,-1.0636,-1.0467,-0.9501,-0.7217,-0.6239,-0.5531,-0.4825,-0.4113,-0.358,-0.3315,-0.2777,-0.215,-0.1524,-0.0269,0.0897,0.1794,0.269,0.3674,0.4661,0.528,0.6074,0.7051,0.8277,0.9327,1.0294,1.1413,1.2363,0.3134,0.2199,0.1416,0.0554,-0.114,-0.2515,-0.2455,-0.2611,-0.2587,-0.2331,-0.2244,-0.2334,-0.2424,-0.2691,-0.2959,-0.3406,-0.4123,-0.4746,-0.5097,-0.5719,-0.6343,-0.6789,-0.7319,-0.776,-0.8021,-0.8292,-0.8476,-0.8388,-0.8476,-0.8564,-0.8568,-0.8568,-0.8568,-0.8568,-0.8568,-0.8568,-0.8568,-0.874,-0.8911,-0.917,-0.9345,-0.9772,-1.0376,-1.1068,-1.1757,-1.2528,-1.3045,-1.3555,-1.3971,-1.4062,-1.423,-1.4482,-1.4482,-1.4566,-1.4566,-1.4566,-1.4482,-1.4398,-1.3971,-1.3203,-1.2443,-1.21,-1.1757,-1.1413,-1.0809,-1.0722,-1.0809,-1.0631,-1.0631,-1.0799,-1.1063,-1.1149,-1.1063,-1.1241,-1.1154,-1.1068,-1.0982,-1.1068,-1.1241,-1.1499,-1.1843,-1.21,-1.1929,-1.1929,-1.1843,-1.1666,-1.1499,-1.0712,-0.8794,-0.8009,-0.7221,-0.6334,-0.5625,-0.5008,-0.4565,-0.3939,-0.3133,-0.2239,-0.1075,0.0179,0.1436,0.2242,0.3138,0.4117,0.4656,0.5458,0.6605,0.7401,0.8536,0.9758,1.0804,1.1757,0.2511,0.1492,0.0472,-0.0796,-0.1872,-0.2586,-0.2719,-0.287,-0.2928,-0.2865,-0.2781,-0.2691,-0.2781,-0.3048,-0.3406,-0.4121,-0.4924,-0.5633,-0.6071,-0.6868,-0.7401,-0.7665,-0.8025,-0.838,-0.8468,-0.856,-0.8568,-0.8568,-0.8568,-0.8568,-0.8568,-0.8568,-0.8568,-0.8568,-0.8568,-0.8656,-0.874,-0.9087,-0.9345,-0.9777,-0.9946,-1.0549,-1.1413,-1.1929,-1.2613,-1.3464,-1.3808,-1.4237,-1.4741,-1.4741,-1.4824,-1.4999,-1.4999,-1.4999,-1.4999,-1.4999,-1.4999,-1.4999,-1.4999,-1.4489,-1.3808,-1.3294,-1.2954,-1.2619,-1.2186,-1.21,-1.2186,-1.2186,-1.2272,-1.2443,-1.2705,-1.2705,-1.2534,-1.2448,-1.2277,-1.21,-1.1929,-1.2015,-1.2272,-1.2705,-1.3039,-1.33,-1.3137,-1.3137,-1.313,-1.2948,-1.2613,-1.2095,-1.0966,-0.9753,-0.8711,-0.8093,-0.7305,-0.6605,-0.616,-0.5359,-0.4378,-0.313,-0.197,-0.0627,0.0897,0.1615,0.2511,0.3403,0.403,0.4743,0.5633,0.6605,0.7573,0.8707,0.9758,1.0717,0.1963,0.0943,-0.0395,-0.2097,-0.2354,-0.2383,-0.3089,-0.3208,-0.3144,-0.3213,-0.3047,-0.2957,-0.3136,-0.3496,-0.4032,-0.4921,-0.5897,-0.6697,-0.7139,-0.8021,-0.8544,-0.8632,-0.8815,-0.8911,-0.8911,-0.874,-0.8568,-0.8568,-0.8568,-0.8568,-0.8568,-0.8568,-0.8568,-0.8656,-0.8656,-0.874,-0.9087,-0.9519,-0.9946,-1.0467,-1.0636,-1.1413,-1.2534,-1.279,-1.3379,-1.423,-1.4482,-1.4741,-1.5173,-1.5173,-1.5257,-1.5431,-1.5431,-1.5431,-1.5431,-1.5431,-1.5431,-1.5431,-1.5423,-1.534,-1.5082,-1.4398,-1.3977,-1.373,-1.3561,-1.3476,-1.3561,-1.373,-1.3815,-1.3906,-1.4082,-1.399,-1.3815,-1.3561,-1.3215,-1.296,-1.2875,-1.2875,-1.313,-1.373,-1.4062,-1.4146,-1.4166,-1.4166,-1.4159,-1.4139,-1.3815,-1.3398,-1.313,-1.1397,-1.0096,-0.9927,-0.9065,-0.8281,-0.7749,-0.6864,-0.5622,-0.4018,-0.295,-0.1522,0.0179,0.0897,0.1704,0.2777,0.3403,0.403,0.4569,0.5633,0.6605,0.7401,0.8448,0.9497,0.1571,0.0707,-0.0393,-0.2055,-0.2487,-0.27,-0.3276,-0.3428,-0.3408,-0.3482,-0.3317,-0.3136,-0.3227,-0.3762,-0.4476,-0.5184,-0.6248,-0.7228,-0.7933,-0.8468,-0.8907,-0.917,-0.8999,-0.8911,-0.8911,-0.874,-0.8568,-0.8568,-0.8568,-0.8568,-0.8568,-0.8568,-0.8652,-0.8823,-0.8828,-0.917,-0.9777,-1.0033,-1.0467,-1.1154,-1.1585,-1.2272,-1.3222,-1.3639,-1.423,-1.4915,-1.5173,-1.5257,-1.5347,-1.5347,-1.5347,-1.5431,-1.5431,-1.5431,-1.5431,-1.5431,-1.5431,-1.5423,-1.5575,-1.5658,-1.5484,-1.4817,-1.4482,-1.423,-1.4055,-1.4055,-1.423,-1.423,-1.4398,-1.4573,-1.4573,-1.4573,-1.4489,-1.4314,-1.4146,-1.4062,-1.3913,-1.3984,-1.423,-1.4482,-1.4566,-1.4566,-1.4573,-1.4573,-1.4573,-1.4398,-1.4159,-1.3913,-1.3652,-1.2443,-1.158,-1.1322,-1.0463,-0.968,-0.8973,-0.7921,-0.6514,-0.4917,-0.3666,-0.2326,-0.0896,0.009,0.1076,0.1973,0.2689,0.3403,0.4028,0.4656,0.5547,0.6605,0.7397,0.8536,0.1021,0.0314,-0.055,-0.212,-0.2613,-0.281,-0.3367,-0.3528,-0.3608,-0.3689,-0.3469,-0.3317,-0.3497,-0.3942,-0.4654,-0.5633,-0.6691,-0.7753,-0.8464,-0.9082,-0.9519,-0.9607,-0.9349,-0.9087,-0.9087,-0.8828,-0.8568,-0.8568,-0.8568,-0.8568,-0.8568,-0.874,-0.8823,-0.8911,-0.9257,-0.9777,-1.0294,-1.0809,-1.1413,-1.2186,-1.2528,-1.3215,-1.4068,-1.4314,-1.4741,-1.5264,-1.5347,-1.5431,-1.5431,-1.5431,-1.5431,-1.5431,-1.5431,-1.5431,-1.5431,-1.5499,-1.5582,-1.5575,-1.5982,-1.5989,-1.5914,-1.565,-1.5318,-1.5068,-1.4977,-1.4985,-1.5068,-1.5068,-1.5235,-1.5416,-1.5416,-1.5325,-1.5151,-1.4977,-1.4727,-1.4573,-1.4587,-1.4664,-1.4824,-1.4999,-1.5082,-1.4999,-1.4915,-1.4915,-1.4824,-1.4566,-1.4405,-1.4237,-1.4068,-1.3476,-1.2875,-1.2277,-1.1499,-1.0722,-1.0019,-0.8711,-0.7485,-0.6157,-0.4734,-0.3398,-0.2058,-0.0896,0.009,0.1076,0.1883,0.2689,0.3403,0.3853,0.4567,0.5547,0.6337,0.7394,0.055,-0.0157,-0.0942,-0.2276,-0.2746,-0.3,-0.3555,-0.3637,-0.3637,-0.3718,-0.3446,-0.3229,-0.3678,-0.4121,-0.4743,-0.5813,-0.6959,-0.8017,-0.8644,-0.9432,-0.9951,-0.9951,-0.9519,-0.9262,-0.9262,-0.8915,-0.8568,-0.8568,-0.8656,-0.8656,-0.8656,-0.8828,-0.8999,-0.917,-0.9777,-1.0381,-1.0982,-1.1671,-1.2357,-1.3209,-1.3476,-1.4068,-1.4824,-1.4824,-1.4999,-1.5431,-1.5431,-1.5431,-1.5431,-1.5431,-1.5431,-1.5431,-1.5423,-1.5423,-1.5506,-1.5741,-1.5816,-1.5899,-1.6312,-1.6402,-1.6335,-1.6484,-1.6147,-1.5733,-1.5733,-1.5733,-1.5733,-1.5741,-1.5997,-1.6162,-1.6252,-1.6079,-1.5816,-1.5567,-1.5235,-1.5075,-1.5166,-1.5249,-1.5257,-1.534,-1.5431,-1.5347,-1.5173,-1.509,-1.4999,-1.4734,-1.4566,-1.4398,-1.4314,-1.4159,-1.3737,-1.2875,-1.2192,-1.1499,-1.0722,-0.9414,-0.8189,-0.7126,-0.5714,-0.438,-0.322,-0.2059,-0.0986,0.009,0.0987,0.1793,0.2598,0.3138,0.3855,0.4569,0.545,0.6422,0.0314,-0.055,-0.1492,-0.2591,-0.2982,-0.3238,-0.3718,-0.3555,-0.3381,-0.3457,-0.3183,-0.2962,-0.3227,-0.4028,-0.4828,-0.5359,-0.6782,-0.7937,-0.8201,-0.9078,-0.9602,-0.9602,-0.9432,-0.9262,-0.9262,-0.8915,-0.8568,-0.8568,-0.874,-0.8911,-0.8911,-0.8911,-0.9257,-1.012,-1.0376,-1.1068,-1.2192,-1.2619,-1.3294,-1.3971,-1.423,-1.4573,-1.509,-1.509,-1.5173,-1.5431,-1.5431,-1.5431,-1.5431,-1.5431,-1.5431,-1.5431,-1.5575,-1.565,-1.5741,-1.6004,-1.6162,-1.6394,-1.6566,-1.6812,-1.6968,-1.7049,-1.6394,-1.5733,-1.5733,-1.5733,-1.5741,-1.6004,-1.6245,-1.6394,-1.6566,-1.6484,-1.6312,-1.6079,-1.6004,-1.5914,-1.5658,-1.565,-1.5575,-1.5423,-1.5431,-1.5431,-1.5347,-1.5257,-1.4999,-1.4734,-1.4566,-1.4314,-1.4166,-1.3913,-1.3568,-1.3137,-1.2619,-1.1929,-1.1068,-0.9676,-0.8364,-0.7136,-0.6163,-0.5186,-0.4208,-0.3224,-0.224,-0.1256,-0.0269,0.0628,0.1524,0.251,0.3315,0.4028,0.4741,0.5716,0.0,-0.1099,-0.2119,-0.2669,-0.3059,-0.3458,-0.3728,-0.3564,-0.3233,-0.3389,-0.3122,-0.2918,-0.313,-0.376,-0.4385,-0.4921,-0.6077,-0.7051,-0.7492,-0.8456,-0.9248,-0.9432,-0.9432,-0.9519,-0.9519,-0.917,-0.8999,-0.8999,-0.9087,-0.917,-0.9345,-0.9432,-0.9864,-1.0463,-1.1068,-1.1929,-1.2966,-1.347,-1.3971,-1.4657,-1.4741,-1.4999,-1.5257,-1.5257,-1.5347,-1.5431,-1.5431,-1.5431,-1.5431,-1.5431,-1.5506,-1.5575,-1.565,-1.5899,-1.6147,-1.6566,-1.6812,-1.7057,-1.7546,-1.7708,-1.7627,-1.7627,-1.7131,-1.6476,-1.6229,-1.6229,-1.6319,-1.6648,-1.6968,-1.7212,-1.7465,-1.7221,-1.6894,-1.6574,-1.6492,-1.6409,-1.6147,-1.6147,-1.6072,-1.5839,-1.5839,-1.5756,-1.5409,-1.5249,-1.4999,-1.4566,-1.4321,-1.4159,-1.3913,-1.3737,-1.3476,-1.2875,-1.2448,-1.1757,-1.0636,-0.9589,-0.8544,-0.7584,-0.652,-0.5636,-0.5015,-0.3942,-0.2869,-0.1974,-0.1076,-0.009,0.0987,0.1524,0.2419,0.3583,0.4297,0.5186,-0.0078,-0.1412,-0.2668,-0.2668,-0.3137,-0.3604,-0.3684,-0.3438,-0.3187,-0.3152,-0.2983,-0.2883,-0.3014,-0.3568,-0.4028,-0.4389,-0.5544,-0.6432,-0.6874,-0.7929,-0.8811,-0.917,-0.9345,-0.9515,-0.9602,-0.9432,-0.9345,-0.9345,-0.9345,-0.9519,-0.9689,-1.0125,-1.0467,-1.0895,-1.1843,-1.2784,-1.373,-1.4146,-1.4657,-1.5173,-1.5173,-1.5264,-1.5431,-1.5431,-1.5431,-1.5431,-1.5431,-1.5423,-1.5506,-1.5506,-1.5582,-1.5824,-1.5982,-1.6229,-1.664,-1.7131,-1.7465,-1.7797,-1.8282,-1.8282,-1.8201,-1.804,-1.7708,-1.7302,-1.6804,-1.673,-1.6812,-1.7139,-1.77,-1.8103,-1.8193,-1.8031,-1.7708,-1.7221,-1.7057,-1.7057,-1.6804,-1.6722,-1.664,-1.6484,-1.6409,-1.6162,-1.5816,-1.5484,-1.5082,-1.4657,-1.4243,-1.3913,-1.3737,-1.3568,-1.3307,-1.2705,-1.21,-1.1327,-1.0294,-0.9331,-0.846,-0.7764,-0.6789,-0.5991,-0.5547,-0.4389,-0.3406,-0.2602,-0.1794,-0.0807,0.0359,0.0807,0.1704,0.3047,0.3851,0.501,0.0234,-0.1491,-0.2982,-0.2589,-0.3137,-0.3763,-0.3526,-0.3356,-0.3172,-0.2928,-0.2867,-0.2783,-0.2783,-0.3446,-0.3939,-0.3939,-0.5099,-0.6171,-0.6343,-0.7404,-0.8376,-0.8823,-0.9174,-0.9345,-0.9602,-0.9432,-0.9345,-0.9602,-0.9602,-0.9689,-0.9951,-1.0641,-1.1241,-1.1671,-1.2528,-1.3464,-1.4398,-1.4831,-1.5173,-1.5431,-1.5431,-1.5431,-1.5431,-1.5431,-1.5431,-1.5431,-1.5431,-1.5499,-1.5733,-1.5733,-1.5824,-1.617,-1.6492,-1.6812,-1.7131,-1.7538,-1.8031,-1.8353,-1.8442,-1.8531,-1.862,-1.8121,-1.804,-1.7959,-1.7473,-1.7066,-1.6812,-1.7538,-1.8345,-1.8913,-1.8745,-1.8665,-1.8585,-1.8112,-1.7959,-1.7951,-1.77,-1.7546,-1.7383,-1.7359,-1.7049,-1.6648,-1.6648,-1.5982,-1.5318,-1.5082,-1.4328,-1.3737,-1.3737,-1.3313,-1.2966,-1.2448,-1.1757,-1.0895,-0.9946,-0.9069,-0.8288,-0.7507,-0.6789,-0.6163,-0.5719,-0.4832,-0.3851,-0.2956,-0.2242,-0.1436,-0.0448,0.0538,0.1524,0.2418,0.3401,0.5181,0.0153,-0.0929,-0.2038,-0.2589,-0.2981,-0.3139,-0.3217,-0.3079,-0.2951,-0.2918,-0.2833,-0.2733,-0.2775,-0.3183,-0.3405,-0.3405,-0.4208,-0.5102,-0.5636,-0.6871,-0.7933,-0.8636,-0.934,-0.9777,-0.9864,-0.9777,-0.9777,-0.9864,-0.9864,-0.9951,-1.0038,-1.0814,-1.1413,-1.1929,-1.296,-1.3808,-1.4566,-1.5082,-1.5347,-1.5431,-1.5431,-1.5431,-1.5431,-1.5431,-1.5431,-1.5431,-1.5431,-1.5499,-1.5733,-1.5733,-1.5989,-1.6574,-1.6812,-1.7383,-1.8031,-1.8282,-1.8674,-1.8984,-1.8984,-1.9073,-1.9073,-1.8612,-1.8371,-1.8282,-1.8121,-1.7878,-1.7708,-1.8434,-1.9073,-1.9548,-1.9222,-1.9134,-1.9063,-1.8754,-1.8683,-1.8594,-1.8416,-1.8434,-1.8434,-1.8095,-1.7781,-1.7383,-1.6812,-1.6064,-1.5401,-1.4741,-1.4068,-1.3568,-1.3307,-1.3137,-1.2887,-1.2203,-1.151,-1.0631,-0.9501,-0.8894,-0.8197,-0.7319,-0.6697,-0.6163,-0.5719,-0.4832,-0.3851,-0.2957,-0.2332,-0.1794,-0.1076,-0.0179,0.1343,0.3221,0.4561,0.6068,0.0377,-0.0536,-0.1473,-0.2192,-0.2589,-0.2826,-0.2982,-0.2904,-0.2758,-0.272,-0.2697,-0.2677,-0.2737,-0.297,-0.3197,-0.3223,-0.3942,-0.4656,-0.5369,-0.6694,-0.7841,-0.8899,-0.9598,-1.0038,-1.0038,-1.0038,-1.0038,-1.0038,-1.0038,-1.0038,-1.0038,-1.0809,-1.1499,-1.2015,-1.3215,-1.4146,-1.465,-1.5173,-1.5431,-1.5431,-1.5431,-1.5431,-1.5431,-1.5431,-1.5431,-1.5431,-1.5431,-1.559,0.0,-1.5824,-1.6319,-1.6976,-1.7221,-1.7789,-1.8523,-1.8772,-1.9002,-1.9301,-1.9301,-1.9301,-1.9231,-1.8922,-1.8692,-1.8523,-1.8674,-1.8594,-1.8594,-1.9082,-1.9627,-2.002,-1.9706,-1.9706,-1.9627,-1.939,-1.932,-1.9161,-1.9073,-1.8993,-1.8922,-1.8585,-1.8193,-1.7627,-1.6968,-1.6147,-1.5311,-1.4559,-1.3984,-1.3483,-1.3143,-1.2966,-1.2625,-1.1946,-1.1246,-1.0371,-0.9148,-0.8719,-0.8021,-0.7139,-0.6694,-0.6163,-0.5719,-0.4832,-0.3851,-0.2957,-0.2422,-0.1974,-0.1436,0.0269,0.2059,0.3939,0.5186,0.6517,0.0,-0.0227,-0.1218,-0.148,-0.2196,-0.2826,-0.2747,-0.2747,0.0,-0.2511,-0.2559,-0.262,-0.2681,-0.2911,-0.3148,-0.3215,-0.4032,-0.4924,-0.563,-0.6782,-0.8105,-0.9428,-0.9864,-1.0038,-1.0038,-1.0038,-1.0038,-1.0038,-1.0038,-1.0038,-1.0038,-1.0809,-1.1499,-1.2015,-1.3379,-1.4314,-1.4734,-1.5173,-1.5431,-1.5431,-1.5431,-1.5431,-1.5431,-1.5431,-1.5431,-1.5431,-1.5431,-1.568,-1.6087,-1.6087,-1.6582,-1.7392,-1.7619,-1.8112,-1.878,-1.8922,-1.9152,-1.9301,-1.9301,-1.9301,-1.9301,-1.9073,-1.8922,-1.8772,-1.9152,-1.9301,-1.9381,-1.9557,-1.9951,-2.0342,-2.0264,-2.0264,-2.0264,-1.9942,-1.9794,-1.9636,-1.9557,-1.932,-1.9002,-1.8922,-1.8264,-1.7529,-1.7033,-1.6049,-1.5144,-1.4398,-1.3808,-1.3307,-1.3052,-1.2705,-1.2192,-1.1671,-1.0982,-1.0111,-0.8978,-0.846,-0.7845,-0.7139,-0.6697,-0.6251,-0.5719,-0.483,-0.3851,-0.2957,-0.2332,-0.1794,-0.1256,0.1612,0.3405,0.4389,0.5547,0.6789,0.1557,0.0,0.0076,-0.0546,-0.1492,-0.2278,0.0,-0.2431,-0.2589,-0.2511,-0.2559,-0.262,-0.2681,-0.2827,-0.2976,-0.3127,-0.3673,-0.4474,-0.5542,-0.7316,-0.8907,-0.9777,-0.9951,-1.0038,-1.0038,-1.0038,-1.0038,-1.0038,-1.0038,-1.0038,-1.0038,-1.0809,-1.1499,-1.2015,-1.3392,-1.4328,-1.4734,-1.5173,-1.5431,-1.5431,-1.5431,-1.5431,-1.5431,-1.5431,-1.5431,-1.5431,-1.5431,-1.5582,-1.5824,-1.6004,-1.6492,-1.7221,-1.7708,-1.8362,-1.8922,-1.9152,-1.939,-1.9557,-1.9557,-1.9557,-1.9478,-1.9311,-1.9231,-1.9152,-1.9301,-1.939,-1.9557,-1.9784,-2.0177,-2.0489,-2.0342,-2.0264,-2.0264,-1.9942,-1.9863,-1.9784,-1.9469,-1.9301,-1.9063,-1.8585,-1.7934,-1.7196,-1.6198,-1.5387,-1.4566,-1.373,-1.3392,-1.3052,-1.2625,-1.2448,-1.2106,-1.1241,-1.0463,-0.968,-0.8719,-0.8372,-0.7845,-0.7139,-0.6877,-0.6435,-0.5719,-0.5008,-0.4026,-0.2957,-0.1613,-0.0448,0.0448,0.2599,0.4032,0.4832,0.6071,0.7482,0.1948,0.1516,0.0898,0.0154,-0.0779,-0.165,-0.2042,-0.2199,-0.2277,-0.2354,-0.2379,-0.2505,-0.2676,-0.2719,-0.2856,-0.3121,-0.376,-0.4828,-0.6605,-0.8113,-0.9345,-0.9951,-1.0038,-1.0038,-1.0038,-1.0038,-1.0038,-1.0038,-1.0038,-1.0038,-1.0038,-1.0809,-1.1499,-1.2015,-1.3385,-1.4321,-1.4734,-1.5173,-1.5431,-1.5431,-1.5431,-1.5431,-1.5431,-1.5431,-1.5431,-1.5431,-1.5431,-1.5499,-1.5733,-1.5824,-1.6402,-1.7131,-1.7554,-1.8201,-1.8851,-1.9073,-1.932,-1.9566,-1.9566,-1.9636,-1.9715,-1.9627,-1.9539,-1.9618,-1.9706,-1.9872,-1.9951,-2.0029,-2.0333,-2.0566,-2.0498,-2.0342,-2.0264,-2.0108,-1.9863,-1.9539,-1.9231,-1.8904,-1.8505,-1.7853,-1.7107,-1.6363,-1.5379,-1.4727,-1.3984,-1.3392,-1.3052,-1.279,-1.2448,-1.202,-1.1499,-1.0722,-0.9946,-0.9078,-0.8285,-0.8025,-0.7672,-0.7143,-0.6789,-0.6343,-0.5719,-0.4919,-0.3939,-0.269,-0.0896,0.0448,0.1433,0.3317,0.4748,0.563,0.6776,0.8093,0.2215,0.1924,0.1467,0.0677,-0.0154,-0.0864,-0.1729,-0.1887,-0.1964,-0.2118,-0.2196,-0.2306,-0.2657,-0.2685,-0.2814,-0.328,-0.4285,-0.5802,-0.7933,-0.8815,-0.9432,-0.9951,-1.0038,-1.0038,-1.0038,-1.0038,-1.0038,-1.0038,-1.0038,-1.0038,-1.0038,-1.0809,-1.1499,-1.2015,-1.3379,-1.4314,-1.4734,-1.5173,-1.5431,-1.5431,-1.5431,-1.5431,-1.5431,-1.5431,-1.5431,-1.5431,-1.5347,-1.5416,-1.5575,-1.5575,-1.6147,-1.6886,-1.7229,-1.7806,-1.8612,-1.8843,-1.9161,-1.9487,-1.9566,-1.9715,-1.9863,-1.9863,-1.9863,-1.9872,-2.0186,-2.0264,-2.0264,-2.0264,-2.0411,-2.0566,-2.0489,-2.0342,-2.0264,-2.0186,-1.9706,-1.9231,-1.9002,-1.8353,-1.7627,-1.696,-1.6124,-1.5289,-1.465,-1.3984,-1.3483,-1.3052,-1.279,-1.2534,-1.2192,-1.1499,-1.0722,-1.012,-0.934,-0.8468,-0.7852,-0.7503,-0.7238,-0.7051,-0.6609,-0.6163,-0.5542,-0.4565,-0.3496,-0.2243,-0.0359,0.1165,0.2237,0.403,0.5458,0.6605,0.757,0.8886,0.2701,0.2385,0.1978,0.1279,0.0463,-0.0314,-0.0864,-0.1415,-0.1806,-0.204,-0.2195,-0.2294,-0.2602,-0.2657,-0.2969,-0.3653,-0.53,-0.6868,-0.8021,-0.8815,-0.9432,-0.9951,-1.0038,-1.0038,-1.0038,-1.0038,-1.0038,-1.0038,-1.0038,-1.0038,-1.0038,-1.0809,-1.1499,-1.2015,-1.3392,-1.4328,-1.4734,-1.5173,-1.5431,-1.5431,-1.5431,-1.5431,-1.5431,-1.5431,-1.5431,-1.5431,-1.5257,-1.5173,-1.5166,-1.5166,-1.5499,-1.5982,-1.6566,-1.7221,-1.7951,-1.8531,-1.8851,-1.9161,-1.9478,-1.9645,-1.9636,-1.9863,-1.9794,-1.9715,-1.9872,-1.9942,-1.9942,-1.9942,-2.0177,-2.0264,-2.0098,-2.002,-1.9951,-1.9715,-1.9469,-1.9143,-1.8594,-1.7781,-1.6878,-1.6057,-1.5228,-1.4391,-1.373,-1.3392,-1.3052,-1.2619,-1.2448,-1.2192,-1.1327,-1.0895,-1.0289,-0.9257,-0.8644,-0.8116,-0.7591,-0.7149,-0.6792,-0.6517,-0.6428,-0.5808,-0.4565,-0.3587,-0.2512,-0.1256,0.0179,0.1882,0.3941,0.4654,0.5894,0.757,0.8532,0.9845,0.282,0.2657,0.2482,0.207,0.1221,0.0393,0.0,-0.055,-0.11,-0.157,-0.1884,-0.2214,-0.2428,-0.2651,-0.3231,-0.448,-0.586,-0.7221,-0.8285,-0.8903,-0.9432,-0.9951,-1.0038,-1.0038,-1.0038,-1.0038,-1.0038,-1.0038,-1.0038,-1.0038,-1.0038,-1.0809,-1.1499,-1.2015,-1.3398,-1.4328,-1.4734,-1.5173,-1.5431,-1.5431,-1.5431,-1.5431,-1.5431,-1.5264,-1.5257,-1.5257,-1.4999,-1.4908,-1.4908,-1.4908,-1.5082,-1.5416,-1.6079,-1.673,-1.7448,-1.8523,-1.9002,-1.9152,-1.939,-1.9478,-1.9645,-1.9715,-1.9715,-1.9794,-1.9863,-1.9863,-1.9863,-1.9794,-1.9872,-2.002,-1.9942,-1.9706,-1.9548,-1.9469,-1.9152,-1.8665,-1.8112,-1.7286,-1.6386,-1.5575,-1.4657,-1.3815,-1.3137,-1.2875,-1.2534,-1.2106,-1.1843,-1.1413,-1.0722,-1.0033,-0.9336,-0.8368,-0.7845,-0.7408,-0.6795,-0.6529,-0.6169,-0.5633,-0.5727,-0.5193,-0.3853,-0.2871,-0.1794,-0.0448,0.0896,0.2776,0.5015,0.5544,0.6688,0.8619,0.9497,1.0799,0.2889,0.2868,0.2914,0.2767,0.1968,0.1178,0.0864,0.0314,-0.0393,-0.1021,-0.165,-0.2054,-0.225,-0.2805,-0.3751,-0.5245,-0.6251,-0.7309,-0.846,-0.8995,-0.9432,-0.9951,-1.0038,-1.0038,-1.0038,-1.0038,-1.0038,-1.0038,-1.0038,-1.0038,-1.0038,-1.0809,-1.1499,-1.2015,-1.3398,-1.4328,-1.4734,-1.5173,-1.5431,-1.5431,-1.5431,-1.5347,-1.5347,-1.5173,-1.509,-1.4999,-1.4734,-1.465,-1.465,-1.4573,-1.4741,-1.4999,-1.559,-1.6319,-1.7123,-1.8264,-1.8754,-1.8904,-1.8904,-1.9073,-1.924,-1.932,-1.9469,-1.9627,-1.9706,-1.9706,-1.9636,-1.9478,-1.9557,-1.9636,-1.9706,-1.9469,-1.9152,-1.9152,-1.8754,-1.8193,-1.7781,-1.696,-1.5982,-1.5166,-1.4243,-1.3392,-1.2705,-1.2448,-1.2106,-1.1591,-1.1154,-1.0636,-0.9941,-0.9161,-0.8372,-0.757,-0.7048,-0.652,-0.5908,-0.5547,-0.5008,-0.4202,-0.4389,-0.3944,-0.2688,-0.1792,-0.0807,0.0358,0.2059,0.3848,0.5816,0.6517,0.783,0.9584,1.0458,1.1585,0.3293,0.3149,0.3207,0.3134,0.28,0.2198,0.1414,0.0864,0.0236,-0.0628,-0.1335,-0.1808,-0.2123,-0.3179,-0.4424,-0.5505,-0.6428,-0.7492,-0.8732,-0.9087,-0.9432,-0.9951,-1.0038,-1.0038,-1.0038,-1.0038,-1.0038,-1.0038,-1.0038,-1.0038,-1.0038,-1.0809,-1.1499,-1.2015,-1.3398,-1.4328,-1.4734,-1.5173,-1.5431,-1.5431,-1.5431,-1.5257,-1.509,-1.509,-1.4999,-1.4741,-1.4482,-1.4391,-1.4398,-1.425,-1.4243,-1.4482,-1.4999,-1.5989,-1.7139,-1.7392,-1.7627,-1.7861,-1.7861,-1.7951,-1.8193,-1.8585,-1.8754,-1.8851,-1.9231,-1.9073,-1.886,-1.9002,-1.8931,-1.8851,-1.9002,-1.8931,-1.8772,-1.8772,-1.8362,-1.7951,-1.7781,-1.6632,-1.5567,-1.4817,-1.3893,-1.2966,-1.2534,-1.202,-1.1585,-1.1154,-1.0641,-0.9941,-0.8807,-0.8189,-0.7485,-0.6605,-0.6074,-0.5636,-0.529,-0.3937,-0.2681,-0.17,-0.2058,-0.1879,-0.0716,-0.0,0.0717,0.1611,0.4117,0.5636,0.6068,0.7647,0.9052,1.0549,1.1494,1.2443,0.3432,0.3333,0.3366,0.3417,0.3137,0.2747,0.2198,0.1256,0.0236,-0.055,-0.1257,-0.1902,-0.2606,-0.3485,-0.4509,-0.5772,-0.6609,-0.7492,-0.8552,-0.9082,-0.9432,-0.9689,-0.9864,-1.0038,-1.0038,-1.0038,-1.0038,-1.0038,-1.0038,-1.0038,-1.0038,-1.0727,-1.1413,-1.2015,-1.3222,-1.4159,-1.465,-1.4999,-1.5173,-1.5173,-1.5173,-1.5173,-1.509,-1.4831,-1.4566,-1.4482,-1.4328,-1.4243,-1.4243,-1.4166,-1.4166,-1.4243,-1.4992,-1.5816,-1.6722,-1.6894,-1.7229,-1.7546,-1.7546,-1.7716,-1.804,-1.8434,-1.8603,-1.87,-1.8851,-1.8763,-1.8523,-1.8603,-1.8353,-1.8193,-1.8514,-1.8353,-1.8112,-1.8112,-1.7789,-1.7383,-1.7139,-1.6312,-1.5401,-1.4482,-1.3555,-1.2534,-1.1671,-1.1154,-1.0641,-1.0033,-0.9423,-0.8719,-0.8017,-0.7309,-0.6605,-0.5902,-0.4652,-0.3758,-0.3314,-0.2059,-0.0985,-0.0268,-0.0537,-0.0268,0.0984,0.2237,0.34,0.4472,0.5625,0.6599,0.7559,0.8956,1.0269,1.1499,1.2272,1.3045,0.3477,0.343,0.3447,0.3458,0.3237,0.2904,0.2746,0.1491,0.0236,-0.0393,-0.1178,-0.2072,-0.2999,-0.3693,-0.4594,-0.5948,-0.6697,-0.7492,-0.8552,-0.8995,-0.9257,-0.9602,-0.9777,-0.9951,-0.9951,-1.0038,-1.0038,-1.0038,-1.0038,-1.0038,-1.0038,-1.0641,-1.1241,-1.1929,-1.3045,-1.3899,-1.4489,-1.4831,-1.4999,-1.4999,-1.4915,-1.4915,-1.4831,-1.4566,-1.4398,-1.4321,-1.4166,-1.4088,-1.4088,-1.4088,-1.4173,-1.4243,-1.4901,-1.5484,-1.5989,-1.6154,-1.6402,-1.6812,-1.6812,-1.7139,-1.7546,-1.787,-1.8121,-1.829,-1.829,-1.8121,-1.7951,-1.7942,-1.7619,-1.7375,-1.7627,-1.7546,-1.7375,-1.7286,-1.6968,-1.6558,-1.6312,-1.5733,-1.4894,-1.3971,-1.2954,-1.1929,-1.0982,-1.0289,-0.9685,-0.9082,-0.8288,-0.7669,-0.7136,-0.652,-0.563,-0.4565,-0.3224,-0.1971,-0.1164,-0.0179,0.0806,0.1877,0.1787,0.2054,0.2952,0.4113,0.5361,0.6609,0.7037,0.7906,0.9131,1.0265,1.1316,1.2357,1.3045,1.3652,0.3479,0.3287,0.3227,0.3312,0.2929,0.2589,0.2984,0.1727,0.0236,-0.0314,-0.1178,-0.2232,-0.3248,-0.3777,-0.4594,-0.6119,-0.6786,-0.7496,-0.8736,-0.8911,-0.9087,-0.9515,-0.9602,-0.9689,-0.9951,-1.0038,-1.0038,-1.0038,-1.0038,-1.0038,-1.0038,-1.0641,-1.1241,-1.1677,-1.279,-1.3568,-1.4088,-1.4489,-1.465,-1.465,-1.4482,-1.4398,-1.4398,-1.4398,-1.4321,-1.4088,-1.4088,-1.4088,-1.4088,-1.4088,-1.4243,-1.4398,-1.465,-1.4824,-1.509,-1.509,-1.5249,-1.5394,-1.565,-1.5982,-1.6476,-1.6968,-1.7221,-1.7392,-1.7392,-1.7221,-1.7049,-1.7041,-1.6714,-1.6312,-1.617,-1.6409,-1.6648,-1.6394,-1.6064,-1.565,-1.5394,-1.4727,-1.3886,-1.3124,-1.2095,-1.1068,-1.0381,-0.9506,-0.8719,-0.8285,-0.758,-0.6877,-0.6171,-0.5638,-0.4654,-0.2686,-0.1613,-0.0538,0.0897,0.1702,0.3042,0.5102,0.5361,0.5361,0.5191,0.5536,0.6322,0.7471,0.8615,0.9662,1.0611,1.1574,1.2357,1.3045,1.3737,1.4334,0.3576,0.3377,0.3238,0.3167,0.2968,0.2747,0.2672,0.1492,0.0,-0.1021,-0.1572,-0.2142,-0.2941,-0.3822,-0.4826,-0.6085,-0.689,-0.7669,-0.8564,-0.8828,-0.8911,-0.9087,-0.9257,-0.9519,-0.9689,-0.9689,-0.9777,-0.9951,-1.0038,-1.0038,-1.0038,-1.0294,-1.0809,-1.1413,-1.21,-1.279,-1.3568,-1.3899,-1.4075,-1.425,-1.425,-1.4237,-1.4398,-1.4243,-1.4166,-1.4088,-1.4088,-1.4088,-1.4088,-1.4088,-1.4173,-1.4243,-1.4398,-1.4566,-1.465,-1.4741,-1.5068,-1.5394,-1.5477,-1.5899,-1.6394,-1.6386,-1.6558,-1.664,-1.6558,-1.6312,-1.6147,-1.6057,-1.5891,-1.5643,-1.5235,-1.5068,-1.5151,-1.5409,-1.4985,-1.4475,-1.43,-1.3613,-1.2845,-1.1821,-1.0788,-0.9845,-0.8982,-0.8193,-0.7489,-0.7048,-0.6428,-0.5899,-0.5282,-0.3939,-0.2594,-0.1253,-0.0,0.1164,0.2416,0.3309,0.4467,0.5977,0.6593,0.677,0.6511,0.7295,0.8253,0.9479,1.0274,1.1144,1.2095,1.2875,1.347,1.3971,1.4734,1.5394,0.3547,0.3268,0.3045,0.3122,0.2827,0.2277,0.165,0.0393,-0.0786,-0.1572,-0.1886,-0.2294,-0.3075,-0.3971,-0.49,-0.6208,-0.7037,-0.7757,-0.8476,-0.874,-0.8828,-0.8911,-0.9087,-0.9257,-0.9602,-0.9602,-0.9689,-0.9951,-1.0038,-1.0038,-1.0038,-1.0207,-1.0549,-1.0977,-1.1585,-1.2277,-1.2966,-1.3392,-1.3652,-1.3828,-1.3913,-1.399,-1.3977,-1.4082,-1.4088,-1.4088,-1.4088,-1.4088,-1.4088,-1.4088,-1.4088,-1.4088,-1.4243,-1.4237,-1.4237,-1.4321,-1.4573,-1.4901,-1.4894,-1.5228,-1.556,-1.556,-1.5643,-1.5726,-1.5477,-1.5311,-1.5144,-1.5061,-1.4901,-1.465,-1.4314,-1.3977,-1.3802,-1.4321,-1.3977,-1.3379,-1.2857,-1.2248,-1.1472,-1.0356,-0.9488,-0.8623,-0.7753,-0.7139,-0.652,-0.5897,-0.5095,-0.4383,-0.3671,-0.2237,-0.0805,0.0268,0.1519,0.2769,0.3931,0.5087,0.6233,0.7464,0.8341,0.8952,0.9126,0.9392,1.0091,1.1225,1.1837,1.2613,1.3464,1.3893,1.4398,1.5061,1.5636,1.637,0.3557,0.3129,0.2824,0.3124,0.2357,0.1257,0.0079,-0.11,-0.1887,-0.1887,-0.2042,-0.2447,-0.3387,-0.4129,-0.4982,-0.6364,-0.7121,-0.776,-0.8476,-0.8568,-0.8656,-0.8828,-0.8911,-0.9087,-0.9515,-0.9602,-0.9689,-0.9951,-1.0038,-1.0038,-1.0038,-1.0207,-1.0381,-1.0549,-1.1241,-1.1757,-1.2277,-1.2875,-1.3222,-1.3307,-1.3476,-1.3476,-1.3307,-1.3828,-1.4088,-1.4088,-1.4088,-1.4088,-1.4088,-1.4088,-1.4088,-1.4088,-1.4088,-1.4088,-1.4004,-1.3737,-1.3828,-1.4082,-1.4062,-1.4139,-1.4398,-1.4566,-1.4566,-1.4566,-1.4314,-1.4314,-1.423,-1.4055,-1.3808,-1.3561,-1.3307,-1.296,-1.2705,-1.3052,-1.279,-1.2272,-1.1322,-1.0539,-0.984,-0.889,-0.8185,-0.7482,-0.6779,-0.6254,-0.5725,-0.4921,-0.358,-0.2418,-0.1611,-0.0447,0.0805,0.2058,0.3215,0.4372,0.5534,0.6943,0.8257,0.9383,1.06,1.1649,1.2437,1.1655,1.1735,1.2875,1.3307,1.3984,1.4817,1.4817,1.5311,1.6214,1.6698,1.7342,0.3723,0.3208,0.273,0.2665,0.1491,0.0079,-0.11,-0.1729,-0.2044,-0.1887,-0.2042,-0.2434,-0.3313,-0.4162,-0.5118,-0.6319,-0.7228,-0.8032,-0.8568,-0.8568,-0.8652,-0.8652,-0.8656,-0.8828,-0.9345,-0.9345,-0.9519,-0.9951,-1.0038,-1.0038,-1.0038,-1.0038,-1.0125,-1.0381,-1.0554,-1.0809,-1.1332,-1.1843,-1.2106,-1.2272,-1.2705,-1.2875,-1.2875,-1.3476,-1.3913,-1.4088,-1.4088,-1.4088,-1.4088,-1.4088,-1.4088,-1.4088,-1.3913,-1.3822,-1.3737,-1.3561,-1.3568,-1.3737,-1.3646,-1.3808,-1.4139,-1.3815,-1.3815,-1.3815,-1.3476,-1.3392,-1.3307,-1.3039,-1.296,-1.279,-1.2443,-1.21,-1.1757,-1.1154,-1.0982,-1.0804,-0.9845,-0.9152,-0.8456,-0.7665,-0.6962,-0.6343,-0.5985,-0.5458,-0.4656,-0.3492,-0.2058,-0.0715,0.0268,0.1519,0.304,0.5015,0.5536,0.6322,0.7474,0.8869,1.0173,1.1295,1.2328,1.3275,1.4139,1.3366,1.3281,1.4055,1.4314,1.4734,1.5484,1.6049,1.6535,1.7115,1.8069,1.8957,0.3902,0.3312,0.2589,0.1804,0.0471,-0.0864,-0.165,-0.1965,-0.2123,-0.2042,-0.2198,-0.2588,-0.3448,-0.423,-0.5194,-0.6446,-0.7382,-0.8032,-0.8568,-0.8568,-0.8568,-0.8568,-0.8568,-0.874,-0.9262,-0.9262,-0.9519,-0.9951,-1.0038,-1.0038,-1.0038,-1.0038,-1.0038,-1.012,-1.0207,-1.0463,-1.0809,-1.1241,-1.1585,-1.1666,-1.2015,-1.2363,-1.2619,-1.3222,-1.3652,-1.3913,-1.3997,-1.4004,-1.3913,-1.3913,-1.3828,-1.3743,-1.3652,-1.3568,-1.3568,-1.3307,-1.3313,-1.3398,-1.3137,-1.3215,-1.3379,-1.3045,-1.2966,-1.3052,-1.2717,-1.2546,-1.2546,-1.2277,-1.21,-1.1929,-1.1327,-1.0977,-1.0458,-0.9506,-0.9589,-0.9671,-0.8707,-0.7925,-0.7136,-0.652,-0.5902,-0.5282,-0.4919,-0.403,-0.2867,-0.17,-0.0447,0.0805,0.1878,0.3217,0.4734,0.6349,0.7214,0.8165,0.9222,1.0692,1.2066,1.3256,1.4105,1.4956,1.5636,1.5455,1.5289,1.5242,1.5401,1.5891,1.6632,1.718,1.7819,1.863,1.9353,2.0148,0.4079,0.3245,0.2276,0.0864,-0.0314,-0.1335,-0.1807,-0.1965,-0.2121,-0.2196,-0.2353,-0.2746,-0.3606,-0.4297,-0.517,-0.6615,-0.7357,-0.7998,-0.8564,-0.8568,-0.8568,-0.8568,-0.8568,-0.874,-0.9262,-0.9262,-0.9519,-0.9951,-1.0038,-1.0038,-1.0038,-1.0038,-0.9951,-0.9951,-1.012,-1.0207,-1.0376,-1.0809,-1.0982,-1.0982,-1.1327,-1.1671,-1.2106,-1.279,-1.3307,-1.3652,-1.3828,-1.3828,-1.3568,-1.3568,-1.3392,-1.3307,-1.3222,-1.3222,-1.3222,-1.2973,-1.2887,-1.2887,-1.2625,-1.2619,-1.2534,-1.2369,-1.2363,-1.2283,-1.1946,-1.1866,-1.1774,-1.1505,-1.1241,-1.0809,-1.0202,-0.9676,-0.9148,-0.8197,-0.8368,-0.8448,-0.7658,-0.6868,-0.6163,-0.5633,-0.5013,-0.4391,-0.358,-0.2329,-0.1075,0.0089,0.1342,0.2415,0.3486,0.491,0.6154,0.7214,0.8607,1.0,1.095,1.2498,1.386,1.4956,1.5869,1.6527,1.6944,1.7432,1.7359,1.673,1.6722,1.7123,1.8014,1.847,1.9177,2.0138,2.0537,2.1165,0.4108,0.2974,0.1729,0.0393,-0.0314,-0.0943,-0.1729,-0.1887,-0.2043,-0.2354,-0.251,-0.2746,-0.3606,-0.4245,-0.5083,-0.6599,-0.7264,-0.7861,-0.8544,-0.8568,-0.8568,-0.8568,-0.8568,-0.874,-0.9262,-0.9262,-0.9519,-0.9951,-1.0038,-1.0038,-1.0038,-1.0038,-0.9864,-0.9689,-0.9689,-0.9602,-0.9432,-0.9689,-0.9859,-0.9859,-1.0294,-1.0636,-1.0895,-1.1585,-1.2448,-1.3398,-1.3313,-1.3228,-1.3137,-1.2966,-1.279,-1.279,-1.2619,-1.2534,-1.254,-1.2203,-1.2129,-1.2123,-1.2123,-1.2123,-1.2123,-1.2037,-1.2037,-1.1952,-1.1505,-1.1246,-1.0987,-1.0289,-0.9946,-0.9685,-0.8894,-0.8544,-0.8197,-0.7404,-0.6874,-0.6523,-0.6346,-0.6077,-0.5633,-0.4926,-0.4574,-0.3765,-0.17,-0.0716,0.0179,0.1342,0.3403,0.4926,0.5354,0.6419,0.7746,0.9056,1.0274,1.1483,1.2589,1.4119,1.5387,1.6139,1.7188,1.7836,1.8095,1.8559,1.8877,1.9125,1.839,1.847,1.9362,1.9913,2.0459,2.1011,2.1634,2.2025,0.3812,0.2511,0.1336,0.055,-0.0471,-0.1415,-0.1808,-0.1963,-0.2119,-0.2433,-0.2511,-0.2746,-0.3606,-0.4234,-0.5065,-0.6595,-0.7246,-0.7834,-0.854,-0.8568,-0.8568,-0.8568,-0.8568,-0.874,-0.9262,-0.9262,-0.9519,-0.9951,-1.0038,-1.0038,-1.0038,-1.0038,-0.9864,-0.9602,-0.9602,-0.9515,-0.9262,-0.9345,-0.9432,-0.9432,-0.9777,-1.0033,-1.0202,-1.0809,-1.1585,-1.2448,-1.2619,-1.2448,-1.21,-1.1929,-1.1843,-1.1757,-1.1671,-1.1671,-1.1757,-1.1677,-1.1596,-1.1596,-1.1596,-1.1596,-1.1596,-1.151,-1.1424,-1.1338,-1.0901,-1.0549,-1.0202,-0.9506,-0.9074,-0.8636,-0.7929,-0.7404,-0.6877,-0.6432,-0.5811,-0.5193,-0.4921,-0.4741,-0.4383,-0.3315,-0.2599,-0.1703,-0.0358,0.0716,0.1968,0.3758,0.5097,0.616,0.7031,0.8261,0.9575,1.0783,1.2077,1.3275,1.4441,1.5779,1.687,1.761,1.8487,1.9045,1.9371,1.9913,2.0372,2.0692,1.9806,1.9806,2.0682,2.1165,2.17,2.2241,2.2628,2.2852,0.3583,0.2275,0.1178,0.0707,-0.0471,-0.1572,-0.1887,-0.2042,-0.2198,-0.2431,-0.2511,-0.2746,-0.3606,-0.4214,-0.502,-0.6456,-0.7184,-0.7773,-0.8471,-0.8536,-0.8568,-0.8568,-0.8568,-0.874,-0.9262,-0.9262,-0.9519,-0.9951,-1.0038,-1.0038,-1.0038,-0.9951,-0.9777,-0.9515,-0.9428,-0.9345,-0.9087,-0.9087,-0.9087,-0.9087,-0.9345,-0.9515,-0.9593,-1.0033,-1.0463,-1.0977,-1.1585,-1.1499,-1.089,-1.0804,-1.0717,-1.0544,-1.0544,-1.0631,-1.0804,-1.0804,-1.0804,-1.0804,-1.0809,-1.0895,-1.0809,-1.0814,-1.0727,-1.0549,-1.0115,-0.968,-0.924,-0.8536,-0.8017,-0.7492,-0.6877,-0.6257,-0.5725,-0.5455,-0.4924,-0.4482,-0.4121,-0.3582,-0.2864,-0.1613,-0.0627,0.0358,0.1433,0.2597,0.4028,0.5727,0.6514,0.7295,0.8611,0.9918,1.1209,1.2492,1.3691,1.4873,1.6034,1.7107,1.8086,1.8895,1.9529,2.007,2.0547,2.1165,2.1624,2.1918,2.1364,2.1364,2.1842,2.2241,2.2628,2.315,2.3298,2.3446,0.3521,0.2353,0.1178,0.0707,0.0079,-0.0786,-0.1808,-0.1965,-0.2043,-0.2433,-0.2511,-0.2746,-0.3606,-0.4155,-0.4896,-0.6298,-0.7022,-0.7602,-0.8195,-0.8455,-0.8568,-0.8568,-0.8568,-0.874,-0.9262,-0.9262,-0.9519,-0.9951,-1.0038,-1.0038,-1.0038,-0.9777,-0.9519,-0.9345,-0.9087,-0.8823,-0.8656,-0.8656,-0.8656,-0.8656,-0.8823,-0.8819,-0.8723,-0.9165,-0.9165,-0.8807,-0.9941,-1.0207,-0.9941,-0.9497,-0.9323,-0.9323,-0.9323,-0.9323,-0.9318,-0.9318,-0.9318,-0.9323,-0.9598,-0.9689,-0.9689,-0.9951,-0.9864,-0.9598,-0.9152,-0.8448,-0.7746,-0.7129,-0.6609,-0.6083,-0.5638,-0.528,-0.4921,-0.4476,-0.4304,-0.4308,-0.4308,-0.2867,-0.1253,-0.0268,0.0626,0.1969,0.421,0.5379,0.618,0.6694,0.7478,0.8698,1.0265,1.1295,1.2492,1.4105,1.5115,1.6034,1.7188,1.8086,1.8895,1.952,2.0391,2.1011,2.1385,2.2014,2.2628,2.3213,2.3372,2.3298,2.2927,2.315,2.3372,2.3593,2.3593,2.3677,0.4068,0.2978,0.1884,0.1257,0.0314,-0.0628,-0.1415,-0.1885,-0.2198,-0.2431,-0.2511,-0.2746,-0.3606,-0.4153,-0.4888,-0.6288,-0.7174,-0.7836,-0.8429,-0.8793,-0.9003,-0.8828,-0.8828,-0.8828,-0.8999,-0.9174,-0.9432,-0.9689,-0.9864,-1.0038,-1.0038,-0.9777,-0.9519,-0.9349,-0.8999,-0.8828,-0.8568,-0.8472,-0.8472,-0.8568,-0.8384,-0.8292,-0.8372,-0.8552,-0.8464,-0.8201,-0.8552,-0.8723,-0.8811,-0.8632,-0.8456,-0.8285,-0.8285,-0.8277,-0.8269,-0.8269,-0.8269,-0.8356,-0.8448,-0.8452,-0.8452,-0.8536,-0.836,-0.7921,-0.7658,-0.6949,-0.6157,-0.5716,-0.5277,-0.4832,-0.4565,-0.448,-0.4121,-0.2594,-0.1878,-0.1342,-0.0805,-0.0537,-0.0089,0.1342,0.2773,0.4202,0.5181,0.6343,0.7316,0.8173,0.9396,1.0702,1.2151,1.3262,1.4518,1.5928,1.6756,1.7585,1.8567,1.9292,2.001,2.0615,2.1242,2.1939,2.2606,2.3139,2.3655,2.4215,2.4371,2.4311,2.397,2.4043,2.425,2.4515,2.4515,2.4587,0.4693,0.3759,0.2744,0.1884,0.0942,-0.0,-0.0707,-0.1335,-0.1883,-0.2431,-0.2431,-0.2666,-0.3526,-0.3995,-0.4794,-0.6139,-0.7086,-0.7808,-0.8259,-0.8738,-0.8901,-0.8645,-0.8611,-0.8644,-0.8644,-0.8819,-0.899,-0.9253,-0.9428,-0.951,-0.951,-0.9248,-0.9078,-0.8819,-0.8644,-0.8472,-0.8388,-0.8204,-0.8204,-0.8388,-0.8032,-0.7852,-0.7845,-0.7845,-0.7669,-0.7408,-0.7319,-0.7584,-0.794,-0.776,-0.7588,-0.7411,-0.7408,-0.7312,-0.7305,-0.7305,-0.7305,-0.7221,-0.7309,-0.7217,-0.7129,-0.7217,-0.6861,-0.6416,-0.6428,-0.5808,-0.4917,-0.4654,-0.43,-0.3941,-0.3401,-0.3044,-0.2418,-0.0626,0.0447,0.1341,0.2593,0.1878,0.1609,0.3578,0.4917,0.5894,0.6498,0.7559,0.8703,0.9995,1.1214,1.251,1.3937,1.5025,1.6101,1.7334,1.8078,1.8727,1.9539,2.0245,2.0876,2.1482,2.2166,2.2852,2.3593,2.3959,2.4443,2.5087,2.5229,2.5241,2.5111,2.4909,2.4969,2.53,2.5229,2.5382,0.0,0.0,0.0,0.2744,0.196,0.1097,0.0235,-0.0471,-0.1178,-0.2275,-0.2353,-0.243,-0.329,-0.3759,-0.4535,-0.5931,-0.6838,-0.7509,-0.7756,-0.8222,-0.845,-0.7951,-0.8095,-0.8193,-0.8197,-0.8197,-0.8288,-0.8548,-0.8548,-0.8548,-0.8548,-0.8285,-0.8113,-0.7852,-0.7852,-0.7852,-0.7852,-0.7856,-0.7856,-0.7852,-0.7856,-0.7584,-0.7051,-0.7051,-0.6786,-0.6343,-0.6343,-0.6789,-0.7415,-0.6972,-0.6795,-0.6704,-0.652,-0.634,-0.6343,-0.6343,-0.6257,-0.6083,-0.6254,-0.6074,-0.5719,-0.5983,-0.5534,-0.5001,-0.546,-0.4926,-0.4121,-0.3674,-0.3497,-0.3227,-0.2059,-0.0895,0.0358,0.1342,0.2235,0.3486,0.5371,0.4472,0.4022,0.6269,0.6792,0.7214,0.8348,0.9396,1.0438,1.1901,1.2838,1.3937,1.553,1.6511,1.7415,1.8256,1.8984,1.9618,2.0264,2.0867,2.1482,2.2101,2.2927,2.3593,2.4189,2.4587,2.5087,2.591,2.591,2.6107,2.6414,2.5721,2.5511,2.5931,2.5734,2.5886,0.5938,0.0,0.0,0.0,0.0,0.0,0.0784,-0.0157,-0.1178,-0.204,-0.2196,-0.243,-0.329,-0.3682,-0.4226,-0.5157,-0.6287,-0.7187,-0.7513,-0.7947,-0.8138,-0.7758,-0.7729,-0.7628,-0.7394,-0.758,-0.7753,-0.7841,-0.7925,-0.8009,-0.8009,-0.7841,-0.758,-0.7319,-0.7136,-0.7136,-0.7136,-0.6789,-0.6789,-0.7136,-0.6605,-0.6428,-0.6609,-0.608,-0.5813,-0.5636,-0.5636,-0.5813,-0.5994,-0.6346,-0.6343,-0.5988,-0.5897,-0.5719,-0.5364,-0.5364,-0.528,-0.5104,-0.5193,-0.4832,-0.4474,-0.5013,-0.4565,-0.3849,-0.4123,-0.2956,-0.1523,-0.1434,-0.1165,-0.0806,0.0268,0.143,0.2683,0.4115,0.4914,0.5531,0.6511,0.6854,0.7112,0.7228,0.7918,0.8952,1.0086,1.1209,1.2413,1.3769,1.4678,1.5756,1.7172,1.7989,1.8718,1.9381,1.9932,2.0489,2.1118,2.1568,2.2241,2.315,2.3677,2.4334,2.5182,2.5465,2.5886,2.6452,2.6645,2.685,2.7175,2.6483,2.622,2.6496,2.6714,2.6863,0.656,0.5938,0.5237,0.4462,0.0,0.0,0.141,0.0392,-0.0628,-0.1569,-0.1962,-0.2276,-0.2979,-0.3372,-0.3763,-0.4384,-0.5218,-0.5975,-0.6691,-0.7228,-0.7449,-0.7054,-0.7098,-0.7039,-0.6783,-0.6841,-0.6874,-0.6874,-0.6868,-0.6779,-0.6599,-0.6514,-0.6425,-0.6251,-0.6074,-0.6071,-0.6071,-0.5811,-0.5811,-0.6071,-0.563,-0.5542,-0.5716,-0.5188,-0.4924,-0.4743,-0.4743,-0.4743,-0.4832,-0.5277,-0.5453,-0.5364,-0.5186,-0.4919,-0.4563,-0.4472,-0.4387,-0.4304,-0.4304,-0.4125,-0.3765,-0.3946,-0.3138,-0.2151,-0.2061,-0.1075,0.0269,0.0986,0.1701,0.2326,0.3218,0.3929,0.4819,0.5985,0.6864,0.7555,0.8173,0.9043,0.9561,0.879,0.9566,1.0768,1.1901,1.3087,1.4266,1.5433,1.6339,1.7245,1.8399,1.9134,1.9766,2.0245,2.0789,2.1339,2.1959,2.2542,2.3128,2.3863,2.4539,2.5182,2.5873,2.6233,2.6645,2.7188,2.7242,2.751,2.7842,2.7175,2.6973,2.7188,2.7523,2.7723,0.7334,0.6637,0.586,0.5237,0.4226,0.0,0.2037,0.102,0.0079,-0.1021,-0.1572,-0.2043,-0.2669,-0.2904,-0.3217,-0.3684,-0.3915,-0.4457,-0.5628,-0.628,-0.6447,-0.6157,-0.6296,-0.6367,-0.6218,-0.6078,-0.5974,-0.5974,-0.5542,-0.5191,-0.4921,-0.4921,-0.4921,-0.4921,-0.4919,-0.483,-0.4832,-0.483,-0.483,-0.483,-0.4741,-0.4652,-0.4561,-0.4208,-0.3941,-0.376,-0.376,-0.376,-0.376,-0.403,-0.4476,-0.4832,-0.4478,-0.403,-0.3669,-0.34,-0.3403,-0.3497,-0.3497,-0.332,-0.3054,-0.2694,-0.1615,-0.0269,0.0179,0.0807,0.1703,0.3317,0.4565,0.5455,0.6169,0.6602,0.6854,0.7383,0.8515,0.9648,1.0173,1.1123,1.1724,1.1037,1.1638,1.2668,1.3782,1.4866,1.6018,1.7001,1.7747,1.8479,1.9381,2.002,2.0566,2.0944,2.1568,2.2176,2.2777,2.3486,2.4131,2.4564,2.5453,2.6107,2.6483,2.6892,2.7377,2.7855,2.7921,2.8105,2.8417,2.7855,2.7723,2.7908,2.8235,2.8417,0.7787,0.7173,0.6475,0.5699,0.4616,0.0,0.2588,0.1491,0.0393,-0.0707,-0.1335,-0.1886,-0.2433,-0.2589,-0.2746,-0.3139,-0.337,-0.3837,-0.4776,-0.5182,-0.539,-0.5416,-0.5554,-0.5709,-0.5563,-0.5424,-0.5407,-0.5407,-0.5056,-0.4748,-0.4476,-0.4476,-0.4476,-0.4476,-0.4206,-0.403,-0.3855,-0.3674,-0.3583,-0.3583,-0.3403,-0.3403,-0.3494,-0.305,-0.2781,-0.2781,-0.2781,-0.2781,-0.2781,-0.3317,-0.3674,-0.3944,-0.4216,-0.3585,-0.2506,-0.1969,-0.161,-0.1342,-0.1342,-0.0896,-0.0359,-0.0538,-0.0179,0.0538,0.1885,0.2781,0.3496,0.4739,0.5622,0.6328,0.7295,0.8261,0.9135,0.974,1.0859,1.1889,1.2474,1.325,1.4015,1.4511,1.4266,1.4273,1.5365,1.6363,1.735,1.8247,1.8877,1.952,2.0245,2.0731,2.1195,2.1578,2.2176,2.2841,2.3632,2.4059,2.4647,2.5535,2.6013,2.662,2.7284,2.763,2.7987,2.8457,2.8716,2.8944,2.9107,2.8638,2.8392,2.8457,2.8766,2.9008,0.8241,0.7633,0.7019,0.6247,0.5237,0.0,0.0,0.2196,0.1099,0.0079,-0.0628,-0.1257,-0.1805,-0.212,-0.2357,-0.2592,-0.2746,-0.2978,-0.3526,-0.4151,-0.4641,-0.4933,-0.5076,-0.5216,-0.5273,-0.5053,-0.4801,-0.442,-0.4251,-0.4034,-0.3587,-0.3587,-0.3587,-0.3587,-0.3317,-0.3138,-0.3051,-0.2781,-0.269,-0.269,-0.2601,-0.2601,-0.269,-0.2333,-0.2154,-0.2154,-0.1885,-0.1705,-0.1525,-0.1882,-0.1882,-0.1882,-0.242,-0.2061,-0.0985,-0.0358,0.009,0.0358,0.0537,0.1253,0.1972,0.2152,0.224,0.2597,0.3944,0.4921,0.5888,0.6854,0.7727,0.8515,0.9296,1.0341,1.1295,1.1798,1.2826,1.3762,1.4343,1.5101,1.5944,1.6683,1.6675,1.6675,1.6935,1.7755,1.8576,1.9381,1.9923,2.0469,2.1108,2.1645,2.2176,2.2606,2.3191,2.3852,2.4659,2.5134,2.5709,2.6427,2.6892,2.743,2.8039,2.8365,2.8753,2.9198,2.9526,2.9699,2.9808,2.9637,2.9449,2.9198,2.9526,2.9699,0.8703,0.8097,0.7484,0.6872,0.5938,0.4927,0.0,0.0,0.0,0.0942,0.0392,-0.0235,-0.0943,-0.1415,-0.1729,-0.1887,-0.1962,-0.2118,-0.2353,-0.3215,-0.3919,-0.4387,-0.4622,-0.4756,-0.4911,-0.469,-0.4219,-0.3466,-0.3442,-0.3304,-0.2963,-0.2875,-0.2875,-0.2875,-0.2604,-0.2513,-0.2424,-0.2243,-0.2064,-0.2064,-0.2064,-0.2064,-0.2064,-0.1705,-0.1525,-0.1525,-0.0987,-0.0538,-0.0179,-0.0269,-0.0,0.0358,-0.0359,-0.0179,0.0448,0.1345,0.1704,0.1972,0.2238,0.3044,0.3944,0.4395,0.4659,0.4921,0.5902,0.6956,0.8086,0.9131,1.0,1.0956,1.1643,1.2498,1.3347,1.3756,1.4768,1.5621,1.6108,1.678,1.7602,1.8238,1.8727,1.8895,1.8407,1.8975,1.9696,2.0333,2.0789,2.1252,2.1883,2.2467,2.3128,2.3768,2.4276,2.4933,2.5734,2.622,2.6688,2.7162,2.7776,2.8314,2.878,2.9212,2.9637,2.9993,3.0312,3.0493,3.0447,3.0687,3.0493,2.9931,3.0251,3.0433,0.9079,0.8475,0.7872,0.7257,0.6325,0.5312,0.4538,0.0,0.2511,0.1647,0.0,0.1098,0.0079,0.0,0.0,-0.1257,-0.1414,-0.157,-0.204,-0.2273,-0.2665,-0.3446,-0.3771,-0.3936,-0.3936,-0.3778,-0.3568,-0.3202,-0.3132,-0.3077,-0.2872,-0.2875,-0.2875,-0.2875,-0.2604,-0.2424,-0.2243,-0.1974,-0.1705,-0.1525,-0.1525,-0.1525,-0.1436,-0.0987,-0.0628,-0.0179,0.0269,0.0628,0.0897,0.1075,0.1432,0.188,0.1076,0.1076,0.1794,0.3048,0.3585,0.3669,0.3939,0.4387,0.4919,0.5184,0.5805,0.6688,0.7654,0.8619,0.9575,1.0692,1.1724,1.2589,1.3444,1.4364,1.5274,1.5876,1.6706,1.7529,1.7934,1.8416,1.8913,1.9548,1.9942,1.9942,1.9478,1.9872,2.0333,2.0789,2.1339,2.1949,2.2553,2.3128,2.3768,2.4492,2.5087,2.5746,2.6508,2.6769,2.7229,2.7842,2.8314,2.8844,2.9477,3.019,3.0658,3.0718,3.1043,3.1102,3.0911,3.1248,3.1087,3.0507,3.0702,3.0807,1.0062,0.9311,0.8637,0.8021,0.7169,0.6314,0.5464,0.4616,0.3682,0.282,0.0,0.0,0.0,0.0,0.0,0.0,-0.0236,-0.0707,-0.1256,-0.157,-0.2041,-0.2981,-0.3137,-0.3215,-0.3215,-0.3363,-0.3273,-0.2838,-0.2995,-0.3051,-0.282,-0.2856,-0.2873,-0.2694,-0.2424,-0.2243,-0.1974,-0.1705,-0.1525,-0.1436,-0.1436,-0.1256,-0.0897,-0.0269,0.0269,0.0807,0.1344,0.1972,0.269,0.2776,0.3042,0.3401,0.3312,0.3223,0.3135,0.4119,0.4654,0.5008,0.5364,0.5805,0.6331,0.7288,0.8253,0.9218,1.0082,1.1037,1.1986,1.3002,1.3769,1.4455,1.5372,1.6026,1.669,1.7359,1.8023,1.8594,1.9143,1.9618,2.0098,2.0576,2.1031,2.1262,2.1108,2.1108,2.1339,2.1863,2.2456,2.3043,2.3632,2.4288,2.5004,2.5639,2.6139,2.6633,2.731,2.7564,2.796,2.8417,2.9233,2.9931,3.0372,3.1014,3.1321,3.1321,3.1524,3.1539,3.1467,3.1524,3.1336,3.1117,3.1176,3.1234,1.1174,1.0432,0.976,0.9226,0.8385,0.754,0.6696,0.5851,0.4927,0.4068,0.3604,0.0,0.0,0.0,0.2038,0.1804,0.0,0.0471,0.0157,-0.0314,-0.1099,-0.2434,-0.2591,-0.2591,-0.2591,-0.2789,-0.2825,-0.2602,-0.278,-0.2935,-0.2869,-0.2841,-0.2784,-0.2604,-0.2334,-0.2064,-0.1885,-0.1436,-0.1076,-0.0987,-0.0987,-0.0628,-0.009,0.0538,0.1256,0.2062,0.2418,0.3135,0.4036,0.4297,0.4563,0.4921,0.5453,0.5447,0.5176,0.5447,0.5894,0.6337,0.6953,0.7562,0.8341,0.9557,1.0595,1.1461,1.2407,1.3262,1.4196,1.4956,1.5545,1.6214,1.6944,1.7594,1.8158,1.8656,1.9143,1.9706,2.0177,2.0644,2.1108,2.1425,2.1959,2.2402,2.2553,2.2327,2.2327,2.2777,2.3412,2.3986,2.4564,2.53,2.6013,2.6564,2.704,2.751,2.7987,2.83,2.8739,2.9219,3.0162,3.0837,3.1204,3.161,3.1796,3.1796,3.1883,3.1898,3.1799,3.167,3.1539,3.1482,3.1482,3.1482,1.2418,1.1822,1.123,1.0858,0.9965,0.8993,0.8232,0.7234,0.6234,0.5384,0.4927,0.4467,0.3841,0.3526,0.321,0.2896,0.2429,0.0,0.0,0.1724,0.047,-0.165,-0.1965,-0.1965,-0.1965,-0.1967,-0.2066,-0.244,-0.2495,-0.2636,-0.2867,-0.2931,-0.2875,-0.2875,-0.2424,-0.2154,-0.2154,-0.1076,-0.0359,-0.0,0.0179,0.0538,0.0987,0.1525,0.2511,0.3767,0.3851,0.4119,0.4748,0.5366,0.5897,0.6428,0.7136,0.7834,0.8261,0.7383,0.7302,0.783,0.8794,0.9923,1.0956,1.1643,1.2486,1.3328,1.4105,1.4942,1.5703,1.6221,1.696,1.7691,1.8175,1.8886,1.9608,1.9775,2.0489,2.1128,2.1128,2.1655,2.2101,2.2327,2.2703,2.315,2.3751,2.3372,2.3001,2.3224,2.3925,2.4564,2.5158,2.5931,2.6633,2.7201,2.7723,2.8105,2.8522,2.8908,2.9449,3.0404,3.097,3.1394,3.1682,3.2023,3.2135,3.1996,3.215,3.2038,3.1799,3.1799,3.167,3.1482,3.1482,3.1482,1.4099,1.3368,1.2631,1.2391,1.1588,1.0708,1.0034,0.9125,0.8134,0.7294,0.6842,0.6388,0.5693,0.5381,0.5068,0.4606,0.4217,0.3906,0.0,0.337,0.2978,0.1958,0.0628,-0.0236,-0.0236,-0.0471,-0.0709,-0.0874,-0.1152,-0.1349,-0.1444,-0.1408,-0.1346,-0.1256,-0.1076,-0.0807,-0.0448,-0.009,0.0448,0.0897,0.1705,0.2333,0.2869,0.3496,0.4032,0.4385,0.4919,0.5453,0.616,0.6776,0.7482,0.8097,0.8794,0.9405,0.984,0.9052,0.9144,0.9845,1.088,1.1826,1.276,1.3516,1.435,1.5267,1.6108,1.6764,1.7342,1.7934,1.8345,1.8674,1.9222,1.9775,2.0401,2.0857,2.1405,2.1883,2.2111,2.2553,2.2927,2.315,2.3717,2.4215,2.4587,2.4814,2.4814,2.4659,2.5158,2.5721,2.6151,2.6769,2.731,2.7908,2.8287,2.8753,2.9226,2.9884,3.0478,3.097,3.1509,3.1868,3.2023,3.2135,3.2191,3.215,3.1996,3.1898,3.1799,3.167,3.1597,3.1482,3.1482,3.1482,1.6111,1.5444,1.4773,1.4486,1.3807,1.3049,1.235,1.1421,1.0483,0.9637,0.9025,0.8424,0.7821,0.7439,0.7061,0.6458,0.615,0.5607,0.0,0.4924,0.4929,0.4462,0.2665,0.1492,0.1492,0.1256,0.102,0.0863,0.0569,0.05,0.0588,0.0609,0.0623,0.0806,0.0806,0.0896,0.1254,0.1434,0.1792,0.2241,0.296,0.3587,0.4212,0.4924,0.5366,0.5447,0.6157,0.6776,0.7478,0.8265,0.8969,0.9763,1.0448,1.1139,1.1483,1.0702,1.1047,1.2003,1.2936,1.3698,1.4455,1.5365,1.6198,1.6944,1.7764,1.8327,1.8807,1.9231,1.9548,1.9863,2.0323,2.0867,2.1405,2.1928,2.2317,2.2703,2.3075,2.3508,2.3863,2.3948,2.4587,2.5229,2.5429,2.5943,2.6164,2.5664,2.6082,2.6633,2.6973,2.7523,2.8052,2.856,2.8994,2.9498,3.0083,3.0658,3.119,3.1524,3.1868,3.215,3.2247,3.2287,3.2247,3.2191,3.2038,3.194,3.1898,3.1769,3.1655,3.1655,3.1655,3.1697]}]]